[[{"header":{"parameterUnit":"m.s-1","parameterCategory":1,"la1":30.6,"la2":29.2853,"lo1":-89.7004,"lo2":-87.6739,"dy":0.0162,"dx":0.0183,"nx":112,"ny":82,"refTime":"2023-03-28T18:00:00:Z","depth":0,"parameterNumber":2,"parameterNumberName":"U-component_of_WINDS"},"data":[0.0,0.0,0.0,0.0,0.0,0.0,0.0,0.0,0.0,0.0,0.0,0.0,0.0,0.0,0.0,0.0,0.0,0.0,0.0,0.0,0.0,0.0,0.0,0.0,0.0,0.0,0.0,0.0,0.0,0.0,0.0,0.0,0.0,0.0,0.0,0.0,0.0,0.0,0.0,0.0,0.0,0.0,0.0,0.0,0.0,0.0,0.0,0.0,0.0,0.0,0.0,0.0,0.0,0.0,0.0,0.0,0.0,0.0,0.0,0.0,0.0,0.0,0.0,0.0,0.0,0.0,0.0,0.0,0.0,0.0,0.0,0.0,0.0,0.0,0.0,0.0,0.0,0.0,0.0,0.0,0.0,0.0,0.0,0.0,0.0,0.0,0.0,0.0,0.0,0.0,1.2929,1.1564,0.8923,0.7428,0.7587,0.7709,0.8048,0.8603,0.0,0.0,0.0,0.0,0.0,0.0,0.0,0.0,0.0,0.0,0.0,0.0,0.0,0.0,0.0,0.0,0.0,0.0,0.0,0.0,0.0,0.0,0.0,0.0,0.0,0.0,0.0,0.0,0.0,0.0,0.0,0.0,0.0,0.0,0.0,0.0,0.0,0.0,0.0,0.0,0.0,0.0,0.0,0.0,0.0,0.0,0.0,0.0,0.0,0.0,0.0,0.0,0.0,0.0,0.0,0.0,0.0,0.0,0.0,0.0,0.0,0.0,0.0,0.0,0.0,0.0,0.0,0.0,0.0,0.0,0.0,0.0,0.0,0.0,0.0,0.0,0.0,0.0,0.0,0.0,0.0,0.0,0.0,0.0,0.0,0.0,0.0,0.0,0.0,0.0,0.0,0.0,0.0,0.0,0.0,0.0,0.0,0.0,0.0,0.0,0.0,0.0,0.0,0.0,1.1456,0.807,0.7396,0.7295,0.7573,0.7617,0.8254,0.9657,0.0,0.0,0.0,0.0,0.0,0.0,0.0,0.0,0.0,0.0,0.0,0.0,0.0,0.0,0.0,0.0,0.0,0.0,0.0,0.0,0.0,0.0,0.0,0.0,0.0,0.0,0.0,0.0,0.0,0.0,0.0,0.0,0.0,0.0,0.0,0.0,0.0,0.0,0.0,0.0,0.0,0.0,0.0,0.0,0.0,0.0,0.0,0.0,0.0,0.0,0.0,0.0,0.0,0.0,0.0,0.0,0.0,0.0,0.0,0.0,0.0,0.0,0.0,0.0,0.0,0.0,0.0,0.0,0.0,0.0,0.0,0.0,0.0,0.0,0.0,0.0,0.0,0.0,0.0,0.0,0.0,0.0,0.0,0.0,0.0,0.0,0.0,0.0,0.0,0.0,0.0,0.0,0.0,0.0,0.0,0.0,0.0,0.0,0.0,0.0,0.0,0.0,0.0,1.2383,0.9963,0.7161,0.7129,0.7356,0.758,0.7587,0.8002,0.8721,0.7152,0.0,0.0,0.0,0.0,0.0,0.0,0.0,0.0,0.0,0.0,0.0,0.0,0.0,0.0,0.0,0.0,0.0,0.0,0.0,0.0,0.0,0.0,0.0,0.0,0.0,0.0,0.0,0.0,0.0,0.0,0.0,0.0,0.0,0.0,0.0,0.0,0.0,0.0,0.0,0.0,0.0,0.0,0.0,0.0,0.0,0.0,0.0,0.0,0.0,0.0,0.0,0.0,0.0,0.0,0.0,0.0,0.0,0.0,0.0,0.0,0.0,0.0,0.0,0.0,0.0,0.0,0.0,0.0,0.0,0.0,0.0,0.0,0.0,0.0,0.0,0.0,0.0,0.0,0.0,0.0,0.0,0.0,0.0,0.0,0.0,0.0,0.0,0.0,0.0,0.0,0.0,0.0,0.0,0.0,0.0,0.0,0.0,0.0,0.0,0.0,0.0,0.0,1.0269,0.8768,0.7142,0.7217,0.7438,0.759,0.762,0.7485,0.6873,0.6037,0.0,0.0,0.0,0.0,0.0,0.0,0.0,0.0,0.0,0.0,0.0,0.0,0.0,0.0,0.0,0.0,0.0,0.0,0.0,0.0,0.0,0.0,0.0,0.0,0.0,0.0,0.0,0.0,0.0,0.0,0.0,0.0,0.0,0.0,0.0,0.0,0.0,0.0,0.0,0.0,0.0,0.0,0.0,0.0,0.0,0.0,0.0,0.0,0.0,0.0,0.0,0.0,0.0,0.0,0.0,0.0,0.0,0.0,0.0,0.0,0.0,0.0,0.0,0.0,0.0,0.0,0.0,0.0,0.0,0.0,0.0,0.0,0.0,0.0,0.0,0.0,0.0,0.0,0.0,0.0,0.0,0.0,0.0,0.0,0.0,0.0,0.0,0.0,0.0,0.0,0.0,0.0,0.0,0.0,0.0,0.0,0.0,0.0,0.0,0.0,0.0,0.0,0.9742,0.8451,0.72,0.7292,0.7366,0.7409,0.7624,0.667,0.4375,0.4377,0.0,0.0,0.0,0.0,0.0,0.0,0.0,0.0,0.0,0.0,0.0,0.0,0.0,0.0,0.0,0.0,0.0,0.0,0.0,0.0,0.0,0.0,0.0,0.0,0.0,0.0,0.0,0.0,0.0,0.0,0.0,0.0,0.0,0.0,0.0,0.0,0.0,0.0,0.0,0.0,0.0,0.0,0.0,0.0,0.0,0.0,0.0,0.0,0.0,0.0,0.0,0.0,0.0,0.0,0.0,0.0,0.0,0.0,0.0,0.0,0.0,0.0,0.0,0.0,0.0,0.0,0.0,0.0,0.0,0.0,0.0,0.0,0.0,0.0,0.0,0.0,0.0,0.0,0.0,0.0,0.0,0.0,0.0,0.0,0.0,0.0,0.0,0.0,0.0,0.0,0.0,0.0,0.0,0.0,0.0,0.0,0.0,0.0,0.0,0.0,0.0,0.0,0.924,0.761,0.7136,0.7299,0.7369,0.7412,0.7739,0.6759,0.4037,0.0,0.0,0.0,0.0,0.0,0.0,0.0,0.0,0.0,0.0,0.0,0.0,0.0,0.0,0.0,0.0,0.0,0.0,0.0,0.0,0.0,0.0,0.0,0.0,0.0,0.0,0.0,0.0,0.0,0.0,0.0,0.0,0.0,0.0,0.0,0.0,0.0,0.0,0.0,0.0,0.0,0.0,0.0,0.0,0.0,0.0,0.0,0.0,0.0,0.0,0.0,0.0,0.0,0.0,0.0,0.0,0.0,0.0,0.0,0.0,0.0,0.0,0.0,0.0,0.0,0.0,0.0,0.0,0.0,0.0,0.0,0.0,0.0,0.0,0.0,0.0,0.0,0.0,0.0,0.0,0.0,0.0,0.0,0.0,0.0,0.0,0.0,0.0,0.0,0.0,0.0,0.0,0.0,0.0,0.0,0.0,0.0,0.0,0.0,0.0,0.0,0.0,1.1438,0.8871,0.7095,0.7136,0.7305,0.7165,0.6301,0.7302,0.6625,0.3234,0.0,0.0,0.0,0.0,0.0,0.0,0.0,0.0,0.0,0.0,0.0,0.0,0.0,0.0,0.0,0.0,0.0,0.0,0.0,0.0,0.0,0.0,0.0,0.0,0.0,0.0,0.0,0.0,0.0,0.0,0.0,0.0,0.0,0.0,0.0,0.0,0.0,0.0,0.0,0.0,0.0,0.0,0.0,0.0,0.0,0.0,0.0,0.0,0.0,0.0,0.0,0.0,0.0,0.0,0.0,0.0,0.0,0.0,0.0,0.0,0.0,0.0,0.0,0.0,0.0,0.0,0.0,0.0,0.0,0.0,0.0,0.0,0.0,0.0,0.0,0.0,0.0,0.0,0.0,0.0,0.0,0.0,0.0,0.0,0.0,0.0,0.0,0.0,0.0,0.0,0.0,0.0,0.0,0.0,0.0,0.0,0.0,0.0,0.0,0.0,0.0,0.0,1.1128,0.8785,0.7087,0.7126,0.7403,0.648,0.3867,0.6216,0.6043,0.0,0.0,0.0,0.0,0.0,0.0,0.0,0.0,0.0,0.0,0.0,0.0,0.0,0.0,0.0,0.0,0.0,0.0,0.0,0.0,0.0,0.0,0.0,0.0,0.0,0.0,0.0,0.0,0.0,0.0,0.0,0.0,0.0,0.0,0.0,0.0,0.0,0.0,0.0,0.0,0.0,0.0,0.0,0.0,0.0,0.0,0.0,0.0,0.0,0.0,0.0,0.0,0.0,0.0,0.0,0.0,0.0,0.0,0.0,0.0,0.0,0.0,0.0,0.0,0.0,0.0,0.0,0.0,0.0,0.0,0.0,0.0,0.0,0.0,0.0,0.0,0.0,0.0,0.0,0.0,0.0,0.0,0.0,0.0,0.0,0.0,0.0,0.0,0.0,0.0,0.0,0.0,0.0,0.0,0.0,0.0,0.0,0.0,0.0,0.0,0.0,0.0,0.0,1.1064,0.871,0.7099,0.7136,0.7214,0.6283,0.3772,0.2879,0.2,0.1058,0.0,0.0,0.0,0.0,0.0,0.0,0.0,0.0,0.0,0.0,0.0,0.0,0.0,0.0,0.0,0.0,0.0,0.0,0.0,0.0,0.0,0.0,0.0,0.0,0.0,0.0,0.0,0.0,0.0,0.0,0.0,0.0,0.0,0.0,0.0,0.0,0.0,0.0,0.0,0.0,0.0,0.0,0.0,0.0,0.0,0.0,0.0,0.0,0.0,0.0,0.0,0.0,0.0,0.0,0.0,0.0,0.0,0.0,0.0,0.0,0.0,0.0,0.0,0.0,0.0,0.0,0.0,0.0,0.0,0.0,0.0,0.0,0.0,0.0,0.0,0.0,0.0,0.0,0.0,0.0,0.0,0.0,0.0,0.0,0.0,0.0,0.0,0.0,0.0,0.0,0.0,0.0,0.0,0.0,0.0,0.0,0.0,0.0,0.0,0.0,0.0,0.0,1.0989,0.8578,0.699,0.7048,0.7044,0.6284,0.422,0.2374,0.1597,0.2426,0.0,0.0,0.0,0.0,0.0,0.0,0.0,0.0,0.0,0.0,0.0,0.0,0.0,0.0,0.0,0.0,0.0,0.0,0.0,0.0,0.0,0.0,0.0,0.0,0.0,0.0,0.0,0.0,0.0,0.0,0.0,0.0,0.0,0.0,0.0,0.0,0.0,0.0,0.0,0.0,0.0,0.0,0.0,0.0,0.0,0.0,0.0,0.0,0.0,0.0,0.0,0.0,0.0,0.0,0.0,0.0,0.0,0.0,0.0,0.0,0.0,0.0,0.0,0.0,0.0,0.0,0.0,0.0,0.0,0.0,0.0,0.0,0.0,0.0,0.0,0.0,0.0,0.0,0.0,0.0,0.0,0.0,0.0,0.0,0.0,0.0,0.0,0.0,0.0,0.0,0.0,0.0,0.0,0.0,0.0,0.0,0.0,0.0,0.0,0.0,0.0,0.0,1.0963,0.8468,0.6756,0.6895,0.6967,0.6464,0.5094,0.4054,0.389,0.486,0.0,0.0,0.0,0.0,0.0,0.0,0.0,0.0,0.0,0.0,0.0,0.0,0.0,0.0,0.0,0.0,0.0,0.0,0.0,0.0,0.0,0.0,0.0,0.0,0.0,0.0,0.0,0.0,0.0,0.0,0.0,0.0,0.0,0.0,0.0,0.0,0.0,0.0,0.0,0.0,0.0,0.0,0.0,0.0,0.0,0.0,0.0,0.0,0.0,0.0,0.0,0.0,0.0,0.0,0.0,0.0,0.0,0.0,0.0,0.0,1.8778,2.0097,0.0,0.0,0.0,0.0,0.0,0.0,0.0,0.0,0.0,0.0,0.0,0.0,0.0,0.0,0.0,0.0,0.0,0.0,0.0,0.0,0.0,0.0,0.0,0.0,0.0,0.0,0.0,0.0,0.0,0.0,0.0,0.0,0.0,0.0,0.0,0.0,0.0,0.0,0.0,0.0,1.137,0.8593,0.6812,0.6846,0.6816,0.6761,0.6363,0.6102,0.5551,0.4769,0.5067,0.0,0.0,0.0,0.0,0.0,0.0,0.0,0.0,0.0,0.0,0.0,0.0,0.0,0.0,0.0,0.0,0.0,0.0,0.0,0.0,0.0,0.0,0.0,0.0,0.0,0.0,0.0,0.0,0.0,0.0,0.0,0.0,0.0,0.0,0.0,0.0,0.0,0.0,0.0,0.0,0.0,0.0,0.0,0.0,0.0,0.0,0.0,0.0,0.0,0.0,0.0,0.0,0.0,0.0,0.0,0.0,0.0,0.0,0.0,1.778,1.8344,0.0,0.0,0.0,0.0,0.0,0.0,0.0,0.0,0.0,0.0,0.0,0.0,0.0,0.0,0.0,0.0,0.0,0.0,0.0,0.0,0.0,0.0,0.0,0.0,0.0,0.0,0.0,0.0,0.0,0.0,0.0,0.0,0.0,0.0,0.0,0.0,0.0,0.0,0.0,0.0,1.0979,0.7481,0.5445,0.6617,0.6662,0.6719,0.6725,0.6725,0.6447,0.58,0.6162,0.0,0.0,0.0,0.0,0.0,0.0,0.0,0.0,0.0,0.0,0.0,0.0,0.0,0.0,0.0,0.0,0.0,0.0,0.0,0.0,0.0,0.0,0.0,0.0,0.0,0.0,0.0,0.0,0.0,0.0,0.0,0.0,0.0,0.0,0.0,0.0,0.0,0.0,0.0,0.0,0.0,0.0,0.0,0.0,0.0,0.0,0.0,0.0,0.0,0.0,0.0,0.0,0.0,1.7638,1.731,1.666,1.6599,1.5939,1.5,1.7045,1.6563,1.4593,1.7129,0.0,0.0,0.0,0.0,0.0,0.0,0.0,0.0,0.0,0.0,0.0,0.0,0.0,0.0,0.0,0.0,0.0,0.0,0.0,0.0,0.0,0.0,0.7075,0.7263,0.8209,0.919,0.9431,0.0,0.0,0.0,0.0,0.0,0.0,0.0,0.0,0.0,0.0,0.0,1.0889,0.5992,0.3502,0.5801,0.6417,0.6656,0.6705,0.6725,0.6783,0.6881,0.6663,0.6511,0.0,0.0,0.0,0.0,0.0,0.0,0.0,0.0,0.0,0.0,0.0,0.0,0.0,0.0,0.0,0.0,0.0,0.0,0.0,0.0,0.0,0.0,0.0,0.0,0.0,0.0,0.0,0.0,0.0,0.0,0.0,0.0,2.658,2.74,0.0,0.0,0.0,0.0,0.0,0.0,0.0,0.0,0.0,0.0,0.0,0.0,0.0,1.8578,1.8417,1.6401,1.5767,1.6494,1.6166,1.5486,1.455,1.5419,1.5212,1.422,1.4606,0.0,1.4467,1.5114,0.0,0.0,0.0,0.0,0.0,0.0,0.0,0.0,0.0,0.0,0.0,0.0,0.0,0.0,0.0,0.0,0.0,0.0,0.0,0.0,0.0,0.0,0.2152,0.6344,0.4312,0.187,0.329,0.3783,0.3928,0.3712,0.7193,1.0346,0.0,0.0,0.0,0.0,0.0,0.0,1.2392,0.5371,0.1334,0.3754,0.5537,0.6597,0.6712,0.682,0.6851,0.6736,0.6682,0.615,0.5117,0.5689,0.0,0.0,0.0,0.0,0.0,0.0,0.0,0.0,0.0,0.0,0.0,0.0,0.0,0.0,0.0,0.0,0.0,0.0,0.0,0.0,0.0,0.0,0.0,0.0,0.0,0.0,0.0,0.0,0.0,2.5862,2.6023,2.4914,2.5466,2.5394,0.0,0.0,0.0,0.0,0.0,0.0,0.0,0.0,0.0,1.9348,1.8863,1.8304,1.7593,1.607,1.5556,1.5913,1.5133,1.4483,1.3834,1.431,1.4145,1.3601,1.308,1.2915,1.3087,1.3901,1.4764,1.5429,0.0,0.0,0.0,0.0,1.4515,1.3652,1.2153,1.1288,1.0853,1.1407,0.0,0.0,0.0,0.0,0.0,0.0,0.0,1.2956,1.6444,1.1172,0.4631,0.3454,0.1519,0.018,0.0899,0.3367,0.4552,0.1659,0.4476,0.704,0.6124,0.8554,0.0,0.0,0.0,1.2348,1.1283,0.4662,0.0428,0.1451,0.4782,0.6851,0.6685,0.6744,0.6787,0.689,0.69,0.5478,0.2242,0.2565,0.1069,0.0,0.0,0.0,0.0,0.0,0.0,0.0,0.0,0.0,0.0,0.0,0.0,0.0,0.0,0.0,0.0,0.0,0.0,0.0,0.0,0.0,0.0,0.0,0.0,0.0,0.0,0.0,0.0,2.5915,2.5897,2.3665,2.4892,2.504,0.0,0.0,0.0,0.0,0.0,0.0,2.1491,2.1057,2.0197,1.9007,1.8877,1.8239,1.6992,1.6385,1.5906,1.5576,1.5097,1.4378,1.3534,1.3845,1.3756,1.3253,1.2416,1.2011,1.2088,1.2726,1.3007,1.3226,1.3448,1.3684,1.399,1.398,1.326,1.2066,1.0263,0.9354,0.892,0.8427,0.8982,0.9795,0.955,0.0,0.0,0.0,0.0,0.9912,1.2011,0.9517,0.5383,0.1074,-0.0,-0.0,-0.0,0.279,0.4694,0.234,0.2971,0.3471,0.1998,0.4464,0.0,1.2341,1.2763,1.1389,0.7911,0.3048,-0.0267,-0.088,0.2256,0.4499,0.4973,0.4978,0.51,0.5267,0.5275,0.3536,-0.0432,-0.1966,-0.365,-0.5774,0.0,0.0,0.0,0.0,0.0,0.0,0.0,0.0,0.0,0.0,0.0,0.0,0.0,0.0,0.0,0.0,0.0,0.0,0.0,0.0,0.0,0.0,0.0,0.0,0.0,0.0,0.0,0.0,0.0,2.6338,2.6364,0.0,0.0,0.0,0.0,2.1888,2.1174,2.0908,2.1229,2.0627,1.9855,1.8988,1.8964,1.8417,1.7309,1.7245,1.6605,1.532,1.6332,1.5528,1.324,1.4605,1.4581,1.3552,1.2631,1.2283,1.2181,1.0926,1.0898,1.1766,1.2512,1.3443,1.4282,1.3441,1.2916,1.2037,0.8198,0.7041,0.7241,0.7224,0.7524,0.691,0.2135,0.3765,0.0,0.0,1.1729,1.0341,0.2847,0.0608,0.0359,0.009,-0.0,-0.0,-0.0,0.018,0.1619,0.5975,0.3243,0.0271,0.0092,0.0,0.3605,1.283,1.3228,0.9506,0.1487,0.0188,-0.0847,-0.3128,-0.3209,-0.2176,0.0177,0.0353,0.0353,0.0353,0.0355,-0.0442,-0.2106,-0.7298,-0.9948,-0.9656,-0.9319,0.0,0.0,0.0,0.0,0.0,0.0,0.0,0.0,0.0,0.0,0.0,0.0,0.0,0.0,0.0,0.0,0.0,0.0,0.0,0.0,0.0,0.0,0.0,0.0,0.0,0.0,0.0,0.0,2.5572,2.6414,0.0,2.3855,2.3006,2.238,2.1901,2.1125,2.0563,2.0406,2.0397,2.0154,1.9593,1.9907,1.9835,1.9432,1.8734,1.7783,1.6581,1.6277,1.516,1.3494,1.3987,1.387,1.3292,1.1647,1.0963,1.0848,0.8956,0.8983,1.0174,0.9397,0.8438,0.7375,0.7058,0.6943,0.6579,0.5208,0.4768,0.46,0.3047,0.2602,0.2153,-0.1325,-0.1145,0.0353,0.1399,0.1998,0.1647,-0.149,-0.2178,-0.2086,-0.2235,-0.234,-0.1861,-0.0335,-0.1211,-0.225,-0.2069,0.1619,0.361,0.0543,-0.0,-0.0,-0.0,-0.0482,-0.1145,-0.2385,-0.2599,-0.2897,-0.3736,-0.6366,-0.7717,-0.6902,-0.6786,-0.6802,-0.6802,-0.6812,-0.7341,-0.84,-1.0343,-1.1629,-1.2187,-1.1444,-1.0549,0.0,0.0,0.0,0.0,0.0,0.0,0.0,0.0,0.0,0.0,0.0,0.0,0.0,0.0,0.0,0.0,0.0,0.0,0.0,0.0,0.0,0.0,0.0,0.0,0.0,2.7193,2.7641,2.5405,2.6841,2.6884,2.4002,2.3383,2.2798,2.1773,2.1173,2.0596,2.0156,2.041,2.0477,2.0134,2.0777,2.0956,2.0566,1.9839,1.8713,1.7183,1.6082,1.4815,1.35,1.3137,1.2961,1.2694,1.0806,0.998,0.979,0.7903,0.7753,0.8627,0.7489,0.5164,0.2225,0.0538,0.045,0.1169,0.1169,0.1169,0.0899,-0.0539,-0.1614,-0.2594,-0.4125,-0.4652,-0.4614,-0.4681,-0.4552,-0.4433,-0.4502,-0.4473,-0.4473,-0.4646,-0.475,-0.4328,-0.2742,-0.3019,-0.4324,-0.6675,-0.0717,0.3514,-0.0539,-0.2069,-0.3318,-0.5326,-0.6934,-0.7353,-0.5598,-0.6105,-0.6499,-0.62,-0.9296,-1.1247,-1.08,-1.023,-1.0018,-1.0579,-1.0022,-1.0392,-1.1916,-1.1381,-1.169,-1.2959,-1.2535,-1.2088,-1.142,0.0,0.0,0.0,0.0,0.0,0.0,0.0,0.0,0.0,0.0,0.0,0.0,0.0,0.0,0.0,0.0,0.0,0.0,0.0,0.0,0.0,0.0,0.0,2.7075,2.733,2.7227,2.6212,2.7654,2.7269,2.3516,2.4215,2.3956,2.143,2.124,2.1035,2.0566,2.0557,2.0644,2.0624,2.1494,2.1572,2.0692,2.0518,1.9242,1.7002,1.5878,1.464,1.324,1.2349,1.1988,1.1848,1.0191,0.9475,0.9329,0.7781,0.7101,0.7072,0.7084,0.4107,-0.0809,-0.542,-0.5695,-0.3694,-0.3694,-0.3694,-0.3694,-0.3331,-0.4828,-0.675,-0.675,-0.675,-0.6727,-0.6669,-0.6857,-0.7007,-0.6437,-0.6698,-0.7063,-0.6748,-0.6899,-0.7051,-0.7139,-0.529,-0.4403,-0.67,-0.3396,-0.0988,-0.3243,-0.6065,-0.643,-0.1709,-0.5007,0.0,-0.8082,-1.0276,-1.1452,-1.0413,-1.1824,-1.2368,-1.1368,-0.9492,-0.9067,-1.0641,-0.9123,-0.9398,-1.2248,-1.0661,-1.0484,-1.2151,-1.294,-1.3585,-1.4156,0.0,0.0,0.0,0.0,0.0,0.0,0.0,0.0,0.0,0.0,0.0,0.0,0.0,0.0,0.0,0.0,0.0,0.0,0.0,0.0,0.0,2.7377,2.8145,2.5859,2.6262,2.6378,2.5303,2.5616,2.5629,2.496,2.4241,2.352,2.2936,2.1849,2.0887,2.0137,2.0391,2.0988,2.1776,2.1568,2.1845,2.2666,2.0793,1.9534,1.8834,1.7425,1.6118,1.4982,1.4034,1.3559,1.338,1.0858,0.8914,0.7694,0.7296,0.7058,0.7078,0.7055,0.2064,-0.5328,-0.6646,-0.6716,-0.6171,-0.6171,-0.6171,-0.6083,-0.5991,-0.6433,-0.6998,-0.6834,-0.6834,-0.6798,-0.6791,-0.6771,-0.6744,-0.6853,-0.6788,-0.682,-0.6925,-0.6934,-0.6959,-0.7051,-0.6612,-0.6349,-0.7146,-0.6248,-0.501,-0.4053,-0.6025,-0.735,-0.6174,-0.7132,-0.8389,-0.9371,-1.007,-1.0502,-1.0542,-1.0614,-1.1759,-1.4235,-1.1914,-1.1545,-1.4572,-1.3268,-1.3083,-1.4692,-1.4246,-1.4566,-1.5831,-1.5901,-1.5723,0.0,0.0,0.0,0.0,0.0,0.0,0.0,0.0,0.0,0.0,0.0,0.0,0.0,0.0,0.0,0.0,0.0,0.0,0.0,0.0,0.0,0.0,2.8491,2.8768,2.6274,2.6491,2.6564,2.5922,2.6016,2.6041,2.5616,2.5425,2.5084,2.4497,2.3215,2.2139,2.1471,2.1245,2.1671,2.2724,2.2286,2.2552,2.3471,2.15,2.0199,1.9587,1.7713,1.6456,1.5606,1.3651,1.2823,1.2893,0.8928,0.7155,0.7058,0.7058,0.5972,0.4057,0.0,0.0,0.0,0.0,-0.7139,-0.7139,-0.7139,-0.7139,-0.7139,-0.7139,-0.7111,-0.7098,-0.6894,-0.6704,-0.6659,-0.674,-0.6273,-0.5936,-0.6692,-0.6871,-0.6802,-0.697,-0.6959,-0.7048,-0.7051,-0.7151,-0.7295,-0.7351,-0.7531,0.0,-0.5779,-0.6819,-0.7638,-0.7276,-0.8195,-0.8931,-0.9296,-1.072,-1.1641,-1.1763,-1.2167,-1.3165,-1.5232,-1.2974,0.0,0.0,0.0,-1.3455,-1.4469,-1.5141,0.0,0.0,0.0,-1.7106,-1.7417,-1.6901,0.0,0.0,-1.6025,-1.6544,0.0,0.0,0.0,0.0,0.0,0.0,0.0,0.0,0.0,0.0,0.0,0.0,0.0,0.0,0.0,0.0,2.9623,2.967,2.7871,2.7484,2.7328,2.7238,2.7672,2.7484,2.6001,2.7139,2.7404,2.6073,2.4962,2.4121,2.3748,2.282,0.0,0.0,0.0,2.3458,2.3612,2.233,2.1003,1.9894,1.7586,1.6366,1.585,1.2484,1.1179,1.1296,0.5909,0.4668,0.63,0.63,0.3486,-0.1079,-0.2611,-0.3512,-0.4226,-0.5994,-0.67,-0.67,-0.67,0.0,0.0,-0.67,-0.6745,-0.6697,-0.6447,-0.6182,-0.6047,-0.6455,-0.5671,-0.5039,-0.6373,-0.692,-0.7139,-0.6959,-0.7051,-0.7143,-0.7143,-0.7262,-0.7393,-0.7469,-0.7672,-0.7771,-0.7804,-0.7882,-0.7733,-0.6813,-0.8545,-0.9763,-0.9147,-1.1862,-1.3814,-1.3632,-1.4665,0.0,-1.5291,-1.3326,-1.2837,-1.463,-1.3019,-1.2504,-1.3323,-1.4972,-1.6102,-1.6694,-1.7144,-1.8112,-1.9724,-1.977,-1.9466,-1.8863,-1.7411,-1.7366,0.0,0.0,0.0,0.0,0.0,0.0,0.0,0.0,0.0,0.0,0.0,0.0,0.0,0.0,0.0,2.8386,2.9693,3.0576,2.9514,2.853,2.7622,2.6735,2.7102,2.7475,2.7602,2.7179,2.699,2.7172,2.5846,2.4979,2.4876,2.4693,2.4847,2.5339,2.4515,2.4223,2.4553,2.2224,2.1379,2.1938,1.9236,0.0,1.7771,1.421,1.176,0.9994,0.5721,0.2994,0.1415,0.1415,-0.174,-0.6065,-0.2159,-0.3044,-0.626,-0.4848,-0.4316,-0.4316,-0.4316,-0.4316,-0.4316,-0.4316,-0.4232,-0.4238,-0.4228,-0.4178,0.0,-0.5903,-0.6138,-0.6097,-0.6797,-0.7236,-0.7507,-0.7323,-0.7323,-0.7415,-0.7507,-0.746,-0.7451,-0.7684,-0.776,-0.7799,-0.7986,-0.7963,-0.8247,-0.9172,-0.9649,-1.0706,-1.2601,-1.3501,-1.4165,-1.479,-1.3698,-1.4005,-1.645,-1.351,-1.28,-1.5777,-1.608,-1.6221,-1.648,-1.8417,-1.9621,-1.9778,-1.9866,-2.0089,-2.0439,-2.0726,-2.0847,-2.069,-1.9802,-1.96,0.0,0.0,0.0,0.0,0.0,0.0,0.0,0.0,0.0,0.0,0.0,2.9671,0.0,0.0,3.0692,3.042,3.1084,3.1326,3.0335,2.9485,2.8554,2.7452,2.7554,2.7799,2.8038,2.8171,2.8556,2.9257,2.7651,2.6819,2.7357,2.6422,2.6219,2.6936,2.5912,2.5738,2.641,2.4082,2.3028,2.3271,2.0196,1.8591,1.8084,1.395,1.1303,0.9768,0.7045,0.3627,-0.0,-0.0,-0.3166,-0.7712,-0.5052,-0.38,-0.3576,-0.3597,-0.288,-0.1798,-0.1798,-0.1798,-0.1798,-0.1798,-0.1798,-0.1798,-0.1798,-0.1798,-0.1979,-0.2882,-0.3185,-0.3482,-0.4952,-0.6444,-0.7492,-0.7423,-0.7396,-0.7413,-0.7481,-0.7541,-0.7557,-0.7763,-0.7838,-0.7939,-0.7939,-0.8038,-0.8432,-0.9801,-1.0524,-1.1636,-1.3636,-1.4296,-1.4807,-1.5039,-1.4186,-1.4253,-1.5694,-1.4071,-1.3787,-1.5873,-1.6833,-1.7563,-1.8149,-1.9756,-2.0566,-2.0566,-2.0566,-2.0674,-2.0898,-2.1123,-2.1348,-2.1562,-2.0634,-2.0313,0.0,0.0,0.0,0.0,0.0,0.0,0.0,0.0,2.9667,2.9826,2.9505,2.9522,3.0653,3.0677,3.0895,3.2185,3.2057,3.1565,3.057,3.004,2.9493,2.8582,2.8423,2.842,2.8476,2.927,3.0072,3.0868,2.9384,2.875,2.9524,2.8004,2.7466,2.8094,2.7284,2.7089,2.7815,2.5828,2.4682,2.4317,2.1089,1.9134,1.8123,1.3924,1.1601,1.0719,0.8601,0.482,-0.0,-0.0,-0.3136,-0.8049,-0.7969,-0.5324,-0.1558,-0.2533,-0.1979,-0.0809,-0.1259,-0.1077,-0.0715,-0.0616,-0.0354,-0.0,-0.0,-0.0,-0.0,-0.0,-0.0,-0.0569,-0.3057,-0.5228,-0.6879,-0.7321,-0.7486,-0.7508,-0.7444,-0.7523,-0.7685,-0.7784,-0.7879,-0.7939,-0.8038,-0.8244,-0.8829,-1.0156,-1.1201,-1.2437,-1.3951,-1.4868,-1.5275,-1.4977,-1.4957,-1.4905,-1.4715,-1.4736,-1.5035,-1.5875,-1.6984,-1.8019,-1.8966,-2.0001,-2.0566,-2.0566,-2.0566,-2.0742,-2.1103,-2.1103,-2.1199,-2.1293,-2.0486,-2.0304,3.2095,3.1492,3.1201,3.178,3.0456,2.9561,0.0,0.0,3.0821,3.1997,3.2518,3.2625,3.1979,3.2218,3.2137,3.1026,3.0838,3.0573,3.0005,2.9842,2.9714,2.9636,2.9649,2.9608,2.9642,2.9711,2.9804,2.9932,2.9767,2.9651,2.9779,2.9537,2.9015,2.8118,2.7993,2.7506,2.6662,2.5401,2.481,2.4692,2.2224,2.0468,1.9217,1.6477,1.4529,1.3297,0.9409,0.482,-0.0,-0.0,-0.3136,-0.8049,-0.7969,-0.7496,-0.6195,-0.1933,-0.1619,-0.3514,-0.5607,-0.4935,-0.3155,-0.284,-0.151,-0.0,-0.0,-0.0,-0.0,-0.0,-0.0,-0.0575,-0.3251,-0.4166,-0.4967,-0.7214,-0.7741,-0.775,-0.7767,-0.7684,-0.7684,-0.7786,-0.7813,-0.7836,-0.7939,-0.8969,-1.0207,-1.1454,-1.1835,-1.2705,-1.4905,-1.5285,-1.5177,-1.4578,-1.4854,-1.5082,-1.5405,-1.5484,-1.5822,-1.6539,-1.7968,-1.8895,-1.8957,-2.0001,-2.0566,-2.0566,-2.0566,-2.0586,-2.0635,-2.0635,-2.0175,-1.9341,-1.9525,-1.9897,3.3084,3.2349,3.1618,0.0,3.0812,3.0242,3.168,3.1264,3.0825,3.1596,3.2194,3.2427,3.1806,3.2581,3.3106,0.0,3.2045,3.172,3.0885,3.0194,2.9792,2.9792,3.0637,3.0829,2.9882,3.0303,3.0598,3.0598,3.0072,3.0047,3.0585,3.0072,2.9549,2.9118,2.9118,2.8876,2.8382,2.6634,2.5791,2.5781,2.2026,1.9822,1.8856,1.5882,1.3774,1.2248,1.0095,0.7262,0.4229,0.2738,-0.0194,-0.3627,-0.3551,-0.5284,-0.7556,-0.5077,-0.3927,-0.3927,-0.6278,-0.6441,-0.5571,-0.5464,-0.4768,-0.3374,-0.0801,-0.0,-0.0,-0.0,-0.225,-0.4901,-0.5997,-0.6216,-0.6385,-0.7308,-0.7524,-0.7524,-0.7594,-0.7493,-0.7516,-0.7616,-0.7704,-0.8041,-0.8866,-0.9383,-1.0465,-1.2759,-1.3039,-1.3607,-1.5216,-1.5279,-1.4947,-1.4315,-1.4718,-1.5119,-1.5249,-1.5643,-1.6377,-1.7562,-1.8248,-1.9003,-1.9913,-2.0082,-2.0185,-2.0185,-1.9941,-1.9824,-1.9824,-1.9278,-1.8859,-1.8536,-1.7569,-1.7261,3.3398,0.0,0.0,3.1481,3.0882,3.054,3.101,3.0814,3.0665,3.0975,3.1702,3.215,3.1675,3.3104,3.3991,3.3041,3.3036,3.279,3.1571,3.0698,3.0231,3.0231,3.1526,3.1797,3.0352,3.0958,3.1281,3.0855,3.0188,3.0072,3.0752,3.0175,2.9792,2.9792,2.9792,2.9674,2.9369,2.7459,2.6097,2.534,2.1695,1.9246,1.7986,1.5352,1.3299,1.1757,1.1187,1.0057,0.8515,0.5725,0.3435,0.1457,0.0093,-0.2636,-0.5784,-0.61,-0.5526,-0.4793,-0.6505,-0.7139,-0.7132,-0.7075,-0.6956,-0.6178,-0.2822,-0.098,-0.0,-0.0,-0.3706,-0.7746,-0.7852,-0.7756,-0.7604,-0.7486,-0.7465,-0.7423,-0.7417,-0.7386,-0.7528,-0.7908,-0.8069,-0.8549,-0.9966,-1.0349,-1.1168,-1.3292,-1.3944,-1.4472,-1.5203,-1.4989,-1.4615,-1.443,-1.4909,-1.537,-1.5568,-1.6349,-1.731,-1.8339,-1.8586,-1.9182,-2.0205,-1.9895,-1.973,-1.9746,-1.9458,-1.9301,-1.9287,-1.8387,-1.7845,-1.7646,-1.6039,-1.5264,0.0,0.0,3.1409,3.1055,3.0348,2.9831,2.9831,3.0202,3.0586,3.0624,3.1901,3.2896,3.2297,3.3926,3.4787,3.2598,3.3104,3.3255,3.1599,3.1373,3.1336,3.1336,3.2179,3.2439,3.1404,3.1811,3.1539,2.9932,2.9804,2.9792,2.9804,2.9804,2.9792,2.9792,2.9792,2.9303,2.8163,2.7076,2.519,2.264,2.1451,1.9411,1.6781,1.5846,1.445,1.2936,1.3079,1.2711,1.1691,0.8329,0.6972,0.6382,0.1496,-0.0372,-0.0539,-0.3151,-0.5292,-0.6959,-0.7051,-0.7139,-0.7109,-0.6915,-0.699,-0.7048,-0.6579,-0.3436,-0.0,-0.0,-0.3425,-0.721,-0.7527,-0.7543,-0.7399,-0.7571,-0.76,-0.7547,-0.7437,-0.7419,-0.7738,-0.8837,-0.9089,-0.9531,-1.0811,-1.2119,-1.2893,-1.2973,-1.4094,-1.4988,-1.4981,-1.4523,-1.4396,-1.4965,-1.5457,-1.6039,-1.685,-1.8154,-1.8825,-1.8598,-1.9375,-1.9723,-1.9336,-1.9309,-1.9309,-1.9307,-1.9318,-1.9308,-1.9287,-1.8387,-1.7318,-1.6253,-1.5606,-1.4669,0.0,0.0,3.0699,3.0296,2.9958,2.9907,3.0213,3.0457,3.0722,3.1083,3.1307,3.1358,3.0946,3.2215,3.2959,3.1707,3.3424,3.4321,3.2197,3.2911,3.3226,3.2037,3.2416,3.2303,3.0893,3.2489,3.2724,3.0534,3.0997,3.058,2.8754,2.8674,2.8686,2.866,2.7989,2.774,2.81,2.553,2.3637,2.2418,1.9375,1.7064,1.5636,1.5048,1.4488,1.3974,1.4005,1.3328,1.2126,1.023,0.8532,0.6972,0.5265,0.2714,-0.0089,-0.0983,-0.3758,-0.7108,-0.7098,-0.7091,-0.7091,-0.7032,-0.7091,-0.7057,-0.7028,-0.594,-0.4029,-0.0909,-0.119,-0.3147,-0.6447,-0.73,-0.7342,-0.7278,-0.7295,-0.7212,-0.7081,-0.7768,-0.852,-0.8932,-0.9657,-1.0631,-1.1993,-1.252,-1.2976,-1.3659,-1.4229,-1.495,-1.5631,-1.5165,-1.5119,-1.6031,-1.6405,-1.6709,-1.6975,-1.7849,-1.8442,-1.8586,-1.8856,-1.9121,-1.9298,-1.9014,-1.8864,-1.8857,-1.8586,-1.8438,-1.8437,-1.6839,-1.6015,-1.5799,-1.4355,-1.3643,0.0,3.107,3.0316,2.9907,2.9932,3.0188,3.0482,3.1022,3.1551,3.191,3.1924,3.1723,3.1215,3.2368,3.2778,3.0932,3.2843,3.4031,3.2303,3.2886,3.3229,3.2457,3.2631,3.2107,3.04,3.2143,3.2362,2.9768,3.0448,3.0078,2.7831,2.7575,2.7522,2.7525,2.685,2.6608,2.6746,2.4111,2.1977,2.0234,1.7069,1.5203,1.4714,1.4514,1.4489,1.4352,1.4416,1.3639,1.219,1.1047,0.9501,0.7669,0.7252,0.5297,0.2525,0.1712,-0.0541,-0.3435,-0.4304,-0.4559,-0.4656,-0.527,-0.5413,-0.5634,-0.6786,-0.7079,-0.6121,-0.1367,-0.0,-0.0912,-0.484,-0.6548,-0.7121,-0.7092,-0.7048,-0.6964,-0.6854,-0.7963,-0.9042,-0.9401,-1.0424,-1.1742,-1.3043,-1.3224,-1.3328,-1.399,-1.4608,-1.5204,-1.5896,-1.5475,-1.5601,-1.6925,-1.716,-1.7296,-1.7332,-1.8071,-1.8423,-1.8366,-1.8492,-1.8664,-1.8844,-1.8566,-1.8418,-1.8418,-1.7781,-1.7501,-1.7501,-1.5587,-1.4784,-1.4854,-1.3436,-1.3057,3.0724,3.0431,3.0303,2.9919,3.02,3.0624,3.0713,3.1884,3.3066,3.3136,3.3431,3.355,0.0,0.0,3.4043,3.0378,3.1612,3.2817,3.1952,3.1707,3.1882,0.0,0.0,0.0,0.0,0.0,3.0314,2.7778,2.8425,2.8385,2.72,2.6657,2.6389,2.6389,2.64,2.5568,2.4105,2.2818,2.0183,1.6212,1.4831,1.4115,1.4115,1.4382,1.4291,1.401,1.4291,1.36,1.2129,1.1018,0.9878,0.8807,0.7606,0.7175,0.7116,0.4977,0.4053,0.3489,0.1166,0.0356,0.0178,-0.1427,-0.1991,-0.2671,-0.5765,-0.6716,-0.5768,-0.1295,-0.0182,-0.0894,-0.3034,-0.5195,-0.6863,-0.6837,-0.6888,-0.6902,-0.6715,-0.7856,-0.9262,-1.0249,-1.1466,-1.2759,-1.3893,-1.4088,-1.4088,-1.4088,-1.4962,-1.5666,-1.573,-1.5482,-1.5857,-1.7571,-1.7713,-1.7772,-1.7988,-1.873,-1.8854,-1.8027,-1.8378,-1.8388,-1.8018,-1.8008,-1.8008,-1.792,-1.7042,-1.6549,-1.6498,-1.4577,-1.3658,-1.368,-1.303,-1.2876,3.1087,3.0573,3.0035,3.0316,3.047,3.0773,3.1585,3.2093,3.2598,3.3174,3.2296,3.1318,0.0,0.0,0.0,3.0773,3.3996,0.0,3.4174,3.5326,0.0,3.491,0.0,3.1201,3.0791,2.9097,2.7494,2.591,2.7993,2.8749,2.7307,2.5975,2.521,2.521,2.4382,2.3669,2.2958,1.9587,1.6869,1.4943,1.4596,1.4415,1.4409,1.4504,1.3985,1.3077,1.293,1.2135,1.0937,0.9781,0.9161,0.8803,0.7584,0.7094,0.7155,0.6898,0.685,0.6768,0.5969,0.5742,0.5616,0.5216,0.3835,0.1826,-0.0963,-0.1814,-0.1601,-0.0371,-0.2552,-0.5029,-0.3931,-0.5343,-0.6967,-0.6817,-0.6826,-0.682,-0.6585,-0.8373,-1.0062,-1.0319,-1.2114,-1.3711,-1.4082,-1.4088,-1.4088,-1.4088,-1.4302,-1.5004,-1.6293,-1.6817,-1.7407,-1.8272,-1.8115,-1.7967,-1.8027,-1.822,-1.8209,-1.8037,-1.8105,-1.8105,-1.8008,-1.8008,-1.7658,-1.6943,-1.6468,-1.6023,-1.5581,-1.4104,-1.3506,-1.3673,-1.2057,-1.1501,3.0701,3.0291,2.9905,3.0486,3.0753,3.0991,3.1255,3.17,3.2127,3.2267,3.1103,0.0,3.0038,3.1249,0.0,0.0,0.0,0.0,3.4287,3.5226,3.5823,0.0,3.3267,0.0,3.0031,2.8679,2.7278,2.5706,2.6932,2.722,2.5849,2.4716,2.4049,2.4049,2.3464,2.2428,2.1001,1.739,1.5247,1.4716,1.3566,1.3278,1.3814,1.3264,1.2575,1.1899,1.168,1.0994,0.9786,0.9161,0.8627,0.8017,0.7404,0.719,0.7282,0.753,0.7688,0.7819,0.7832,0.7808,0.7708,0.763,0.6719,0.5382,0.3917,0.1845,-0.048,-0.2545,-0.5005,-0.684,-0.5476,-0.6005,-0.6847,-0.6746,-0.7021,-0.7362,-0.7303,-0.9211,-1.1256,-1.203,-1.3231,-1.4179,-1.4277,-1.4179,-1.4088,-1.4088,-1.4473,-1.505,-1.5727,-1.6141,-1.6599,-1.7291,-1.701,-1.6943,-1.7377,-1.7387,-1.7561,-1.7998,-1.8008,-1.7833,-1.7387,-1.7387,-1.6943,-1.5984,-1.536,-1.4855,-1.4543,-1.2948,-1.2267,-1.2424,-1.0863,-1.0355,2.9945,2.9792,2.9927,3.0562,3.1085,3.124,3.0468,3.1073,3.1562,3.0811,0.0,2.9269,2.9486,3.0804,3.1292,2.9321,0.0,3.3947,3.3619,3.411,3.4457,3.4594,3.4018,3.2475,2.9361,2.9009,2.8294,2.6415,2.5767,2.5078,2.4128,2.3457,2.3135,2.3135,2.2717,2.1475,1.9092,1.5937,1.4495,1.4753,1.2322,1.1764,1.2746,1.1657,1.0938,1.0675,1.0646,0.9981,0.8924,0.8752,0.8136,0.734,0.7146,0.7234,0.7387,0.7519,0.7584,0.7638,0.7916,0.7936,0.7824,0.7712,0.7763,0.7781,0.7916,0.4313,-0.097,-0.5764,-0.7266,-0.7373,-0.7392,-0.7235,-0.7104,-0.7145,-0.7667,-0.8255,-0.8379,-1.0233,-1.2409,-1.4146,-1.4277,-1.4179,-1.4375,-1.4271,-1.4088,-1.4088,-1.4853,-1.5148,-1.4473,-1.4623,-1.5056,-1.5691,-1.5392,-1.5549,-1.6336,-1.6401,-1.676,-1.7571,-1.7648,-1.729,-1.6424,-1.6415,-1.5961,-1.5043,-1.3964,-1.3414,-1.331,-1.1443,-1.0528,-1.0609,-0.9553,-0.9299,2.9804,2.9792,3.0043,3.0991,3.1363,3.1341,3.1035,3.0899,0.0,0.0,2.8852,2.818,2.8573,2.9619,3.0584,3.1064,0.0,0.0,0.0,3.7227,3.8115,0.0,3.5085,3.399,3.28,2.995,2.758,2.6362,2.5472,2.507,2.5295,2.3877,2.3135,2.3135,2.0916,1.9597,1.9084,1.5198,1.3338,1.3327,1.2085,1.1522,1.177,1.1551,1.0867,0.9987,0.9638,0.937,0.902,0.8046,0.8133,0.8645,0.7539,0.7234,0.7373,0.74,0.7492,0.7624,0.779,0.7916,0.7994,0.7974,0.7997,0.7935,0.7952,0.4407,-0.0667,-0.5741,-0.8092,-0.9076,-0.9125,-0.947,-0.9852,-0.9475,-0.946,-0.9538,-0.9483,-1.0813,-1.248,-1.3924,-1.4088,-1.4088,-1.4179,-1.4088,-1.4088,-1.4088,-1.399,-1.3802,-1.351,-1.4902,-1.5753,-1.5348,-1.5276,-1.5284,-1.5454,-1.5452,-1.5479,-1.565,-1.5718,-1.5633,-1.547,-1.5462,-1.4952,-1.3973,-1.2771,-1.1846,-1.1335,-0.9862,-0.9312,-0.9513,-0.8636,-0.8332,2.9792,3.0043,3.039,3.121,3.1601,3.1614,3.0713,0.0,0.0,0.0,2.7234,2.6566,2.703,0.0,0.0,0.0,0.0,0.0,0.0,0.0,0.0,3.842,3.7205,3.6021,3.4878,3.251,3.0182,2.8184,2.7617,2.6505,2.4374,2.3495,2.2775,2.2217,2.0321,1.9043,1.8372,1.4463,1.2819,1.3488,1.0904,1.0022,1.0683,1.0743,1.0381,0.9806,1.0373,1.0491,1.0295,0.9029,0.8846,0.9196,0.7854,0.7424,0.7499,0.7573,0.7648,0.7733,0.7892,0.7994,0.7736,0.5948,0.6536,0.7467,0.4706,0.2246,-0.0852,-0.6844,-0.8946,-0.9589,-0.9989,-1.0277,-1.0473,-1.0178,-1.0589,-1.114,-1.166,-1.2487,-1.3387,-1.4146,-1.4186,-1.4179,-1.4277,-1.4179,-1.3893,-1.314,-1.2946,-1.2468,-1.147,-1.2235,-1.3044,-1.3601,-1.366,-1.3911,-1.4355,-1.4441,-1.4656,-1.518,-1.518,-1.4996,-1.4411,-1.4411,-1.3727,-1.2211,-1.1556,-1.0834,-1.0024,-0.8847,-0.8399,-0.8621,-0.7659,-0.7315,2.9856,3.0165,3.0753,3.1286,3.18,3.1775,3.0184,2.9352,0.0,0.0,2.5767,2.5164,2.5562,0.0,0.0,0.0,0.0,0.0,0.0,0.0,3.8954,0.0,3.9373,0.0,3.6732,3.5251,3.3357,3.0807,2.987,2.7685,2.3817,2.3271,2.2677,2.1756,2.0215,1.9088,1.8085,1.3999,1.2431,1.3411,0.9751,0.8553,0.9585,0.9826,0.9917,0.987,1.1206,1.1833,1.1799,1.0227,0.9673,0.9762,0.8164,0.7621,0.7662,0.7644,0.7694,0.7748,0.7885,0.7232,0.5812,0.3247,0.4204,0.5579,0.138,-0.0772,-0.2814,-0.8188,-0.994,-1.0267,-1.085,-1.107,-1.1166,-1.1077,-1.1808,-1.2668,-1.3427,-1.3857,-1.4179,-1.4375,-1.4271,-1.4088,-1.399,-1.3802,-1.3231,-1.1922,-1.1646,-1.1139,-0.983,-0.9633,-1.0118,-1.1515,-1.1687,-1.197,-1.2721,-1.2728,-1.3065,-1.3911,-1.3918,-1.3572,-1.2802,-1.2728,-1.205,-1.0495,-1.0244,-0.976,-0.9014,-0.8028,-0.7631,-0.7683,-0.6905,-0.6741,3.005,3.0206,3.0758,3.126,3.18,3.1775,3.0015,0.0,0.0,2.5744,2.4958,2.4659,2.4641,0.0,0.0,0.0,0.0,3.1559,0.0,0.0,0.0,3.9044,0.0,0.0,3.8755,3.7247,3.5597,3.3542,3.0097,2.73,2.5438,2.3934,2.3047,2.295,2.0674,1.941,1.9336,1.4382,1.2007,1.2036,0.9335,0.8041,0.8244,0.9414,0.9989,1.007,1.1336,1.2358,1.3077,1.0726,1.0346,1.1075,0.8577,0.7594,0.7707,0.7488,0.7538,0.7579,0.7593,0.4654,0.0699,0.04,0.0692,0.0972,0.0477,-0.3916,-0.8762,-0.9328,-1.078,-1.2072,-1.2129,-1.2954,-1.3685,-1.34,-1.3355,-1.349,-1.3613,-1.386,-1.4088,-1.4088,-1.4088,-1.3704,-1.2572,-1.2295,-1.1832,-1.0552,-1.01,-0.9888,-0.9715,-0.9468,-0.9386,-0.955,-0.9546,-0.9611,-0.969,-0.969,-0.9769,-0.9849,-0.9849,-0.9775,-0.9696,-0.969,-0.9611,-0.9453,-0.8523,-0.809,-0.8117,-0.7147,-0.6728,-0.6779,-0.6841,-0.6845,3.0468,3.067,3.121,3.175,3.1876,3.1445,3.0406,0.0,2.7957,2.6406,2.5604,2.5093,2.4825,0.0,0.0,0.0,0.0,0.0,3.1074,0.0,0.0,3.9251,4.0486,0.0,0.0,3.8984,3.6916,3.4524,3.1937,2.9486,2.7266,2.4167,2.2162,2.1635,1.9543,1.8123,1.7534,1.3779,1.193,1.1878,0.9221,0.8038,0.8038,0.941,0.9998,1.0096,1.2231,1.3335,1.353,1.1809,1.1327,1.151,0.8848,0.7815,0.7875,0.7815,0.6732,0.5176,0.3575,0.1692,-0.0699,-0.4828,-0.6016,-0.5736,-0.5942,-0.7646,-0.9789,-1.1015,-1.1833,-1.2466,-1.3149,-1.3743,-1.4082,-1.3899,-1.3893,-1.3893,-1.3893,-1.399,-1.3893,-1.314,-1.2965,-1.2525,-1.1304,-1.0969,-1.0461,-0.9082,-0.8827,-0.8502,-0.7569,-0.7467,-0.7467,-0.7467,-0.8588,-0.9327,-0.9327,-0.9327,-0.9327,-0.9327,-0.9327,-0.9327,-0.9327,-0.9327,-0.9008,-0.8438,-0.8064,-0.7672,-0.7136,-0.676,-0.6688,-0.6864,-0.684,-0.6937,3.1136,3.1267,3.1703,3.211,3.1825,3.1229,0.0,0.0,2.7957,2.6683,2.6011,2.5421,2.4705,0.0,0.0,0.0,0.0,2.692,2.9289,3.1932,3.4761,0.0,0.0,3.9643,4.0425,3.9326,3.738,3.4662,3.2698,3.0441,2.7733,2.3706,2.122,2.0813,1.8785,1.7225,1.6099,1.3283,1.175,1.1263,0.9118,0.8038,0.8038,0.941,0.9998,1.0096,1.2328,1.3488,1.3776,1.2037,1.1556,1.1653,0.9027,0.7962,0.7979,0.7985,0.4826,0.0201,-0.1706,-0.2704,-0.3884,-0.8724,-1.0211,-1.0334,-1.0693,-1.0643,-1.0629,-1.2065,-1.2655,-1.3064,-1.3913,-1.4088,-1.4088,-1.4088,-1.4088,-1.4088,-1.4088,-1.4088,-1.3704,-1.2481,-1.2182,-1.1618,-1.0003,-0.9692,-0.9101,-0.7708,-0.7601,-0.7226,-0.6237,-0.618,-0.6338,-0.6338,-0.7545,-0.844,-0.844,-0.844,-0.844,-0.844,-0.844,-0.844,-0.844,-0.8444,-0.8117,-0.7382,-0.7463,-0.7219,-0.6596,-0.6688,-0.6779,-0.6959,-0.7041,-0.7075,3.2098,3.1811,3.2032,3.2174,3.1647,3.1001,0.0,0.0,0.0,2.6135,2.5693,2.5318,2.4164,0.0,0.0,0.0,0.0,0.0,2.9356,3.1404,0.0,0.0,0.0,3.7174,3.7702,3.7784,3.6664,3.401,3.1664,2.9199,2.6688,2.2456,2.0448,2.1307,1.8983,1.708,1.5691,1.3171,1.1268,0.9998,0.8627,0.8038,0.8038,0.941,0.9998,1.0096,1.1361,1.2624,1.368,1.1063,1.0779,1.1658,0.9046,0.7979,0.7995,0.8016,0.1308,-0.7922,-0.7922,-0.8999,-1.0426,-1.0219,-1.0655,-1.1425,-1.2276,-1.2394,-1.2301,-1.2301,-1.3149,-1.4088,-1.4088,-1.4088,-1.4088,-1.4088,-1.4088,-1.4088,-1.4088,-1.4088,-1.3704,-1.2385,-1.2123,-1.1295,-0.8668,-0.8198,-0.779,-0.65,-0.6339,-0.6302,-0.6263,-0.6261,-0.6338,-0.6338,-0.6338,-0.6338,-0.6338,-0.6338,-0.6338,-0.6338,-0.6419,-0.65,-0.6338,-0.65,-0.65,-0.6338,-0.6338,-0.6465,-0.6688,-0.6776,-0.6868,-0.7143,-0.7295,-0.7366,3.1874,3.1902,3.2031,3.1847,3.107,3.0099,2.9748,0.0,0.0,0.0,2.6109,2.5993,0.0,0.0,0.0,0.0,0.0,0.0,0.0,0.0,0.0,3.3772,3.6159,3.7418,3.6831,3.5343,3.3434,3.1035,2.9511,2.7104,2.3598,2.1293,1.9636,1.8525,1.6293,1.4551,1.3422,1.1521,1.0386,0.9998,0.8627,0.8038,0.8041,0.8432,0.8627,0.8726,0.9998,1.0872,1.1161,1.0386,1.0408,1.0833,0.8763,0.7992,0.7598,0.3922,-0.1908,-0.8106,-0.9056,-0.9774,-1.0504,-1.1672,-1.2155,-1.2394,-1.3535,-1.3144,-1.2466,-1.3319,-1.3835,-1.4088,-1.4088,-1.4088,-1.4088,-1.4088,-1.4088,-1.4088,-1.4088,-1.3425,-1.2481,-1.1281,-1.0223,-0.9077,-0.7422,-0.7061,-0.674,-0.618,-0.6177,-0.6275,-0.6076,-0.618,-0.6338,-0.6338,-0.6338,-0.6338,-0.6338,-0.6338,-0.6338,-0.6338,-0.6338,-0.6441,-0.6583,-0.6474,-0.5654,-0.4134,-0.414,-0.4195,-0.4216,-0.4489,-0.4921,-0.5515,-0.6834,-0.7316,0.0,3.1849,3.1819,3.1613,3.052,0.0,0.0,0.0,0.0,0.0,0.0,0.0,0.0,0.0,0.0,0.0,0.0,0.0,0.0,0.0,0.0,3.2072,0.0,0.0,3.3009,3.2061,3.0226,2.6876,2.6062,2.4146,2.0736,1.9642,1.8224,1.6184,1.469,1.3084,1.1506,1.0461,0.9998,0.9998,0.8627,0.8265,0.8814,0.8324,0.8157,0.8201,0.9045,0.961,0.0,0.945,0.9739,1.025,0.6423,0.501,0.4589,0.0198,-0.4453,-0.8796,-0.9719,-1.0508,-1.1387,-1.2507,-1.2975,-1.3299,-1.4069,-1.3668,-1.3149,-1.3919,-1.373,-1.3521,-1.3845,-1.3361,-1.2863,-1.3155,-1.3018,-1.2747,-1.2747,-1.2202,-1.1305,-1.0081,-0.9104,-0.8031,-0.6865,-0.65,-0.6261,-0.618,-0.6261,-0.6261,-0.6099,-0.6257,-0.6338,-0.6338,-0.6281,-0.6295,-0.6295,-0.5572,-0.5096,-0.5096,-0.5106,-0.5165,-0.5356,-0.6191,-0.5846,-0.4324,-0.27,-0.1918,-0.1977,-0.2133,-0.3485,-0.5847,-0.6844,-0.7275,0.0,0.0,0.0,0.0,0.0,0.0,0.0,0.0,0.0,0.0,0.0,0.0,0.0,0.0,0.0,0.0,0.0,0.0,0.0,2.8891,0.0,0.0,3.1639,3.11,2.7209,2.8176,2.7009,2.202,2.1728,2.057,1.7918,1.7764,1.6672,1.4361,1.4087,1.2795,1.019,1.0027,1.01,1.0306,0.8935,0.9118,1.0474,0.9075,0.8546,0.8664,0.8419,0.8954,0.9932,0.8407,0.8546,0.9197,0.2591,-0.0099,-0.0487,-0.3117,-0.6452,-0.9779,-0.9948,-1.1293,-1.2942,-1.2762,-1.3299,-1.4048,-1.399,-1.399,-1.399,-1.4088,-1.3145,-1.2371,-1.3285,-1.2035,-1.0783,-1.1577,-1.1164,-1.0626,-1.0626,-1.0575,-1.0101,-0.8941,-0.8508,-0.7935,-0.6853,-0.65,-0.6338,-0.65,-0.6359,-0.6285,-0.6264,-0.6338,-0.6338,-0.6264,-0.6152,-0.6107,-0.6267,-0.4499,-0.3228,-0.2912,-0.2901,-0.2856,-0.2856,-0.525,-0.6341,-0.5874,-0.199,-0.0,-0.0,-0.0,-0.2476,-0.7054,-0.696,-0.7078,2.9222,0.0,3.0944,3.0676,2.9856,2.8991,0.0,0.0,0.0,0.0,0.0,0.0,0.0,0.0,0.0,0.0,0.0,0.0,2.7952,0.0,0.0,3.2733,3.2085,3.0549,2.78,2.573,2.288,1.8832,1.8836,1.7764,1.5007,1.6908,1.6743,1.4082,1.4835,1.404,1.1512,1.0471,1.1119,1.3394,1.1974,1.2184,1.3758,1.1121,0.9892,0.992,0.8654,0.8199,0.8299,0.5917,0.4065,0.2643,0.088,-0.2229,-0.5942,-0.7648,-0.8957,-1.0036,-1.1478,-1.2288,-1.2745,-1.3237,-1.3404,-1.3257,-1.2614,-1.2559,-1.2946,-1.3802,-1.2573,-1.1221,-1.2308,-1.1629,-1.0656,-1.0888,-1.0732,-1.059,-1.059,-0.9957,-0.9243,-0.8909,-0.799,-0.7132,-0.6767,-0.6578,-0.6419,-0.6342,-0.6371,-0.6431,-0.6288,-0.6419,-0.6426,-0.6285,-0.4802,-0.4501,-0.6185,-0.5861,-0.4182,-0.0943,-0.0722,-0.0731,-0.0731,-0.1362,-0.1586,-0.1438,-0.0477,-0.0,-0.0,-0.0,-0.0573,-0.1871,-0.3777,-0.5647,2.8633,2.9574,3.0345,3.0136,2.9714,2.9232,0.0,0.0,0.0,0.0,0.0,0.0,0.0,0.0,0.0,0.0,2.7091,0.0,0.0,0.0,3.18,3.247,3.1228,2.9178,2.608,2.3604,2.0412,1.6159,1.661,1.611,1.404,1.5879,1.6383,1.4783,1.4816,1.3915,1.1895,1.1249,1.198,1.4122,1.2795,1.3017,1.4407,1.1601,1.0315,1.0284,0.8813,0.7431,0.6088,0.3381,0.1079,-0.107,-0.3459,-0.5482,-0.7424,-0.9405,-0.9999,-1.0076,-1.1566,-1.2114,-1.2242,-1.2631,-1.2339,-1.176,-1.1297,-1.0824,-1.0779,-1.2112,-1.1075,-0.9861,-1.0955,-1.0045,-0.9022,-0.9413,-0.9266,-0.8965,-0.8965,-0.8503,-0.8051,-0.8051,-0.7464,-0.6867,-0.6913,-0.6661,-0.6561,-0.6548,-0.6515,-0.6473,-0.6398,-0.6513,-0.6521,-0.6295,-0.5283,-0.4261,-0.3467,-0.3387,-0.2438,-0.0157,-0.0,-0.0,-0.0,-0.0,-0.0,-0.0,-0.0,-0.0,-0.0,-0.0,-0.0,-0.0,-0.1465,-0.2796,2.8781,2.9502,2.9907,2.9689,2.9691,2.9617,0.0,0.0,0.0,0.0,0.0,0.0,0.0,0.0,0.0,0.0,0.0,0.0,2.8385,2.9752,3.0673,3.0934,2.9593,2.7229,2.3709,2.168,1.8601,1.3905,1.4637,1.4722,1.3352,1.4904,1.5763,1.554,1.4644,1.3578,1.2237,1.2237,1.2926,1.431,1.2861,1.2992,1.4109,1.1487,1.0361,1.0402,0.8392,0.5945,0.3452,0.0788,-0.1551,-0.3844,-0.7847,-0.8465,-0.7291,-0.9329,-0.9937,-0.9857,-1.0917,-1.1307,-1.1364,-1.1364,-1.0813,-1.0021,-0.9901,-0.9162,-0.8578,-0.9698,-0.9114,-0.8405,-0.9475,-0.8276,-0.7069,-0.7867,-0.755,-0.7139,-0.7139,-0.7143,-0.7058,-0.7058,-0.6966,-0.6976,-0.7098,-0.6583,-0.6124,-0.6264,-0.6423,-0.6582,-0.6555,-0.6544,-0.6567,-0.6298,-0.6318,-0.4572,-0.0393,-0.0,-0.0,-0.0,-0.0,-0.0,-0.0,-0.0,-0.0,-0.0,-0.0,-0.0,-0.0,-0.0,-0.0,-0.0,-0.0,-0.0,2.8804,2.9896,3.061,2.9776,2.9724,2.9751,0.0,0.0,0.0,0.0,0.0,0.0,0.0,0.0,0.0,0.0,0.0,2.8757,0.0,0.0,2.9479,3.042,2.7907,2.5065,2.223,1.9627,1.642,1.2538,1.2652,1.2272,1.0699,1.414,1.5531,1.4268,1.4988,1.4791,1.3584,1.3584,1.4449,1.6002,1.457,1.4202,1.4589,1.2183,1.1065,1.0769,0.5773,0.259,0.0785,-0.2042,-0.5235,-0.8333,-0.7717,-0.7891,-0.8462,-0.8634,-0.8695,-0.8805,-0.9953,-1.0232,-0.999,-0.999,-0.9761,-0.9316,-0.8557,-0.813,-0.7803,-0.7443,-0.7177,-0.7267,-0.8563,-0.7909,-0.6953,-0.7219,-0.7193,-0.7139,-0.7139,-0.7068,-0.7081,-0.7081,-0.7088,-0.7094,-0.7101,-0.5398,-0.3952,-0.3701,-0.5415,-0.6666,-0.6684,-0.6701,-0.6558,-0.6312,-0.6285,-0.4618,-0.0392,-0.0,-0.0,-0.0,-0.0,-0.0,-0.0,-0.0,-0.0,-0.0,-0.0,-0.0,-0.0,-0.0,-0.0,-0.0,-0.0,-0.0,2.9405,3.0201,3.0646,2.9934,3.0747,0.0,0.0,0.0,0.0,0.0,0.0,0.0,0.0,0.0,2.6271,2.5359,0.0,2.4661,2.4992,2.5196,2.5519,2.6064,2.4446,2.2589,2.0571,1.8056,1.5227,1.2134,1.2041,1.1466,1.01,1.2504,1.3585,1.2818,1.3806,1.4124,1.3568,1.3061,1.3397,1.468,1.3509,1.3062,1.3127,0.9614,0.7528,0.6547,0.2957,0.0195,-0.2007,-0.4549,-0.6596,-0.822,-0.8036,-0.7804,-0.7554,-0.7936,-0.8418,-0.8968,-0.9521,-0.9223,-0.8681,-0.8681,-0.824,-0.7577,-0.7188,-0.7009,-0.6891,-0.6478,-0.6369,-0.6679,-0.7356,-0.7087,-0.6698,-0.6763,-0.6823,-0.6947,-0.6947,-0.7024,-0.6729,-0.5455,-0.5188,-0.5646,-0.6847,-0.6168,-0.4556,-0.1862,-0.2382,-0.3551,-0.4821,-0.6099,-0.6719,-0.6324,-0.4277,-0.2113,-0.0157,-0.0,-0.0,-0.0,-0.0,-0.0,-0.0,-0.0,-0.0,-0.0,-0.0,-0.0,-0.0,-0.0,-0.0,-0.0,-0.0,-0.0,3.0197,3.0578,3.0744,3.0427,0.0,0.0,0.0,0.0,0.0,0.0,0.0,0.0,0.0,2.5812,0.0,2.3173,2.2061,2.1334,2.0739,2.1029,2.1414,2.1447,2.0633,1.9519,1.8107,1.5992,1.3886,1.1574,1.1137,1.0583,0.9608,1.0886,1.1575,1.1575,1.2433,1.2227,1.0765,0.9674,0.9674,1.0663,1.0066,0.9469,0.8966,0.5637,0.3227,0.154,-0.0578,-0.2569,-0.4467,-0.6353,-0.731,-0.7635,-0.8058,-0.7453,-0.652,-0.7122,-0.7882,-0.8557,-0.8534,-0.8023,-0.7351,-0.7395,-0.6961,-0.6193,-0.5678,-0.5906,-0.6276,-0.6112,-0.6101,-0.6247,-0.6386,-0.6451,-0.6568,-0.6603,-0.6662,-0.6685,-0.6141,-0.6621,-0.6557,-0.4739,-0.3484,-0.3312,-0.5129,-0.5471,-0.4162,-0.0518,-0.0,-0.0698,-0.2538,-0.4365,-0.5245,-0.489,-0.1893,-0.0,-0.0,-0.0,-0.0,-0.0,-0.0,-0.0,-0.0,-0.0,-0.0,-0.0,-0.0,-0.0,-0.0,-0.0,-0.0,-0.0,-0.0,-0.0,3.0878,3.1077,3.1192,3.1291,0.0,0.0,0.0,0.0,0.0,0.0,0.0,0.0,0.0,2.448,2.4557,2.2493,2.2886,2.2617,2.0363,1.9196,1.8434,1.8388,1.6986,1.5484,1.4069,1.2764,1.1495,1.0027,0.8931,0.8237,0.8137,0.9747,1.0659,1.0659,1.151,0.9221,0.3463,0.1693,0.1693,0.3364,0.3265,0.2378,0.0894,0.0685,-0.0291,-0.2231,-0.5453,-0.6713,-0.6563,-0.6989,-0.7865,-0.8908,-0.733,-0.6602,-0.6324,-0.6211,-0.6143,-0.6237,-0.6233,-0.6211,-0.616,-0.6318,-0.6369,-0.5948,-0.3964,-0.4707,-0.63,-0.6288,-0.6053,-0.5891,-0.6244,-0.6469,-0.662,-0.6754,-0.6756,-0.6165,-0.4282,-0.5534,-0.7022,-0.692,-0.3317,-0.0269,-0.0449,-0.053,-0.0433,-0.0085,-0.0,-0.0085,-0.0257,-0.0425,-0.0514,-0.0445,-0.0178,-0.0,-0.0,-0.0,-0.0,-0.0,-0.0,-0.0,-0.0,-0.0,-0.0,-0.0,-0.0,-0.0,-0.0,-0.0,-0.0,-0.0,-0.0,-0.0,3.1541,3.0613,2.9848,3.0668,0.0,0.0,0.0,0.0,0.0,0.0,0.0,0.0,0.0,0.0,1.9686,2.0944,1.9109,1.7239,1.6292,1.5083,1.4316,1.4262,1.3634,1.3098,1.2554,1.1599,1.0867,1.0329,0.8825,0.7972,0.7972,0.8578,0.7434,0.4091,0.4298,0.3394,0.0995,-0.2771,-0.4436,-0.3821,-0.373,-0.4105,-0.4745,-0.4514,-0.4757,-0.5364,-0.6749,-0.7227,-0.6937,-0.685,-0.7141,-0.7395,-0.5245,-0.4355,-0.4281,-0.4232,-0.4927,-0.5841,-0.5894,-0.5118,-0.4246,-0.4285,-0.5176,-0.5895,-0.3722,-0.2781,-0.262,-0.3932,-0.423,-0.4473,-0.5904,-0.6342,-0.6064,-0.4811,-0.5516,-0.6229,-0.5441,-0.3905,-0.2679,-0.2715,-0.1205,-0.0,-0.0,-0.0,-0.0,-0.0,-0.0,-0.0,-0.0,-0.0,-0.0,-0.0,-0.0,-0.0,-0.0,-0.0,-0.0,-0.0,-0.0,-0.0,-0.0,-0.0,-0.0,-0.0,-0.0,-0.0,-0.0,-0.0,-0.0,-0.0,-0.0,-0.0,3.0804,2.9372,2.8151,0.0,0.0,0.0,0.0,0.0,0.0,0.0,2.3777,0.0,0.0,0.0,0.0,0.0,1.6423,1.4016,1.2789,1.1773,1.099,1.0674,1.0586,1.0559,1.0504,1.0066,0.9434,0.8466,0.7325,0.6756,0.6756,0.5942,0.3812,0.01,-0.1603,-0.2497,-0.2478,-0.5909,-0.7611,-0.76,-0.7525,-0.76,-0.7631,-0.748,-0.7283,-0.7232,-0.7269,-0.682,-0.5942,-0.5779,-0.6089,-0.6283,-0.3302,-0.2155,-0.2152,-0.2132,-0.2884,-0.4139,-0.5264,-0.4838,-0.3637,-0.247,-0.3112,-0.4001,-0.2556,-0.1123,-0.0433,-0.2494,-0.3096,-0.3447,-0.4781,-0.5692,-0.5905,-0.447,-0.4252,-0.4351,-0.4278,-0.2038,-0.0,-0.0,-0.0,-0.0,-0.0,-0.0,-0.0,-0.0,-0.0,-0.0,-0.0,-0.0,-0.0,-0.0,-0.0,-0.0,-0.0,-0.0,-0.0,-0.0,-0.0,-0.0,-0.0,-0.0,-0.0,-0.0,-0.0,-0.0,-0.0,-0.0,-0.0,-0.0,-0.0,-0.0,2.8401,2.7287,0.0,0.0,0.0,0.0,0.0,0.0,0.0,2.2116,0.0,1.9773,1.9773,1.9773,0.0,1.6235,1.559,1.4167,1.0369,0.9639,0.9031,0.7887,0.7811,0.7661,0.7435,0.7791,0.6796,0.3816,0.3876,0.3914,0.3914,0.1402,-0.01,-0.01,-0.5227,-0.7908,-0.7744,-0.7741,-0.7583,-0.737,-0.7394,-0.7472,-0.759,-0.7461,-0.7413,-0.7351,-0.7125,-0.5768,-0.3643,-0.3561,-0.4582,-0.5836,-0.1648,-0.0,-0.0,-0.0,-0.0,-0.0489,-0.4072,-0.5324,-0.4785,-0.1135,-0.0,-0.0,-0.0,-0.0,-0.0443,-0.2482,-0.3046,-0.3014,-0.274,-0.4483,-0.625,-0.625,-0.3042,-0.0,-0.0,-0.0,-0.0,-0.0,-0.0,-0.0,-0.0,-0.0,-0.0,-0.0,-0.0,-0.0,-0.0,-0.0,-0.0,-0.0,-0.0,-0.0,-0.0,-0.0,-0.0,-0.0,-0.0,-0.0,-0.0,-0.0,-0.0,-0.0,-0.0,-0.0,-0.0,-0.0,-0.0,-0.0,-0.009,-0.009,2.8905,0.0,0.0,0.0,0.0,0.0,0.0,0.0,0.0,0.0,1.8969,1.8295,1.8666,1.6781,1.5026,1.4831,1.2785,1.0881,0.9788,0.873,0.8074,0.7655,0.7672,0.7662,0.7621,0.7828,0.7591,0.6762,0.3229,-0.0493,-0.4246,-0.4749,-0.5138,-0.5417,-0.6822,-0.763,-0.7672,-0.7567,-0.7465,-0.737,-0.7282,-0.7171,-0.7205,-0.717,-0.6274,-0.4628,-0.3106,-0.3777,-0.577,-0.2461,-0.1404,-0.1719,-0.0484,-0.0,-0.0,-0.0,-0.0,-0.014,-0.1263,-0.1578,-0.1403,-0.0374,-0.0,-0.0,-0.0,-0.0,-0.014,-0.078,-0.0919,-0.0916,-0.0796,-0.1363,-0.1885,-0.1885,-0.0947,-0.0,-0.0,-0.0,-0.0,-0.0,-0.0,-0.0,-0.0,-0.0,-0.0,-0.0,-0.0,-0.0,-0.0,-0.0,-0.0,-0.0,-0.0,-0.0,-0.0,-0.0,-0.0,-0.0,-0.0,-0.0,-0.0,-0.0,-0.0,-0.0,-0.0,-0.0,-0.0,-0.0,-0.0,-0.009,-0.3416,-0.4952,2.7151,0.0,0.0,0.0,0.0,0.0,0.0,0.0,0.0,0.0,0.0,1.7026,1.6366,1.4519,1.2903,1.2346,1.0524,0.9101,0.8571,0.7814,0.7272,0.7427,0.7404,0.7455,0.7461,0.7792,0.7102,0.4973,0.1832,-0.1455,-0.4663,-0.6426,-0.7305,-0.7472,-0.7475,-0.7493,-0.7522,-0.753,-0.7454,-0.7299,-0.7138,-0.7104,-0.7101,-0.7142,-0.6337,-0.4704,0.0161,-0.0236,-0.4021,-0.1181,-0.0,-0.0,-0.0,-0.0,-0.0,-0.0,-0.0,-0.0,-0.0,-0.0,-0.0,-0.0,-0.0,-0.0,-0.0,-0.0,-0.0,-0.0,-0.0,-0.0,-0.0,-0.0,-0.0,-0.0,-0.1257,-0.2518,-0.2518,-0.1808,-0.1257,-0.1257,-0.055,-0.0,-0.0,-0.0,-0.0,-0.0,-0.0,-0.0,-0.0,-0.0,-0.0,-0.0,-0.0,-0.0,-0.0,-0.0,-0.0,-0.0,-0.0,-0.0,-0.0,-0.0,-0.0,-0.0,-0.0,-0.0,-0.0,-0.0,-0.0988,-0.2876,-0.6,-0.741,0.0,0.0,0.0,0.0,0.0,0.0,0.0,0.0,0.0,1.6998,0.0,1.5825,1.3411,1.2833,1.1865,0.9291,0.8768,0.8243,0.7076,0.68,0.6773,0.6823,0.6974,0.7074,0.7094,0.7171,0.5216,0.0377,-0.0,-0.0,-0.0,-0.4346,-0.701,-0.7108,-0.7463,-0.7482,-0.7086,-0.7187,-0.7041,-0.6828,-0.7019,-0.7115,-0.7111,-0.6692,-0.6452,-0.6025,0.2184,0.3795,0.0526,0.0143,-0.0,-0.0,-0.0,-0.0,-0.0,-0.0,-0.0,-0.0,-0.0,-0.0,-0.0,-0.0,-0.0,-0.0,-0.0,-0.0,-0.0,-0.0,-0.0,-0.0,-0.0,-0.0,-0.0079,-0.0471,-0.3467,-0.6267,-0.6267,-0.4737,-0.3383,-0.3383,-0.1884,-0.0314,0.0471,0.0631,0.0481,0.0084,-0.0,-0.0,-0.0,-0.0,-0.0,-0.0,-0.0,-0.0,-0.0,-0.0,-0.0,-0.0,-0.0,-0.0,-0.0,-0.0,-0.018,-0.0629,-0.0629,-0.0539,-0.0359,-0.0359,-0.2513,-0.677,-0.7556,-0.7802,0.0,0.0,0.0,0.0,0.0,0.0,0.0,0.0,1.6224,1.5224,1.4945,1.4248,1.1739,1.108,1.0174,0.7647,0.7181,0.7079,0.6846,0.6822,0.6222,0.4557,0.5966,0.7126,0.7133,0.3853,0.1235,0.0087,-0.0,-0.0,-0.0,-0.1061,-0.3449,-0.7386,-0.7357,-0.6359,-0.4393,-0.4483,-0.4421,-0.4376,-0.6195,-0.7138,-0.6954,-0.3256,-0.1491,-0.1429,0.0538,0.2699,0.4711,0.1352,-0.0,-0.0,-0.0,-0.0,-0.0,-0.0,-0.0,-0.0,-0.0,-0.0,-0.0,-0.0,-0.0,-0.0,-0.0,-0.0,-0.0,-0.0,-0.0,-0.0,-0.0,-0.0,-0.0864,-0.418,-0.5623,-0.6267,-0.6267,-0.5908,-0.564,-0.564,-0.5243,-0.2731,0.4335,0.5612,0.4345,0.0597,-0.0,-0.0,-0.0,-0.0,-0.0,-0.0,-0.0,-0.0,-0.0,-0.0,-0.0,-0.0,-0.0,-0.0,-0.0,-0.0,-0.1797,-0.5497,-0.5586,-0.467,-0.286,-0.286,-0.3396,-0.4385,-0.6397,-0.7234,0.0,0.0,0.0,0.0,0.0,0.0,0.0,0.0,1.4776,1.4361,1.4202,1.3529,1.1663,1.0677,0.9437,0.7647,0.6852,0.6495,0.6585,0.5684,0.5036,0.489,0.4199,0.3729,0.3729,0.1437,-0.0,-0.0,-0.0,-0.0,-0.0,-0.0,-0.1193,-0.384,-0.6024,-0.6541,-0.531,-0.299,-0.301,-0.5321,-0.65,-0.5908,-0.3626,-0.1165,-0.0,-0.0077,-0.1803,-0.1317,0.0569,-0.0763,-0.1293,-0.1276,-0.1276,-0.1276,-0.1276,-0.1276,-0.1276,-0.1276,-0.1276,-0.1276,-0.1276,-0.1276,-0.1276,-0.1278,-0.128,-0.0673,-0.0,-0.0,-0.0,-0.0,-0.0,-0.1518,-0.3304,-0.4474,-0.5584,-0.6305,-0.6305,-0.6281,-0.6271,-0.6298,-0.6288,-0.4776,-0.0157,0.428,0.5502,0.07,-0.0,-0.0,-0.0,-0.0,-0.0,-0.0,-0.0,-0.0,-0.0,-0.0,-0.0,-0.0,-0.0,-0.0,-0.0,-0.2159,-0.4595,-0.7045,-0.7125,-0.6474,-0.528,-0.528,-0.5277,-0.5277,-0.661,-0.7278,0.0,0.0,0.0,0.0,0.0,0.0,0.0,1.4328,1.4088,1.4088,1.3848,1.3205,1.1811,1.0536,0.9296,0.7928,0.6876,0.6264,0.6278,0.4457,0.36,0.5042,0.2158,-0.0,-0.0,-0.0,-0.0,-0.0,-0.0,-0.0,-0.0,-0.0,-0.0,-0.0,-0.3826,-0.5859,-0.588,-0.2009,-0.2015,-0.5855,-0.5892,-0.3796,-0.0,-0.064,-0.094,-0.1133,-0.4118,-0.5393,-0.5269,-0.3804,-0.3149,-0.3149,-0.3149,-0.3149,-0.3149,-0.3149,-0.3149,-0.3151,-0.3234,-0.323,-0.3151,-0.3167,-0.3165,-0.3159,-0.3238,-0.2216,-0.0937,-0.0612,-0.0543,-0.0541,-0.0546,-0.3125,-0.5413,-0.396,-0.4991,-0.6338,-0.6338,-0.6271,-0.6291,-0.6339,-0.6287,-0.608,-0.5331,0.0923,0.4828,0.1701,0.0539,-0.0,-0.0,-0.0,-0.0,-0.0,-0.0,-0.0359,-0.1168,-0.0449,-0.0,-0.0,-0.0,-0.0,-0.0,-0.3783,-0.6236,-0.7045,-0.7115,-0.7101,-0.7098,-0.7094,-0.7088,-0.7081,-0.7302,-0.735,0.0,0.0,0.0,0.0,0.0,0.0,0.0,0.0,1.4088,0.0,1.3848,1.2977,1.0854,1.0036,0.9018,0.6847,0.6426,0.6264,0.6278,0.4457,0.25,0.1018,0.0315,-0.0,-0.0,-0.0,-0.0,-0.0,-0.0,-0.0,-0.0,-0.0,-0.0,-0.0,-0.0634,-0.0961,-0.0981,-0.0327,-0.033,-0.0926,-0.0971,-0.0627,-0.0076,-0.3218,-0.4643,-0.4699,-0.5206,-0.5367,-0.5401,-0.5113,-0.5052,-0.5052,-0.5052,-0.5052,-0.5052,-0.5052,-0.5052,-0.5071,-0.5333,-0.5225,-0.5071,-0.5055,-0.5015,-0.5055,-0.5333,-0.5246,-0.4669,-0.3122,-0.2654,-0.2664,-0.2716,-0.3113,-0.3958,-0.5524,-0.6099,-0.6338,-0.6338,-0.6302,-0.6339,-0.6267,-0.6309,-0.5173,-0.1485,0.0177,0.2148,0.5584,0.2606,-0.0,-0.0,-0.0,-0.0,-0.0,-0.0,-0.1706,-0.5847,-0.2334,-0.0,-0.0,-0.0,-0.0,-0.0,-0.0628,-0.2868,-0.7045,-0.7115,-0.7098,-0.7088,-0.7068,-0.7058,-0.7146,-0.7166,-0.7173,0.0,0.0,0.0,0.0,0.0,0.0,1.3176,0.0,1.2942,1.226,1.2392,1.2292,1.122,0.9754,0.8335,0.7342,0.6641,0.6264,0.6278,0.5485,0.3675,0.0391,-0.0,0.0941,0.3303,0.3497,0.3023,0.1803,0.1744,0.1192,0.0079,-0.0,-0.0,-0.0,-0.0,-0.0,-0.0,-0.0,-0.0,-0.0,-0.0,-0.0,-0.0148,-0.3759,-0.5412,-0.5391,-0.5396,-0.5428,-0.541,-0.5406,-0.5376,-0.5376,-0.5376,-0.5376,-0.5376,-0.5376,-0.5701,-0.6168,-0.6246,-0.6285,-0.6248,-0.6253,-0.5892,-0.5559,-0.5747,-0.5834,-0.5748,-0.4927,-0.4779,-0.4896,-0.4894,-0.489,-0.5129,-0.6046,-0.6338,-0.6338,-0.6338,-0.6305,-0.6291,-0.6284,-0.4417,-0.218,-0.035,-0.0,-0.0177,-0.0804,-0.0359,-0.0,-0.0,-0.0,-0.0,-0.0,-0.2425,-0.4858,-0.6946,-0.522,-0.2871,-0.0179,-0.0,-0.1168,-0.3866,-0.3952,-0.4306,-0.5112,-0.5552,-0.6269,-0.7084,-0.7064,-0.7139,-0.7139,-0.7139,-0.7139,0.0,0.0,0.0,0.0,0.0,0.0,0.0,0.0,1.1629,1.0794,1.0858,1.104,1.0886,0.9247,0.7773,0.7545,0.6824,0.6254,0.622,0.6257,0.5165,0.1939,0.1638,0.2588,0.5202,0.6009,0.5605,0.3997,0.3925,0.3222,0.1649,0.0549,-0.0,-0.0,-0.0,-0.0,-0.0,-0.0,-0.0,-0.0,-0.0,-0.0505,-0.1441,-0.3725,-0.4939,-0.5431,-0.5415,-0.5413,-0.5372,-0.5432,-0.5428,-0.5428,-0.5428,-0.5428,-0.5428,-0.5428,-0.5943,-0.6724,-0.6709,-0.6819,-0.6869,-0.6869,-0.6333,-0.5641,-0.5748,-0.5894,-0.594,-0.6017,-0.618,-0.6322,-0.6279,-0.6334,-0.6338,-0.6338,-0.6338,-0.6022,-0.4921,-0.4661,-0.4738,-0.4676,-0.2145,-0.0419,-0.1569,-0.1842,-0.2822,-0.5744,-0.368,-0.1613,-0.0983,-0.0896,-0.0897,-0.0897,-0.4129,-0.6487,-0.7035,-0.7131,-0.5581,-0.2059,-0.1794,-0.3414,-0.6952,-0.7131,-0.6296,-0.4559,-0.5092,-0.5991,-0.7084,-0.7064,-0.7139,-0.7139,-0.7139,-0.7228,0.0,0.0,0.0,0.0,0.0,0.0,0.0,0.0,1.0868,1.0656,0.9672,0.88,0.86,0.8239,0.764,0.6697,0.6434,0.6224,0.6064,0.6207,0.6183,0.6006,0.5983,0.5283,0.3448,0.5112,0.6224,0.6122,0.6122,0.6054,0.6006,0.2196,-0.0,-0.0,-0.0,-0.0,-0.0,-0.0,-0.0,-0.0,-0.0,-0.1828,-0.5075,-0.3544,-0.3763,-0.5393,-0.5389,-0.5379,-0.5428,-0.5428,-0.5428,-0.5428,-0.5428,-0.5428,-0.5428,-0.5428,-0.5943,-0.6745,-0.6861,-0.686,-0.6869,-0.6869,-0.6333,-0.5596,-0.5776,-0.5792,-0.5864,-0.6173,-0.6261,-0.6331,-0.6304,-0.6318,-0.6338,-0.6338,-0.6338,-0.5234,-0.117,-0.032,-0.0328,-0.0335,-0.0171,-0.1397,-0.5919,-0.6758,-0.6022,-0.4109,-0.5466,-0.5919,-0.366,-0.3392,-0.3392,-0.3392,-0.366,-0.465,-0.692,-0.7125,-0.6956,-0.6767,-0.677,-0.6863,-0.7045,-0.7115,-0.7012,-0.692,-0.6999,-0.6996,-0.7084,-0.7064,-0.7139,-0.7139,-0.7139,-0.7753,0.0,0.0,0.0,0.0,0.0,1.3262,1.248,1.1511,1.045,0.968,0.9178,0.8566,0.7724,0.7308,0.6936,0.6441,0.6318,0.5819,0.4305,0.5194,0.6069,0.6245,0.63,0.5996,0.519,0.5843,0.6315,0.6271,0.6302,0.6312,0.6288,0.4878,0.2832,0.0079,-0.0,-0.0,-0.0,-0.0,-0.1149,-0.3486,-0.3466,-0.3455,-0.3387,-0.3936,-0.457,-0.523,-0.5223,-0.5274,-0.5428,-0.5428,-0.5752,-0.6203,-0.6203,-0.6593,-0.7055,-0.7055,-0.7637,-0.8366,-0.8451,-0.8112,-0.7754,-0.7754,-0.6818,-0.5742,-0.5899,-0.595,-0.5952,-0.6193,-0.6338,-0.6338,-0.6338,-0.6338,-0.6338,-0.6338,-0.6329,-0.5997,-0.4559,-0.2017,-0.0,-0.0,-0.2509,-0.5092,-0.6837,-0.7125,-0.6834,-0.6,-0.6548,-0.6824,-0.5997,-0.5822,-0.5824,-0.5824,-0.5819,-0.618,-0.7012,-0.5738,-0.5471,-0.7022,-0.7128,-0.7125,-0.7104,-0.7094,-0.7084,-0.7071,-0.7064,-0.7071,-0.7084,-0.7852,-0.8277,-0.8277,-0.8965,-0.957,1.7458,0.0,0.0,0.0,0.0,1.3278,1.3194,1.1906,1.0346,0.9148,0.889,0.8495,0.7232,0.6235,0.5543,0.5413,0.5931,0.5521,0.3402,0.3503,0.413,0.5017,0.4568,0.4711,0.6142,0.6312,0.6308,0.6281,0.6312,0.6315,0.6281,0.6315,0.4335,0.0157,-0.1168,-0.184,-0.1795,-0.1217,-0.2091,-0.4499,-0.4995,-0.454,-0.3211,-0.4457,-0.5034,-0.5078,-0.5071,-0.5216,-0.5428,-0.5428,-0.5947,-0.6719,-0.6719,-0.7242,-0.8027,-0.8027,-0.8549,-0.9274,-0.9274,-0.8843,-0.8218,-0.8143,-0.7082,-0.5813,-0.5888,-0.6218,-0.6578,-0.6732,-0.7022,-0.7249,-0.6868,-0.6602,-0.6332,-0.6332,-0.6441,-0.6569,-0.6641,-0.3977,-0.1422,-0.1208,-0.3758,-0.621,-0.7078,-0.7141,-0.7111,-0.7234,-0.7115,-0.7081,-0.7074,-0.7081,-0.7084,-0.7084,-0.7078,-0.7081,-0.7094,-0.5186,-0.4556,-0.5824,-0.6656,-0.7108,-0.7088,-0.7517,-0.7683,-0.7665,-0.8097,-0.8277,-0.8296,-0.8723,-0.9061,-0.9492,-1.0265,-1.0906,0.0,0.0,0.0,0.0,0.0,0.0,1.3297,1.2027,1.0687,0.9235,0.8894,0.8499,0.7056,0.5024,0.358,0.3658,0.5031,0.5315,0.3106,0.108,0.0466,0.2344,0.1001,0.1561,0.5643,0.6109,0.6116,0.6149,0.6142,0.6139,0.6149,0.6067,0.4164,-0.0,-0.353,-0.5333,-0.5425,-0.3681,-0.2747,-0.2808,-0.4246,-0.4967,-0.5065,-0.4865,-0.4934,-0.5055,-0.5125,-0.5213,-0.5422,-0.5425,-0.5943,-0.6719,-0.6776,-0.7302,-0.8091,-0.8081,-0.8608,-0.9338,-0.9338,-0.8838,-0.8183,-0.8032,-0.698,-0.58,-0.58,-0.658,-0.7582,-0.7782,-0.8542,-0.8993,-0.8008,-0.7141,-0.6471,-0.6471,-0.6593,-0.6749,-0.6823,-0.5628,-0.4409,-0.3813,-0.3699,-0.4495,-0.6998,-0.7275,-0.7128,-0.7346,-0.7238,-0.7139,-0.7139,-0.7143,-0.7146,-0.7146,-0.7146,-0.7068,-0.7091,-0.5722,-0.455,-0.3748,-0.5816,-0.7084,-0.7173,-0.8292,-0.889,-0.8978,-1.0009,-1.0611,-1.0611,-0.9579,-0.9579,-1.0611,-1.0702,-1.1522,1.7252,0.0,0.0,0.0,0.0,0.0,1.4281,1.3233,1.1936,1.0641,0.9693,0.8738,0.7274,0.5183,0.3992,0.5344,0.3387,0.0457,-0.3181,-0.4197,-0.3819,-0.1735,-0.1539,-0.1094,0.0078,0.117,0.1795,0.1883,0.1954,0.187,0.1787,0.0311,-0.1015,-0.2193,-0.3008,-0.4108,-0.5412,-0.4654,-0.4338,-0.442,-0.4756,-0.4887,-0.4889,-0.4858,-0.4799,-0.4707,-0.5006,-0.5133,-0.5267,-0.6021,-0.6854,-0.7683,-0.8091,-0.8891,-0.9882,-0.9619,-0.98,-1.0174,-0.953,-0.8727,-0.7977,-0.726,-0.6503,-0.58,-0.58,-0.6699,-0.7761,-0.7761,-0.7995,-0.7986,-0.6942,-0.6599,-0.6471,-0.6471,-0.6675,-0.6878,-0.6837,-0.6657,-0.6373,-0.6133,-0.616,-0.637,-0.7048,-0.7101,-0.716,-0.72,-0.7166,-0.7139,-0.7139,-0.7238,-0.7309,-0.7309,-0.7309,-0.7225,-0.7151,-0.6687,-0.6358,-0.6177,-0.6723,-0.7517,-0.8376,-0.8719,-0.9323,-1.0091,-1.0438,-1.1042,-1.1809,-1.1466,-1.1552,-1.1901,-1.2886,-1.3749,0.0,0.0,0.0,0.0,0.0,0.0,1.4328,1.3797,1.2728,1.107,1.023,0.92,0.7439,0.5142,0.365,0.3656,0.1602,-0.1478,-0.5733,-0.6276,-0.5797,-0.4609,-0.4115,-0.3839,-0.3849,-0.3125,-0.2564,-0.232,-0.215,-0.2226,-0.264,-0.3669,-0.4258,-0.4225,-0.4077,-0.4419,-0.5393,-0.5222,-0.5094,-0.5021,-0.4954,-0.4559,-0.3934,-0.3828,-0.3713,-0.3587,-0.4562,-0.5044,-0.5185,-0.6468,-0.731,-0.7874,-0.8545,-0.9457,-1.0367,-1.0321,-1.0414,-1.0498,-0.9594,-0.8748,-0.7827,-0.6981,-0.6519,-0.6265,-0.6265,-0.7505,-0.8777,-0.8328,-0.8062,-0.7737,-0.7205,-0.6873,-0.6661,-0.6661,-0.6844,-0.7017,-0.7017,-0.7082,-0.7058,-0.7078,-0.7074,-0.7091,-0.7244,-0.719,-0.7163,-0.7227,-0.718,-0.7139,-0.7139,-0.7217,-0.7275,-0.7275,-0.7275,-0.7188,-0.7108,-0.7563,-0.7863,-0.7863,-0.8296,-0.8899,-0.9579,-1.0096,-1.0611,-1.13,-1.1821,-1.2425,-1.3027,-1.2589,-1.2589,-1.3039,-1.4024,-1.4676,0.0,0.0,0.0,1.4261,1.3673,0.0,1.3846,1.3881,1.328,1.1106,1.0668,1.005,0.7757,0.5527,0.3338,0.1169,0.0329,-0.137,-0.5398,-0.6175,-0.6322,-0.6315,-0.6291,-0.6281,-0.6291,-0.6274,-0.6136,-0.5878,-0.5563,-0.5725,-0.6169,-0.5973,-0.5808,-0.5805,-0.5729,-0.562,-0.5411,-0.5235,-0.4882,-0.4356,-0.4314,-0.3638,-0.2341,-0.2102,-0.1937,-0.1995,-0.3936,-0.4914,-0.5168,-0.6753,-0.7382,-0.7588,-0.8482,-0.9369,-1.0147,-1.0374,-1.0508,-1.0364,-0.9594,-0.8748,-0.7897,-0.7111,-0.6914,-0.701,-0.6962,-0.8473,-1.0047,-0.8973,-0.8362,-0.7982,-0.8012,-0.745,-0.6909,-0.6926,-0.7037,-0.7139,-0.7139,-0.7139,-0.7139,-0.7139,-0.7139,-0.7183,-0.7322,-0.7231,-0.7187,-0.7326,-0.7227,-0.7139,-0.7139,-0.7153,-0.7166,-0.7166,-0.7252,-0.734,-0.734,-0.8372,-0.9061,-0.9061,-1.0009,-1.0697,-1.0783,-1.1724,-1.2328,-1.2504,-1.3555,-1.4102,-1.4135,-1.307,-1.3076,-1.4142,-1.4469,-1.4756,1.459,1.4018,1.3271,1.3744,1.3388,0.0,1.3646,1.3988,1.3789,1.2689,1.2507,1.1811,0.9333,0.7773,0.6652,0.6,0.2548,-0.0879,-0.3379,-0.5246,-0.6335,-0.6427,-0.6335,-0.6342,-0.6426,-0.6345,-0.6173,-0.5989,-0.5909,-0.5827,-0.5761,-0.6016,-0.6034,-0.5661,-0.5861,-0.5827,-0.5613,-0.4064,-0.2552,-0.1172,-0.0799,-0.0482,-0.0291,-0.0407,-0.0291,-0.0293,-0.3438,-0.4831,-0.4931,-0.6035,-0.6778,-0.7454,-0.8679,-0.9518,-1.0094,-0.992,-0.972,-0.953,-0.9338,-0.8748,-0.7962,-0.7832,-0.7849,-0.7855,-0.7259,-0.8027,-0.8978,-0.8205,-0.7927,-0.7647,-0.6893,-0.6723,-0.6776,-0.6823,-0.6954,-0.7139,-0.7139,-0.7139,-0.7139,-0.7139,-0.7139,-0.7149,-0.718,-0.716,-0.7149,-0.718,-0.716,-0.7139,-0.7139,-0.7248,-0.7326,-0.7326,-0.8121,-0.8743,-0.8743,-0.9666,-1.0269,-1.0269,-1.0438,-1.1042,-1.1895,-1.2151,-1.2766,-1.373,-1.3997,-1.4202,-1.4436,-1.4169,-1.4169,-1.4449,-1.4977,-1.5257,1.4001,1.3576,1.3046,1.3046,1.2864,0.0,0.0,1.3334,1.329,1.2557,1.2321,1.1939,1.0757,0.9901,0.9859,1.1282,0.9113,0.601,0.2425,-0.2843,-0.6388,-0.6505,-0.6474,-0.6458,-0.6527,-0.6383,-0.623,-0.6003,-0.5919,-0.5844,-0.5725,-0.577,-0.5848,-0.5954,-0.5923,-0.5769,-0.5554,-0.2748,-0.0065,0.2516,0.2638,0.2635,0.2578,0.2686,0.1787,0.0059,-0.2206,-0.3278,-0.3635,-0.5698,-0.6793,-0.7365,-0.8877,-0.9343,-0.9298,-0.9939,-0.9482,-0.8683,-0.9139,-0.8826,-0.8169,-0.8062,-0.8189,-0.8324,-0.7771,-0.7838,-0.8065,-0.8168,-0.7699,-0.7068,-0.6586,-0.6086,-0.5969,-0.6675,-0.6954,-0.7139,-0.7139,-0.7139,-0.7139,-0.7139,-0.7139,-0.7139,-0.7139,-0.7139,-0.7139,-0.7139,-0.7139,-0.7139,-0.7139,-0.7207,-0.7406,-0.7856,-0.8528,-0.9121,-0.9357,-1.0626,-1.1417,-1.1302,-1.1923,-1.2601,-1.3203,-1.3203,-1.347,-1.4088,-1.4229,-1.4376,-1.4522,-1.4816,-1.4883,-1.475,-1.519,-1.5398,1.3437,1.3334,1.2983,1.2363,1.2342,1.2526,0.0,0.0,0.0,1.2316,1.2081,1.2056,1.2179,1.2018,1.2588,1.4874,1.4739,1.2687,0.7776,0.1088,-0.3788,-0.4905,-0.6012,-0.6374,-0.5695,-0.5419,-0.5316,-0.5403,-0.5116,-0.503,-0.5231,-0.5041,-0.512,-0.5582,-0.5772,-0.5418,-0.4354,-0.0746,0.251,0.5324,0.5135,0.4988,0.489,0.5236,0.3793,0.0948,-0.0909,-0.2116,-0.2958,-0.5698,-0.6865,-0.7052,-0.8704,-0.9001,-0.8598,-0.9786,-0.9279,-0.8156,-0.9204,-0.9165,-0.8596,-0.8346,-0.8326,-0.8311,-0.8115,-0.7592,-0.725,-0.8007,-0.7384,-0.6565,-0.6506,-0.5834,-0.5447,-0.6602,-0.695,-0.7139,-0.7139,-0.7139,-0.7139,-0.7139,-0.7139,-0.7139,-0.7139,-0.7139,-0.7139,-0.7139,-0.7139,-0.7139,-0.7139,-0.7115,-0.74,-0.8292,-0.8798,-0.9347,-1.0039,-1.16,-1.253,-1.229,-1.3432,-1.4088,-1.4088,-1.4088,-1.4115,-1.4168,-1.4402,-1.4576,-1.4689,-1.4884,-1.5087,-1.5057,-1.5344,-1.5385,1.3157,1.3507,1.36,1.1937,1.2485,1.3039,1.1835,0.0,1.347,1.3812,0.0,1.3805,1.3863,0.0,0.0,1.3278,1.3381,1.2091,0.7943,0.7327,0.5541,0.1044,-0.377,-0.5587,-0.2806,-0.1976,-0.2118,-0.3339,-0.227,-0.2093,-0.3321,-0.3396,-0.3291,-0.3141,-0.5128,-0.4398,-0.0627,0.2995,0.4916,0.5155,0.5291,0.5192,0.4901,0.5057,0.4991,0.4494,-0.0428,-0.332,-0.4674,-0.6001,-0.6404,-0.6245,-0.7583,-0.8352,-0.8755,-0.8942,-0.8611,-0.8221,-0.9907,-1.0089,-0.951,-0.9403,-0.8473,-0.7482,-0.7635,-0.711,-0.6504,-0.6773,-0.6572,-0.6349,-0.6341,-0.6394,-0.6528,-0.6741,-0.6957,-0.7139,-0.7139,-0.7139,-0.7139,-0.7139,-0.7139,-0.7139,-0.7139,-0.7139,-0.7139,-0.7139,-0.7139,-0.7139,-0.7139,-0.7031,-0.7286,-0.8276,-0.9216,-1.0321,-1.1558,-1.2725,-1.3539,-1.3847,-1.3984,-1.4088,-1.4088,-1.4088,-1.4208,-1.4469,-1.4502,-1.4776,-1.5297,-1.4124,-1.4235,-1.5351,-1.5645,-1.519,1.1609,1.1991,1.2231,1.1576,1.1866,1.2318,1.2367,1.2699,1.3064,1.3278,0.0,0.0,0.0,0.0,0.0,0.0,1.1543,1.0578,0.93,0.8017,0.5754,0.189,-0.0456,-0.1904,-0.2205,-0.3337,-0.4325,-0.4875,-0.2144,-0.0713,-0.1237,-0.1263,-0.126,-0.1141,0.0225,0.1689,0.3151,0.4752,0.5443,0.5284,0.5342,0.5254,0.5047,0.5209,0.4476,0.2957,0.0125,-0.2641,-0.5057,-0.5876,-0.625,-0.6261,-0.6717,-0.7087,-0.7447,-0.8657,-0.842,-0.7693,-0.9414,-0.9682,-0.927,-0.8687,-0.8042,-0.7366,-0.6996,-0.6624,-0.6383,-0.6455,-0.5738,-0.528,-0.6247,-0.6575,-0.6739,-0.6826,-0.6954,-0.7139,-0.7139,-0.7139,-0.7139,-0.7139,-0.7139,-0.7139,-0.7139,-0.7139,-0.7139,-0.7139,-0.7139,-0.7109,-0.7027,-0.7037,-0.7543,-0.8882,-0.9824,-1.0875,-1.2336,-1.3343,-1.3881,-1.3834,-1.3988,-1.4088,-1.4088,-1.4088,-1.4222,-1.4509,-1.4689,-1.4611,-1.4248,-1.3832,-1.3998,-1.4489,-1.3831,-1.3204,1.0153,1.0386,1.0714,1.0852,1.1203,1.1569,1.2079,1.2445,1.2591,1.2452,1.2061,0.0,0.0,0.0,1.0779,1.0684,0.0,0.9129,0.9086,0.713,0.5045,0.3259,0.288,0.1689,-0.125,-0.2316,-0.3315,-0.4486,-0.0401,0.2033,0.1731,0.1196,0.0878,0.0863,0.3838,0.5501,0.5545,0.5644,0.5624,0.5507,0.5393,0.5294,0.5152,0.4632,0.3158,0.0894,-0.0257,-0.2455,-0.5199,-0.5645,-0.597,-0.6153,-0.6069,-0.602,-0.623,-0.7997,-0.7959,-0.7223,-0.8696,-0.891,-0.8479,-0.7942,-0.7553,-0.7099,-0.6535,-0.639,-0.6454,-0.6366,-0.5627,-0.5138,-0.6267,-0.6698,-0.681,-0.6922,-0.7037,-0.7139,-0.7139,-0.7139,-0.7139,-0.7139,-0.7139,-0.7139,-0.7139,-0.7139,-0.7139,-0.7139,-0.7139,-0.7102,-0.7,-0.7299,-0.8056,-0.9526,-1.0424,-1.1509,-1.2876,-1.3594,-1.3908,-1.3774,-1.3968,-1.4088,-1.4088,-1.4162,-1.4342,-1.4636,-1.493,-1.4747,-1.4072,-1.3975,-1.3878,-1.3878,-1.2522,-1.2139,0.9046,0.9201,0.9548,0.951,1.0329,1.1049,1.0432,1.1423,1.2262,1.1498,1.1621,1.1403,1.0221,1.029,1.0,0.8471,0.8358,0.0,0.0,0.5481,0.562,0.6881,0.5984,0.4137,0.1053,0.3967,0.4269,0.0146,0.466,0.718,0.6165,0.416,0.2969,0.2968,0.3132,0.4075,0.5966,0.5837,0.5759,0.5669,0.546,0.5387,0.5321,0.2971,0.1117,-0.0449,-0.1971,-0.3666,-0.5369,-0.5418,-0.5418,-0.5435,-0.5586,-0.5645,-0.571,-0.666,-0.6933,-0.7031,-0.8111,-0.7969,-0.7442,-0.7715,-0.7176,-0.6362,-0.6503,-0.6468,-0.6474,-0.6575,-0.6593,-0.6582,-0.6623,-0.6719,-0.6926,-0.6929,-0.7037,-0.7139,-0.7139,-0.7139,-0.7139,-0.7139,-0.7139,-0.7139,-0.7139,-0.7139,-0.7139,-0.7139,-0.7139,-0.7139,-0.7132,-0.8041,-0.903,-1.01,-1.1078,-1.2184,-1.3506,-1.3641,-1.3774,-1.4055,-1.4082,-1.4088,-1.4088,-1.4355,-1.4643,-1.4943,-1.5237,-1.5524,-1.5717,-1.4459,-1.3878,-1.3878,-1.2522,-1.2624,0.5524,0.4375,0.3829,0.636,0.6668,0.7049,0.9536,0.9753,0.9676,1.0331,0.8703,0.7283,0.7762,0.7026,0.6378,0.6349,0.6744,0.6608,0.0,0.3739,0.2466,0.2596,0.3175,0.3413,0.3207,0.3274,0.2411,0.015,0.1665,0.3864,0.6706,0.6109,0.556,0.5223,0.5337,0.5625,0.5972,0.5926,0.5849,0.5676,0.3048,0.1859,0.1778,0.0995,-0.066,-0.2872,-0.3985,-0.5147,-0.621,-0.5624,-0.542,-0.5518,-0.5569,-0.5647,-0.587,-0.6706,-0.7132,-0.7334,-0.7816,-0.7413,-0.6652,-0.6788,-0.6574,-0.6361,-0.6481,-0.6644,-0.6699,-0.6592,-0.6515,-0.6563,-0.662,-0.6705,-0.6827,-0.7021,-0.7105,-0.7139,-0.7139,-0.7139,-0.7139,-0.7139,-0.7753,-0.8281,-0.8281,-0.8882,-0.9139,-0.8364,-0.8969,-0.9352,-0.9303,-0.9894,-1.0265,-1.0228,-1.1499,-1.2474,-1.256,-1.3419,-1.3981,-1.4082,-1.4269,-1.4369,-1.4369,-1.4656,-1.495,-1.5244,-1.5344,-1.5158,-1.4555,-1.407,-1.3878,-1.3878,-1.2522,-1.2139,0.109,0.0311,0.0077,0.336,0.3552,0.3885,0.7482,0.7368,0.6899,0.8497,0.6519,0.4601,0.4893,0.4403,0.4139,0.4768,0.4998,0.4736,0.0,0.1537,-0.0134,-0.0735,0.0536,0.1819,0.2724,0.1803,0.1049,0.0681,0.0557,0.2051,0.5513,0.648,0.6795,0.6425,0.6498,0.6455,0.6125,0.6082,0.5315,0.3763,-0.0068,-0.1936,-0.1934,-0.2329,-0.3449,-0.5101,-0.5672,-0.621,-0.6654,-0.5752,-0.542,-0.5518,-0.5623,-0.5722,-0.5878,-0.6508,-0.6853,-0.7096,-0.7222,-0.681,-0.6197,-0.5404,-0.5305,-0.5615,-0.5692,-0.6189,-0.6692,-0.6502,-0.6552,-0.6658,-0.6756,-0.6817,-0.6905,-0.7095,-0.7139,-0.7139,-0.7139,-0.7139,-0.7228,-0.7665,-0.8364,-0.9065,-0.9405,-1.0438,-1.0783,-0.9666,-1.0096,-1.0585,-1.0605,-1.1287,-1.1569,-1.1267,-1.2663,-1.3422,-1.3163,-1.395,-1.4396,-1.4396,-1.4576,-1.4676,-1.4676,-1.4963,-1.5204,-1.5391,-1.5498,-1.5256,-1.4561,-1.4561,-1.4561,-1.4561,-1.3692,-1.3307]},{"header":{"parameterUnit":"m.s-1","parameterCategory":1,"la1":30.6,"la2":29.2853,"lo1":-89.7004,"lo2":-87.6739,"dy":0.0162,"dx":0.0183,"nx":112,"ny":82,"refTime":"2023-03-28T18:00:00:Z","depth":0,"parameterNumber":3,"parameterNumberName":"V-component_of_WINDS"},"data":[0.0,0.0,0.0,0.0,0.0,0.0,0.0,0.0,0.0,0.0,0.0,0.0,0.0,0.0,0.0,0.0,0.0,0.0,0.0,0.0,0.0,0.0,0.0,0.0,0.0,0.0,0.0,0.0,0.0,0.0,0.0,0.0,0.0,0.0,0.0,0.0,0.0,0.0,0.0,0.0,0.0,0.0,0.0,0.0,0.0,0.0,0.0,0.0,0.0,0.0,0.0,0.0,0.0,0.0,0.0,0.0,0.0,0.0,0.0,0.0,0.0,0.0,0.0,0.0,0.0,0.0,0.0,0.0,0.0,0.0,0.0,0.0,0.0,0.0,0.0,0.0,0.0,0.0,0.0,0.0,0.0,0.0,0.0,0.0,0.0,0.0,0.0,0.0,0.0,0.0,-3.5284,-3.5857,-3.9433,-4.2124,-4.3028,-4.372,-4.3421,-4.1819,0.0,0.0,0.0,0.0,0.0,0.0,0.0,0.0,0.0,0.0,0.0,0.0,0.0,0.0,0.0,0.0,0.0,0.0,0.0,0.0,0.0,0.0,0.0,0.0,0.0,0.0,0.0,0.0,0.0,0.0,0.0,0.0,0.0,0.0,0.0,0.0,0.0,0.0,0.0,0.0,0.0,0.0,0.0,0.0,0.0,0.0,0.0,0.0,0.0,0.0,0.0,0.0,0.0,0.0,0.0,0.0,0.0,0.0,0.0,0.0,0.0,0.0,0.0,0.0,0.0,0.0,0.0,0.0,0.0,0.0,0.0,0.0,0.0,0.0,0.0,0.0,0.0,0.0,0.0,0.0,0.0,0.0,0.0,0.0,0.0,0.0,0.0,0.0,0.0,0.0,0.0,0.0,0.0,0.0,0.0,0.0,0.0,0.0,0.0,0.0,0.0,0.0,0.0,0.0,-3.5522,-3.8379,-3.9906,-4.1373,-4.2951,-4.3201,-4.2964,-4.225,0.0,0.0,0.0,0.0,0.0,0.0,0.0,0.0,0.0,0.0,0.0,0.0,0.0,0.0,0.0,0.0,0.0,0.0,0.0,0.0,0.0,0.0,0.0,0.0,0.0,0.0,0.0,0.0,0.0,0.0,0.0,0.0,0.0,0.0,0.0,0.0,0.0,0.0,0.0,0.0,0.0,0.0,0.0,0.0,0.0,0.0,0.0,0.0,0.0,0.0,0.0,0.0,0.0,0.0,0.0,0.0,0.0,0.0,0.0,0.0,0.0,0.0,0.0,0.0,0.0,0.0,0.0,0.0,0.0,0.0,0.0,0.0,0.0,0.0,0.0,0.0,0.0,0.0,0.0,0.0,0.0,0.0,0.0,0.0,0.0,0.0,0.0,0.0,0.0,0.0,0.0,0.0,0.0,0.0,0.0,0.0,0.0,0.0,0.0,0.0,0.0,0.0,0.0,-3.5459,-3.7184,-3.9115,-4.0431,-4.172,-4.2989,-4.3583,-4.3707,-4.335,-4.332,0.0,0.0,0.0,0.0,0.0,0.0,0.0,0.0,0.0,0.0,0.0,0.0,0.0,0.0,0.0,0.0,0.0,0.0,0.0,0.0,0.0,0.0,0.0,0.0,0.0,0.0,0.0,0.0,0.0,0.0,0.0,0.0,0.0,0.0,0.0,0.0,0.0,0.0,0.0,0.0,0.0,0.0,0.0,0.0,0.0,0.0,0.0,0.0,0.0,0.0,0.0,0.0,0.0,0.0,0.0,0.0,0.0,0.0,0.0,0.0,0.0,0.0,0.0,0.0,0.0,0.0,0.0,0.0,0.0,0.0,0.0,0.0,0.0,0.0,0.0,0.0,0.0,0.0,0.0,0.0,0.0,0.0,0.0,0.0,0.0,0.0,0.0,0.0,0.0,0.0,0.0,0.0,0.0,0.0,0.0,0.0,0.0,0.0,0.0,0.0,0.0,0.0,-3.7668,-3.8747,-3.9496,-4.0931,-4.2181,-4.3047,-4.3775,-4.4135,-4.4017,-4.3647,0.0,0.0,0.0,0.0,0.0,0.0,0.0,0.0,0.0,0.0,0.0,0.0,0.0,0.0,0.0,0.0,0.0,0.0,0.0,0.0,0.0,0.0,0.0,0.0,0.0,0.0,0.0,0.0,0.0,0.0,0.0,0.0,0.0,0.0,0.0,0.0,0.0,0.0,0.0,0.0,0.0,0.0,0.0,0.0,0.0,0.0,0.0,0.0,0.0,0.0,0.0,0.0,0.0,0.0,0.0,0.0,0.0,0.0,0.0,0.0,0.0,0.0,0.0,0.0,0.0,0.0,0.0,0.0,0.0,0.0,0.0,0.0,0.0,0.0,0.0,0.0,0.0,0.0,0.0,0.0,0.0,0.0,0.0,0.0,0.0,0.0,0.0,0.0,0.0,0.0,0.0,0.0,0.0,0.0,0.0,0.0,0.0,0.0,0.0,0.0,0.0,0.0,-3.801,-3.9337,-4.0319,-4.1354,-4.2313,-4.3118,-4.3239,-4.3337,-4.3452,-4.3471,0.0,0.0,0.0,0.0,0.0,0.0,0.0,0.0,0.0,0.0,0.0,0.0,0.0,0.0,0.0,0.0,0.0,0.0,0.0,0.0,0.0,0.0,0.0,0.0,0.0,0.0,0.0,0.0,0.0,0.0,0.0,0.0,0.0,0.0,0.0,0.0,0.0,0.0,0.0,0.0,0.0,0.0,0.0,0.0,0.0,0.0,0.0,0.0,0.0,0.0,0.0,0.0,0.0,0.0,0.0,0.0,0.0,0.0,0.0,0.0,0.0,0.0,0.0,0.0,0.0,0.0,0.0,0.0,0.0,0.0,0.0,0.0,0.0,0.0,0.0,0.0,0.0,0.0,0.0,0.0,0.0,0.0,0.0,0.0,0.0,0.0,0.0,0.0,0.0,0.0,0.0,0.0,0.0,0.0,0.0,0.0,0.0,0.0,0.0,0.0,0.0,0.0,-3.9239,-4.0085,-4.0469,-4.1393,-4.2332,-4.3137,-4.3338,-4.3916,-4.5015,0.0,0.0,0.0,0.0,0.0,0.0,0.0,0.0,0.0,0.0,0.0,0.0,0.0,0.0,0.0,0.0,0.0,0.0,0.0,0.0,0.0,0.0,0.0,0.0,0.0,0.0,0.0,0.0,0.0,0.0,0.0,0.0,0.0,0.0,0.0,0.0,0.0,0.0,0.0,0.0,0.0,0.0,0.0,0.0,0.0,0.0,0.0,0.0,0.0,0.0,0.0,0.0,0.0,0.0,0.0,0.0,0.0,0.0,0.0,0.0,0.0,0.0,0.0,0.0,0.0,0.0,0.0,0.0,0.0,0.0,0.0,0.0,0.0,0.0,0.0,0.0,0.0,0.0,0.0,0.0,0.0,0.0,0.0,0.0,0.0,0.0,0.0,0.0,0.0,0.0,0.0,0.0,0.0,0.0,0.0,0.0,0.0,0.0,0.0,0.0,0.0,0.0,-3.8615,-3.9605,-4.0239,-4.0469,-4.1431,-4.2248,-4.28,-4.3057,-4.368,-4.4844,0.0,0.0,0.0,0.0,0.0,0.0,0.0,0.0,0.0,0.0,0.0,0.0,0.0,0.0,0.0,0.0,0.0,0.0,0.0,0.0,0.0,0.0,0.0,0.0,0.0,0.0,0.0,0.0,0.0,0.0,0.0,0.0,0.0,0.0,0.0,0.0,0.0,0.0,0.0,0.0,0.0,0.0,0.0,0.0,0.0,0.0,0.0,0.0,0.0,0.0,0.0,0.0,0.0,0.0,0.0,0.0,0.0,0.0,0.0,0.0,0.0,0.0,0.0,0.0,0.0,0.0,0.0,0.0,0.0,0.0,0.0,0.0,0.0,0.0,0.0,0.0,0.0,0.0,0.0,0.0,0.0,0.0,0.0,0.0,0.0,0.0,0.0,0.0,0.0,0.0,0.0,0.0,0.0,0.0,0.0,0.0,0.0,0.0,0.0,0.0,0.0,0.0,-3.7871,-3.8823,-3.9685,-4.0412,-4.1453,-4.2102,-4.2088,-4.2221,-4.2325,0.0,0.0,0.0,0.0,0.0,0.0,0.0,0.0,0.0,0.0,0.0,0.0,0.0,0.0,0.0,0.0,0.0,0.0,0.0,0.0,0.0,0.0,0.0,0.0,0.0,0.0,0.0,0.0,0.0,0.0,0.0,0.0,0.0,0.0,0.0,0.0,0.0,0.0,0.0,0.0,0.0,0.0,0.0,0.0,0.0,0.0,0.0,0.0,0.0,0.0,0.0,0.0,0.0,0.0,0.0,0.0,0.0,0.0,0.0,0.0,0.0,0.0,0.0,0.0,0.0,0.0,0.0,0.0,0.0,0.0,0.0,0.0,0.0,0.0,0.0,0.0,0.0,0.0,0.0,0.0,0.0,0.0,0.0,0.0,0.0,0.0,0.0,0.0,0.0,0.0,0.0,0.0,0.0,0.0,0.0,0.0,0.0,0.0,0.0,0.0,0.0,0.0,0.0,-3.8906,-3.97,-4.0258,-4.0469,-4.0912,-4.1421,-4.2058,-4.1169,-4.1632,-4.4089,0.0,0.0,0.0,0.0,0.0,0.0,0.0,0.0,0.0,0.0,0.0,0.0,0.0,0.0,0.0,0.0,0.0,0.0,0.0,0.0,0.0,0.0,0.0,0.0,0.0,0.0,0.0,0.0,0.0,0.0,0.0,0.0,0.0,0.0,0.0,0.0,0.0,0.0,0.0,0.0,0.0,0.0,0.0,0.0,0.0,0.0,0.0,0.0,0.0,0.0,0.0,0.0,0.0,0.0,0.0,0.0,0.0,0.0,0.0,0.0,0.0,0.0,0.0,0.0,0.0,0.0,0.0,0.0,0.0,0.0,0.0,0.0,0.0,0.0,0.0,0.0,0.0,0.0,0.0,0.0,0.0,0.0,0.0,0.0,0.0,0.0,0.0,0.0,0.0,0.0,0.0,0.0,0.0,0.0,0.0,0.0,0.0,0.0,0.0,0.0,0.0,0.0,-3.9293,-3.9509,-3.9642,-3.9969,-4.0466,-4.0828,-4.1014,-4.0262,-4.0652,-4.2724,0.0,0.0,0.0,0.0,0.0,0.0,0.0,0.0,0.0,0.0,0.0,0.0,0.0,0.0,0.0,0.0,0.0,0.0,0.0,0.0,0.0,0.0,0.0,0.0,0.0,0.0,0.0,0.0,0.0,0.0,0.0,0.0,0.0,0.0,0.0,0.0,0.0,0.0,0.0,0.0,0.0,0.0,0.0,0.0,0.0,0.0,0.0,0.0,0.0,0.0,0.0,0.0,0.0,0.0,0.0,0.0,0.0,0.0,0.0,0.0,0.0,0.0,0.0,0.0,0.0,0.0,0.0,0.0,0.0,0.0,0.0,0.0,0.0,0.0,0.0,0.0,0.0,0.0,0.0,0.0,0.0,0.0,0.0,0.0,0.0,0.0,0.0,0.0,0.0,0.0,0.0,0.0,0.0,0.0,0.0,0.0,0.0,0.0,0.0,0.0,0.0,0.0,-3.9199,-3.8594,-3.8315,-3.9104,-4.0023,-4.0246,-3.9359,-3.9401,-3.9496,-3.9585,0.0,0.0,0.0,0.0,0.0,0.0,0.0,0.0,0.0,0.0,0.0,0.0,0.0,0.0,0.0,0.0,0.0,0.0,0.0,0.0,0.0,0.0,0.0,0.0,0.0,0.0,0.0,0.0,0.0,0.0,0.0,0.0,0.0,0.0,0.0,0.0,0.0,0.0,0.0,0.0,0.0,0.0,0.0,0.0,0.0,0.0,0.0,0.0,0.0,0.0,0.0,0.0,0.0,0.0,0.0,0.0,0.0,0.0,0.0,0.0,-2.6693,-2.4058,0.0,0.0,0.0,0.0,0.0,0.0,0.0,0.0,0.0,0.0,0.0,0.0,0.0,0.0,0.0,0.0,0.0,0.0,0.0,0.0,0.0,0.0,0.0,0.0,0.0,0.0,0.0,0.0,0.0,0.0,0.0,0.0,0.0,0.0,0.0,0.0,0.0,0.0,0.0,0.0,-3.8696,-3.8366,-3.8146,-3.8339,-3.9157,-3.9345,-3.8541,-3.8524,-3.8883,-3.9557,-3.9146,0.0,0.0,0.0,0.0,0.0,0.0,0.0,0.0,0.0,0.0,0.0,0.0,0.0,0.0,0.0,0.0,0.0,0.0,0.0,0.0,0.0,0.0,0.0,0.0,0.0,0.0,0.0,0.0,0.0,0.0,0.0,0.0,0.0,0.0,0.0,0.0,0.0,0.0,0.0,0.0,0.0,0.0,0.0,0.0,0.0,0.0,0.0,0.0,0.0,0.0,0.0,0.0,0.0,0.0,0.0,0.0,0.0,0.0,0.0,-2.9738,-2.798,0.0,0.0,0.0,0.0,0.0,0.0,0.0,0.0,0.0,0.0,0.0,0.0,0.0,0.0,0.0,0.0,0.0,0.0,0.0,0.0,0.0,0.0,0.0,0.0,0.0,0.0,0.0,0.0,0.0,0.0,0.0,0.0,0.0,0.0,0.0,0.0,0.0,0.0,0.0,0.0,-3.8606,-3.8041,-3.7556,-3.7526,-3.8272,-3.8599,-3.8142,-3.8142,-3.8527,-3.9399,-3.9463,0.0,0.0,0.0,0.0,0.0,0.0,0.0,0.0,0.0,0.0,0.0,0.0,0.0,0.0,0.0,0.0,0.0,0.0,0.0,0.0,0.0,0.0,0.0,0.0,0.0,0.0,0.0,0.0,0.0,0.0,0.0,0.0,0.0,0.0,0.0,0.0,0.0,0.0,0.0,0.0,0.0,0.0,0.0,0.0,0.0,0.0,0.0,0.0,0.0,0.0,0.0,0.0,0.0,-3.1334,-3.1716,-3.2348,-3.2402,-3.323,-3.4497,-3.3095,-3.2683,-3.2777,-3.0275,0.0,0.0,0.0,0.0,0.0,0.0,0.0,0.0,0.0,0.0,0.0,0.0,0.0,0.0,0.0,0.0,0.0,0.0,0.0,0.0,0.0,0.0,-3.6826,-3.7367,-3.821,-3.8649,-3.7826,0.0,0.0,0.0,0.0,0.0,0.0,0.0,0.0,0.0,0.0,0.0,-3.8611,-3.7829,-3.7218,-3.7147,-3.7839,-3.8234,-3.8027,-3.8142,-3.8469,-3.9027,-3.9817,-3.9981,0.0,0.0,0.0,0.0,0.0,0.0,0.0,0.0,0.0,0.0,0.0,0.0,0.0,0.0,0.0,0.0,0.0,0.0,0.0,0.0,0.0,0.0,0.0,0.0,0.0,0.0,0.0,0.0,0.0,0.0,0.0,0.0,-2.4678,-2.6001,0.0,0.0,0.0,0.0,0.0,0.0,0.0,0.0,0.0,0.0,0.0,0.0,0.0,-3.0168,-3.111,-3.3441,-3.4798,-3.5172,-3.631,-3.7156,-3.7658,-3.7226,-3.7416,-3.8034,-3.7804,0.0,-3.3876,-3.2411,0.0,0.0,0.0,0.0,0.0,0.0,0.0,0.0,0.0,0.0,0.0,0.0,0.0,0.0,0.0,0.0,0.0,0.0,0.0,0.0,0.0,0.0,-3.9414,-3.9494,-4.0179,-4.0797,-4.0668,-3.9291,-3.8177,-3.8552,-4.0281,-4.1886,0.0,0.0,0.0,0.0,0.0,0.0,-3.8422,-3.8218,-3.8199,-3.8116,-3.8786,-3.8898,-3.8065,-3.8681,-3.8854,-3.82,-3.8387,-3.8832,-3.9533,-3.985,0.0,0.0,0.0,0.0,0.0,0.0,0.0,0.0,0.0,0.0,0.0,0.0,0.0,0.0,0.0,0.0,0.0,0.0,0.0,0.0,0.0,0.0,0.0,0.0,0.0,0.0,0.0,0.0,0.0,-2.3698,-2.4587,-2.5464,-2.5135,-2.4846,0.0,0.0,0.0,0.0,0.0,0.0,0.0,0.0,0.0,-3.0516,-3.1549,-3.2684,-3.3977,-3.5882,-3.6872,-3.7039,-3.7932,-3.8227,-3.801,-3.7771,-3.7582,-3.7367,-3.7987,-3.7507,-3.6203,-3.529,-3.4365,-3.3277,0.0,0.0,0.0,0.0,-2.5268,-2.5013,-2.762,-3.2324,-3.6934,-3.5107,0.0,0.0,0.0,0.0,0.0,0.0,0.0,-3.6084,-3.6292,-3.8021,-3.9869,-4.0497,-4.0929,-4.1191,-4.1201,-4.0524,-3.9956,-4.0005,-4.0869,-4.2071,-4.3576,-4.3005,0.0,0.0,0.0,-4.0074,-3.9677,-3.9393,-3.9197,-3.9094,-3.8946,-3.8854,-3.8902,-3.9249,-3.9499,-3.958,-3.9638,-3.9603,-3.9487,-4.0485,-4.0806,0.0,0.0,0.0,0.0,0.0,0.0,0.0,0.0,0.0,0.0,0.0,0.0,0.0,0.0,0.0,0.0,0.0,0.0,0.0,0.0,0.0,0.0,0.0,0.0,0.0,0.0,0.0,0.0,-2.47,-2.5449,-2.5601,-2.6002,-2.6157,0.0,0.0,0.0,0.0,0.0,0.0,-2.958,-2.9795,-3.0805,-3.2756,-3.3707,-3.4852,-3.6233,-3.7238,-3.77,-3.7605,-3.7842,-3.7703,-3.7184,-3.7278,-3.704,-3.6662,-3.7654,-3.8093,-3.8048,-3.7489,-3.673,-3.5611,-3.3495,-3.2044,-3.1057,-3.0676,-2.9436,-2.8254,-3.0672,-3.5528,-4.0234,-3.7622,-3.7775,-3.8923,-3.8662,0.0,0.0,0.0,0.0,-3.6672,-3.6965,-3.8529,-4.0208,-4.1001,-4.1191,-4.1191,-4.1191,-4.1195,-4.1198,-4.1203,-4.1201,-4.177,-4.3587,-4.3384,0.0,-4.2685,-4.1745,-4.1067,-4.118,-4.102,-4.0722,-4.0342,-3.9721,-3.9491,-3.9788,-3.9827,-4.0087,-4.0696,-4.0754,-4.0412,-3.9646,-4.0929,-4.0696,-3.8633,0.0,0.0,0.0,0.0,0.0,0.0,0.0,0.0,0.0,0.0,0.0,0.0,0.0,0.0,0.0,0.0,0.0,0.0,0.0,0.0,0.0,0.0,0.0,0.0,0.0,0.0,0.0,0.0,0.0,-2.7754,-2.8771,0.0,0.0,0.0,0.0,-2.9579,-2.9278,-3.028,-3.3162,-3.285,-3.3708,-3.6091,-3.6236,-3.6539,-3.712,-3.7193,-3.7077,-3.6759,-3.6257,-3.6141,-3.6376,-3.6608,-3.7017,-3.7489,-3.8303,-3.8662,-3.8633,-3.8418,-3.7694,-3.6756,-3.686,-3.4568,-3.1889,-3.7695,-3.9751,-3.9679,-3.9849,-4.0446,-4.1066,-4.0454,-4.0598,-4.0746,-3.9102,-3.9096,0.0,0.0,-3.7485,-3.7608,-3.8312,-3.98,-4.1131,-4.1191,-4.1191,-4.1191,-4.1191,-4.1191,-4.1199,-4.121,-4.1201,-4.1425,-4.2109,0.0,-4.4561,-4.2296,-4.3951,-4.4723,-4.2591,-4.3027,-4.3117,-4.2091,-4.1948,-4.1525,-4.0546,-4.0448,-4.0467,-4.0506,-4.0623,-4.0544,-4.0179,-4.0361,-4.0656,-4.1007,-4.0364,0.0,0.0,0.0,0.0,0.0,0.0,0.0,0.0,0.0,0.0,0.0,0.0,0.0,0.0,0.0,0.0,0.0,0.0,0.0,0.0,0.0,0.0,0.0,0.0,0.0,0.0,0.0,0.0,-2.7907,-2.9725,0.0,-3.0809,-3.1376,-3.2111,-3.2933,-3.3159,-3.3556,-3.413,-3.4454,-3.4732,-3.4985,-3.5547,-3.5968,-3.6165,-3.618,-3.6461,-3.7023,-3.6774,-3.6826,-3.7074,-3.7162,-3.6851,-3.6274,-3.7511,-3.792,-3.7831,-3.9185,-3.9299,-3.8644,-3.9142,-3.846,-3.7504,-4.0027,-4.0939,-4.0959,-4.0939,-4.1052,-4.117,-4.1,-4.107,-4.1076,-4.0467,-4.0374,-4.0409,-4.0054,-3.9794,-3.9712,-4.0168,-3.9901,-3.9809,-4.0935,-4.1203,-4.0582,-3.8338,-3.963,-4.1208,-4.1198,-4.1199,-4.1268,-4.1481,-4.2187,-4.3183,-4.4531,-4.4177,-4.3735,-4.3685,-4.4064,-4.4202,-4.3806,-4.2593,-4.1635,-4.1243,-4.0549,-4.0111,-4.0111,-4.0169,-4.0095,-3.9947,-3.9993,-3.9577,-3.8652,-3.8634,-3.9029,0.0,0.0,0.0,0.0,0.0,0.0,0.0,0.0,0.0,0.0,0.0,0.0,0.0,0.0,0.0,0.0,0.0,0.0,0.0,0.0,0.0,0.0,0.0,0.0,0.0,-2.8907,-2.9772,-2.8715,-3.1013,-3.2613,-3.2437,-3.3864,-3.4939,-3.5357,-3.5765,-3.5673,-3.4912,-3.5351,-3.529,-3.4699,-3.5273,-3.5576,-3.5622,-3.5608,-3.5948,-3.664,-3.6987,-3.7134,-3.7092,-3.7098,-3.6601,-3.5846,-3.7376,-3.7907,-3.7856,-3.9729,-4.0356,-4.0158,-4.0406,-4.0591,-4.076,-4.109,-4.1208,-4.1194,-4.1194,-4.1194,-4.1201,-4.1207,-4.1081,-4.0953,-4.0965,-4.0829,-4.05,-3.9548,-3.9956,-4.0481,-3.951,-3.9258,-3.9258,-3.9257,-4.013,-4.0335,-3.8026,-3.9455,-4.114,-4.0983,-4.1087,-4.1198,-4.1207,-4.1198,-4.2155,-4.4998,-4.4403,-4.394,-4.4788,-4.486,-4.4824,-4.4827,-4.327,-4.1976,-4.1387,-4.1029,-4.0558,-3.983,-4.0195,-4.0182,-3.9593,-3.969,-3.9151,-3.7904,-3.7738,-3.8048,-3.8865,0.0,0.0,0.0,0.0,0.0,0.0,0.0,0.0,0.0,0.0,0.0,0.0,0.0,0.0,0.0,0.0,0.0,0.0,0.0,0.0,0.0,0.0,0.0,-2.9418,-3.1027,-3.1738,-3.0421,-3.2811,-3.4436,-3.4057,-3.5069,-3.6023,-3.6747,-3.6789,-3.6434,-3.5622,-3.5605,-3.5577,-3.5543,-3.5596,-3.5549,-3.5481,-3.5537,-3.5624,-3.5645,-3.6735,-3.693,-3.6376,-3.6379,-3.6356,-3.6463,-3.8033,-3.8721,-3.8857,-4.0032,-4.0793,-4.1155,-4.0696,-4.079,-4.1203,-4.1168,-4.117,-4.1182,-4.1182,-4.1182,-4.1182,-4.1174,-4.0789,-4.0337,-4.0337,-4.0337,-3.9668,-3.6426,-3.792,-3.9738,-3.6507,-3.7988,-3.955,-3.6411,-3.8151,-4.0504,-4.0489,-4.087,-4.1034,-4.0583,-4.0875,-4.1179,-4.1201,-4.1196,-4.1774,-4.3501,-4.4819,0.0,-4.5836,-4.5414,-4.5092,-4.5103,-4.4127,-4.2779,-4.0992,-4.1947,-4.1761,-3.9712,-4.0729,-4.0706,-3.9144,-3.9444,-3.9471,-3.9133,-3.7849,-3.7581,-3.837,0.0,0.0,0.0,0.0,0.0,0.0,0.0,0.0,0.0,0.0,0.0,0.0,0.0,0.0,0.0,0.0,0.0,0.0,0.0,0.0,0.0,-2.9617,-3.0715,-3.1509,-3.3016,-3.4068,-3.4195,-3.4935,-3.5601,-3.5979,-3.6279,-3.6565,-3.6704,-3.6908,-3.6361,-3.4878,-3.5318,-3.5103,-3.4018,-3.5024,-3.4622,-3.2673,-3.4605,-3.5976,-3.6765,-3.7798,-3.8204,-3.8034,-3.8041,-3.8026,-3.8048,-3.8498,-3.9395,-4.0526,-4.0857,-4.1078,-4.1193,-4.1058,-4.11,-4.116,-4.081,-4.068,-4.0687,-4.0687,-4.0687,-4.07,-4.0694,-3.8965,-3.6861,-3.6872,-3.6872,-3.668,-3.5767,-3.7916,-4.0299,-3.9369,-3.8012,-3.7252,-3.8781,-3.9831,-4.05,-4.0504,-4.0598,-4.066,-4.0527,-4.0596,-4.0807,-4.1148,-4.0926,-4.1681,-4.4634,-4.5677,-4.582,-4.5051,-4.496,-4.5042,-4.5213,-4.4212,-4.3133,-4.2236,-4.1548,-4.0597,-3.9237,-3.9367,-3.91,-3.8273,-3.8358,-3.8196,-3.7753,-3.7235,-3.7268,0.0,0.0,0.0,0.0,0.0,0.0,0.0,0.0,0.0,0.0,0.0,0.0,0.0,0.0,0.0,0.0,0.0,0.0,0.0,0.0,0.0,0.0,-3.0821,-3.2232,-3.3629,-3.4523,-3.5252,-3.5679,-3.5973,-3.634,-3.6926,-3.6821,-3.6841,-3.7187,-3.7152,-3.6484,-3.5038,-3.5358,-3.5191,-3.4333,-3.5151,-3.5399,-3.5126,-3.6683,-3.7593,-3.7827,-3.7556,-3.7399,-3.7444,-3.8283,-3.9761,-4.1521,-4.0272,-4.1101,-4.3335,-4.3335,-4.2492,-4.1187,0.0,0.0,0.0,0.0,-4.0489,-4.0489,-4.0489,-4.0489,-4.0489,-4.0489,-3.9323,-3.7836,-3.7655,-3.6618,-3.5494,-3.5499,-3.6991,-3.8569,-3.8445,-3.7997,-3.8089,-4.0042,-4.05,-4.0485,-4.0504,-4.1081,-4.1373,-4.0649,-4.1649,0.0,-4.1119,-4.187,-4.3316,-4.5298,-4.532,-4.4901,-4.4209,-4.4227,-4.4216,-4.39,-4.3871,-4.3399,-4.2136,-4.1782,0.0,0.0,0.0,-3.9076,-3.8191,-3.795,0.0,0.0,0.0,-3.7106,-3.7565,-3.8185,0.0,0.0,-3.8687,-3.8277,0.0,0.0,0.0,0.0,0.0,0.0,0.0,0.0,0.0,0.0,0.0,0.0,0.0,0.0,0.0,0.0,-3.2328,-3.3833,-3.5355,-3.5656,-3.5776,-3.582,-3.6226,-3.6638,-3.7134,-3.6676,-3.6698,-3.7584,-3.7183,-3.6617,-3.588,-3.5993,0.0,0.0,0.0,-3.6999,-4.0086,-4.0078,-3.9709,-3.8834,-3.6664,-3.5705,-3.6022,-3.7858,-4.1003,-4.4889,-4.2718,-4.35,-4.6292,-4.6292,-4.4297,-4.1197,-4.1206,-4.1179,-4.1072,-4.0713,-4.0583,-4.0583,-4.0583,0.0,0.0,-4.0583,-4.0853,-4.1118,-4.0703,-3.8491,-3.6138,-3.6147,-3.6318,-3.643,-3.6142,-3.8266,-4.0489,-4.05,-4.0504,-4.0508,-4.0508,-4.1716,-4.2467,-4.1303,-4.3508,-4.4641,-4.1598,-4.359,-4.5599,-4.5587,-4.4479,-4.3588,-4.3502,-4.351,-4.3155,-4.227,-4.3513,0.0,-4.1449,-4.2265,-4.1988,-3.9923,-4.0067,-3.9657,-3.842,-3.7766,-3.7255,-3.6844,-3.6766,-3.693,-3.7292,-3.7379,-3.7999,-3.9106,-3.8877,-3.9004,0.0,0.0,0.0,0.0,0.0,0.0,0.0,0.0,0.0,0.0,0.0,0.0,0.0,0.0,0.0,-3.1526,-3.2977,-3.4257,-3.5329,-3.6029,-3.6656,-3.7308,-3.646,-3.6131,-3.6964,-3.5742,-3.5174,-3.5895,-3.5903,-3.6345,-3.7405,-3.8574,-3.8079,-3.5689,-3.5503,-3.6947,-4.0067,-4.0092,-3.9996,-3.9782,-3.6953,0.0,-3.8111,-3.8517,-3.9701,-4.1629,-4.4201,-4.5683,-4.6306,-4.6306,-4.4282,-4.1196,-4.1193,-4.0961,-4.0673,-4.0964,-4.1063,-4.1063,-4.1063,-4.1063,-4.1063,-4.1063,-4.113,-4.1189,-4.1092,-4.0606,0.0,-4.0095,-3.9882,-3.9612,-3.9557,-4.0015,-4.0502,-4.0495,-4.0495,-4.0499,-4.0502,-4.0748,-4.1723,-4.4141,-4.5158,-4.5389,-4.4722,-4.5163,-4.5608,-4.559,-4.4913,-4.417,-4.3586,-4.3479,-4.3596,-4.3883,-4.4114,-4.3751,-4.2577,-4.2207,-4.1222,-3.9295,-3.8347,-3.7756,-3.7453,-3.6539,-3.5951,-3.5865,-3.5839,-3.5871,-3.5943,-3.6633,-3.7036,-3.7325,-3.8244,-3.8676,0.0,0.0,0.0,0.0,0.0,0.0,0.0,0.0,0.0,0.0,0.0,-2.8034,0.0,0.0,-3.1506,-3.3636,-3.4221,-3.4791,-3.5992,-3.6088,-3.6383,-3.727,-3.6732,-3.689,-3.8415,-3.6384,-3.5107,-3.5492,-3.5552,-3.5915,-3.6635,-3.7387,-3.71,-3.5583,-3.7006,-3.852,-4.0091,-4.0079,-4.0087,-4.0104,-3.8589,-3.8977,-4.11,-4.1095,-4.182,-4.3166,-4.5117,-4.6088,-4.6308,-4.6308,-4.528,-4.3739,-4.3497,-4.2369,-4.0879,-4.1112,-4.1188,-4.1191,-4.1191,-4.1191,-4.1191,-4.1191,-4.1191,-4.1191,-4.1191,-4.1191,-4.1202,-4.1208,-4.1636,-4.1906,-4.107,-4.0684,-4.0921,-4.264,-4.3041,-4.2582,-4.0864,-4.119,-4.2319,-4.4028,-4.5026,-4.5603,-4.5603,-4.5586,-4.5495,-4.514,-4.4695,-4.4197,-4.358,-4.3039,-4.2701,-4.2765,-4.2706,-4.2292,-4.1423,-4.1157,-4.0325,-3.856,-3.7809,-3.7238,-3.6803,-3.6011,-3.5622,-3.5622,-3.5622,-3.5808,-3.6197,-3.6586,-3.6975,-3.7347,-3.8201,-3.8814,0.0,0.0,0.0,0.0,0.0,0.0,0.0,0.0,-2.6479,-2.8552,-2.8995,-2.9781,-3.2302,-3.2468,-3.2986,-3.5278,-3.5447,-3.5521,-3.6432,-3.5959,-3.5778,-3.6584,-3.6708,-3.7375,-3.9014,-3.6963,-3.5523,-3.551,-3.5488,-3.5503,-3.5499,-3.5523,-3.5473,-3.5477,-3.79,-3.9232,-3.9176,-3.9771,-4.008,-4.0074,-4.0084,-4.1268,-4.3484,-4.2853,-4.3297,-4.4649,-4.5304,-4.5861,-4.6308,-4.6308,-4.63,-4.6238,-4.5776,-4.4153,-4.1983,-4.1407,-4.1202,-4.1203,-4.1192,-4.1138,-4.0951,-4.0308,-4.0584,-4.1191,-4.1191,-4.1191,-4.1269,-4.1582,-4.2656,-4.3453,-4.239,-4.1823,-4.2236,-4.4954,-4.5343,-4.427,-4.1168,-4.2126,-4.3585,-4.3588,-4.4682,-4.5603,-4.5586,-4.5589,-4.5419,-4.4881,-4.4511,-4.41,-4.3583,-4.2576,-4.1684,-4.1148,-4.1093,-4.0675,-3.9621,-3.9676,-3.9167,-3.7628,-3.7484,-3.715,-3.6433,-3.5898,-3.5622,-3.5622,-3.5622,-3.5926,-3.6552,-3.6552,-3.6903,-3.7636,-3.8126,-3.8797,-2.1956,-2.288,-2.5154,-2.6785,-2.7908,-2.9049,0.0,0.0,-2.9121,-2.9578,-3.0993,-3.2201,-3.2542,-3.3508,-3.4312,-3.4457,-3.5948,-3.676,-3.5759,-3.5564,-3.5569,-3.5634,-3.5649,-3.5759,-3.5959,-3.5724,-3.5519,-3.5514,-3.5474,-3.5494,-3.5489,-3.5514,-3.5513,-3.5508,-3.583,-3.6009,-3.6032,-3.8743,-4.0093,-4.0097,-4.0092,-4.1278,-4.3417,-4.0528,-3.9918,-4.1229,-4.4265,-4.5861,-4.6308,-4.6308,-4.63,-4.6238,-4.5776,-4.5401,-4.4788,-4.2163,-4.1199,-4.1198,-4.1202,-4.0934,-4.0091,-3.7118,-3.8427,-4.1191,-4.1191,-4.1191,-4.1504,-4.3008,-4.3555,-4.3961,-4.5078,-4.5336,-4.5354,-4.5545,-4.4468,-4.2859,-4.091,-4.303,-4.531,-4.5312,-4.5466,-4.5601,-4.5603,-4.5611,-4.557,-4.5514,-4.4952,-4.4308,-4.3597,-4.2573,-4.1699,-4.1167,-4.1089,-4.0339,-3.837,-3.8086,-3.7502,-3.6292,-3.6435,-3.6492,-3.6416,-3.5898,-3.5622,-3.5622,-3.5622,-3.5656,-3.574,-3.574,-3.6024,-3.6567,-3.7309,-3.8018,-2.4931,-2.3395,-2.3826,0.0,-3.0812,-3.118,-3.1268,-3.0324,-2.9767,-3.1185,-3.2053,-3.3142,-3.5016,-3.5869,-3.6447,0.0,-3.5904,-3.554,-3.7466,-3.6466,-3.5504,-3.5504,-3.5089,-3.4999,-3.5454,-3.5481,-3.5511,-3.5511,-3.5523,-3.5493,-3.5496,-3.5523,-3.5529,-3.548,-3.548,-3.5501,-3.5522,-3.8573,-4.0097,-4.0081,-4.0779,-4.1094,-4.1138,-4.1373,-4.1772,-4.2366,-4.4614,-4.4588,-4.2937,-4.3214,-4.4492,-4.6088,-4.3899,-4.3036,-4.2854,-4.135,-4.0788,-4.0788,-4.0789,-4.0665,-4.028,-3.8876,-3.8829,-3.9563,-4.0812,-4.1113,-4.1191,-4.2012,-4.2929,-4.3868,-4.4796,-4.4943,-4.4722,-4.4264,-4.4366,-4.4366,-4.3621,-4.3044,-4.2624,-4.2646,-4.4256,-4.5605,-4.5611,-4.5607,-4.5331,-4.4496,-4.4374,-4.4162,-4.3572,-4.2555,-4.1346,-3.9871,-3.8848,-3.7896,-3.7043,-3.6411,-3.5936,-3.5612,-3.5814,-3.5928,-3.5924,-3.5314,-3.4962,-3.4962,-3.4539,-3.4336,-3.4336,-3.4601,-3.5098,-3.5798,-3.6629,-3.7443,-2.6093,0.0,0.0,-3.0268,-3.2543,-3.3183,-3.2393,-3.1632,-3.1478,-3.3072,-3.3407,-3.4326,-3.7416,-3.7914,-3.8251,-3.9203,-3.6852,-3.5784,-3.8469,-3.724,-3.6028,-3.6028,-3.5477,-3.5314,-3.5695,-3.5613,-3.5512,-3.5495,-3.5502,-3.5523,-3.5533,-3.5487,-3.5504,-3.5504,-3.5504,-3.5679,-3.6107,-3.8495,-3.9805,-3.9968,-4.0802,-4.0806,-4.016,-4.2466,-4.3501,-4.3498,-4.3648,-4.2297,-4.0062,-4.0732,-4.2459,-4.4507,-4.2637,-4.1616,-4.1158,-4.0816,-4.0602,-4.0498,-4.0496,-4.0489,-4.045,-4.0123,-3.945,-3.9006,-4.0351,-4.0848,-4.1016,-4.1426,-4.2358,-4.3376,-4.3972,-4.3989,-4.3679,-4.3006,-4.402,-4.4958,-4.4325,-4.2983,-4.1629,-4.0684,-4.2502,-4.4499,-4.5423,-4.5278,-4.4378,-4.2481,-4.3237,-4.3886,-4.3535,-4.2036,-4.0428,-3.8852,-3.737,-3.6209,-3.5592,-3.5261,-3.4909,-3.449,-3.4956,-3.5145,-3.4996,-3.4634,-3.4346,-3.4201,-3.3533,-3.3263,-3.3406,-3.3865,-3.4463,-3.52,-3.6238,-3.7079,0.0,0.0,-2.9035,-2.9214,-3.2402,-3.5394,-3.5394,-3.5362,-3.5341,-3.5385,-3.543,-3.6216,-3.8832,-3.9373,-3.932,-3.9369,-3.9277,-3.8765,-3.7659,-3.7389,-3.7345,-3.7345,-3.7345,-3.699,-3.6286,-3.5799,-3.5492,-3.5514,-3.5519,-3.5504,-3.5519,-3.5519,-3.5504,-3.5504,-3.5504,-3.6186,-3.7715,-3.8312,-3.8975,-3.9611,-3.9714,-4.0468,-4.1796,-4.2951,-4.3503,-4.3325,-4.0253,-3.8832,-3.8845,-4.0041,-4.0577,-4.0872,-4.2845,-4.2635,-4.1207,-4.1188,-4.0889,-4.05,-4.0504,-4.0489,-4.0315,-3.9219,-3.9642,-4.0485,-3.9851,-4.0283,-4.1191,-4.2109,-4.2342,-4.2518,-4.3236,-4.3333,-4.306,-4.2396,-4.3104,-4.3352,-4.113,-4.3176,-4.4449,-4.1132,-4.0577,-4.1698,-4.5029,-4.4452,-4.2502,-3.9342,-4.1521,-4.3527,-4.3509,-4.073,-3.8761,-3.8733,-3.7781,-3.6238,-3.3981,-3.4874,-3.4672,-3.254,-3.3558,-3.3989,-3.3491,-3.3956,-3.3956,-3.344,-3.2959,-3.2942,-3.3406,-3.3865,-3.4359,-3.4854,-3.6107,-3.7003,0.0,0.0,-3.3355,-3.3353,-3.4463,-3.5484,-3.5532,-3.5503,-3.5971,-3.7707,-3.2704,-2.8484,-3.0147,-3.6093,-3.9983,-3.762,-3.7945,-3.8454,-3.8712,-3.8364,-3.8222,-3.8692,-3.8631,-3.8497,-3.8491,-3.6241,-3.4939,-3.5437,-3.5501,-3.5963,-3.697,-3.7033,-3.6552,-3.555,-3.6476,-3.6812,-3.6291,-3.8939,-3.9731,-3.8635,-3.9073,-4.02,-4.1821,-4.0789,-4.1488,-4.333,-4.0105,-3.8707,-3.8753,-3.9558,-4.0138,-4.0577,-4.1385,-4.1415,-4.0996,-4.0945,-4.0902,-4.0831,-4.0773,-4.0735,-4.0735,-4.0924,-4.127,-4.1613,-4.1439,-4.1609,-4.1838,-4.165,-4.1936,-4.2344,-4.2502,-4.2483,-4.2178,-4.1277,-4.1373,-4.1428,-4.0677,-4.1407,-4.1876,-4.0711,-3.9842,-3.9675,-4.0813,-4.0634,-3.9937,-3.884,-3.9632,-4.1075,-4.3238,-3.7772,-3.436,-3.6006,-3.4393,-3.3331,-3.3678,-3.3046,-3.2764,-3.3019,-3.3158,-3.3119,-3.2925,-3.2933,-3.2838,-3.2662,-3.2029,-3.1776,-3.1935,-3.2696,-3.3389,-3.4074,-3.5087,-3.6248,0.0,-3.2174,-3.5495,-3.5484,-3.5514,-3.5502,-3.5533,-3.6971,-3.8788,-4.0477,-3.3788,-2.7334,-2.6425,-3.3227,-3.8041,-3.5116,-3.6316,-3.7796,-3.8497,-3.8335,-3.8735,-4.0441,-4.0477,-4.0546,-4.0896,-3.8477,-3.6902,-3.709,-3.661,-3.6814,-3.8131,-3.7954,-3.7364,-3.6362,-3.7297,-3.7303,-3.631,-3.8963,-3.9648,-3.8459,-3.8793,-3.9604,-4.0703,-3.9342,-3.9808,-4.168,-3.9606,-3.8785,-3.8958,-3.95,-3.996,-4.0392,-4.0608,-4.0928,-4.129,-4.1273,-4.1324,-4.1342,-4.0946,-4.0801,-4.0868,-4.1424,-4.1819,-4.2085,-4.2251,-4.2302,-4.2215,-4.1755,-4.1738,-4.1806,-4.1673,-4.134,-4.0908,-4.0219,-3.9969,-4.0004,-4.0419,-4.0494,-4.0367,-3.9924,-3.9245,-3.8707,-3.8701,-3.8681,-3.8707,-3.8701,-3.8054,-3.8598,-4.1409,-3.559,-3.181,-3.3397,-3.2617,-3.219,-3.2769,-3.2769,-3.273,-3.2627,-3.2354,-3.2165,-3.215,-3.1996,-3.1901,-3.1901,-3.1589,-3.1411,-3.1411,-3.2316,-3.3012,-3.3559,-3.455,-3.5632,-3.4727,-3.5474,-3.5481,-3.5499,-3.5517,-3.554,-3.5644,-3.9549,-4.3092,-4.2989,-3.8121,-3.2399,0.0,0.0,-3.4043,-3.2293,-3.4955,-3.7256,-3.7411,-3.762,-3.9022,0.0,0.0,0.0,0.0,0.0,-4.1154,-4.0228,-3.8591,-3.8013,-3.8846,-3.8248,-3.7863,-3.7863,-3.7879,-3.7906,-3.7837,-3.8354,-3.8772,-3.9138,-3.8889,-3.8781,-3.8781,-3.8724,-3.8737,-3.8756,-3.8737,-3.8944,-3.9365,-3.9731,-3.9989,-4.0139,-4.0543,-4.1216,-4.1959,-4.205,-4.209,-4.1984,-4.1116,-4.0799,-4.0781,-4.0873,-4.1456,-4.2161,-4.2363,-4.2401,-4.2383,-4.2382,-4.1718,-4.0967,-4.0825,-4.0134,-3.9427,-3.9273,-3.9065,-3.9142,-4.0126,-4.0415,-4.0117,-3.8927,-3.8709,-3.8693,-3.8695,-3.8707,-3.8707,-3.8707,-3.7033,-3.6464,-3.845,-3.4369,-3.1289,-3.1215,-3.2454,-3.2732,-3.1314,-3.3789,-3.4189,-3.1382,-3.12,-3.1217,-3.1207,-3.119,-3.119,-3.1196,-3.1551,-3.179,-3.1861,-3.2741,-3.3178,-3.3232,-3.4392,-3.5137,-3.5292,-3.5481,-3.5478,-3.5495,-3.5518,-3.603,-3.7976,-3.9455,-4.0076,-3.9013,-3.4938,-3.0911,0.0,0.0,0.0,-3.4028,-3.7591,0.0,-4.0368,-4.0459,0.0,-4.2349,0.0,-4.3743,-4.377,-4.2734,-4.2136,-4.2489,-3.9793,-3.8325,-3.8818,-3.8691,-3.8635,-3.8635,-3.9209,-3.9005,-3.802,-3.8442,-3.903,-3.9703,-3.9832,-3.9877,-3.9858,-3.9054,-3.8952,-3.9369,-3.9212,-3.9384,-3.9774,-3.9973,-4.008,-4.012,-4.0427,-4.0754,-4.1101,-4.1778,-4.2063,-4.2136,-4.2473,-4.2189,-4.195,-4.3261,-4.3836,-4.4025,-4.413,-4.3732,-4.3154,-4.2557,-4.1719,-4.0962,-4.0827,-4.0587,-4.0023,-3.8661,-3.9215,-3.9692,-3.8325,-3.8974,-3.9621,-3.8848,-3.8715,-3.8718,-3.8689,-3.8707,-3.8707,-3.8707,-3.8253,-3.8089,-3.8618,-3.5257,-3.2397,-3.1331,-3.1534,-3.1596,-3.1224,-3.1879,-3.2021,-3.1241,-3.1202,-3.1202,-3.119,-3.119,-3.121,-3.1205,-3.0972,-3.1446,-3.2666,-3.2437,-3.2606,-3.3214,-3.3813,-3.4624,-3.5473,-3.5466,-3.5639,-3.6171,-3.6813,-3.7098,-3.6594,-3.7778,-3.8287,-3.5836,-3.3647,0.0,-3.1106,-3.3511,0.0,0.0,0.0,0.0,-4.0502,-4.0882,-4.1759,0.0,-4.3749,0.0,-4.4106,-4.2921,-4.2206,-4.2361,-4.0307,-3.9237,-3.9804,-3.9553,-3.9437,-3.9437,-3.9833,-3.9844,-3.929,-3.9058,-3.9462,-4.0432,-4.0544,-4.0866,-4.1285,-4.0521,-4.0188,-4.0169,-4.0071,-3.9981,-3.9992,-4.008,-4.0158,-4.0304,-4.0441,-4.0777,-4.1296,-4.2165,-4.2514,-4.2708,-4.3857,-4.3722,-4.3165,-4.3833,-4.4298,-4.4638,-4.477,-4.4473,-4.3962,-4.3148,-4.2283,-4.1431,-4.0905,-4.0179,-3.933,-3.8257,-3.8347,-3.8323,-3.714,-3.8001,-3.8933,-3.8742,-3.8699,-3.8695,-3.87,-3.8695,-3.8707,-3.8707,-3.8711,-3.87,-3.8683,-3.5013,-3.2402,-3.2349,-3.1657,-3.1205,-3.1189,-3.1206,-3.1198,-3.1173,-3.119,-3.1201,-3.1206,-3.1206,-3.1205,-3.1203,-3.1319,-3.1497,-3.1728,-3.2454,-3.303,-3.3451,-3.3682,-3.4678,-3.5529,-3.5504,-3.5824,-3.7074,-3.8387,-3.8236,-3.3987,-3.5745,-3.7282,-3.3624,0.0,-3.3819,-3.3475,-3.5125,-3.5839,-3.3878,0.0,-4.0278,-3.9712,-4.0115,-4.143,-4.3883,-4.3738,-4.349,-4.3734,-4.2605,-4.1555,-4.1066,-4.0252,-4.0133,-4.0961,-4.0425,-4.007,-4.007,-4.0152,-4.0388,-4.0943,-3.9946,-4.0097,-4.1374,-4.1266,-4.1713,-4.2688,-4.2391,-4.1917,-4.1279,-4.1165,-4.0789,-4.0253,-4.0311,-4.044,-4.0592,-4.0527,-4.1027,-4.1893,-4.2643,-4.3008,-4.3316,-4.4893,-4.5009,-4.4374,-4.3739,-4.4028,-4.4699,-4.4893,-4.4793,-4.4462,-4.3782,-4.2845,-4.1816,-4.088,-3.9519,-3.8331,-3.8086,-3.7266,-3.648,-3.6291,-3.7212,-3.8191,-3.8603,-3.87,-3.8695,-3.8706,-3.8682,-3.8707,-3.8707,-3.8692,-3.8704,-3.8711,-3.4659,-3.2287,-3.365,-3.2453,-3.1531,-3.1549,-3.1339,-3.1192,-3.1215,-3.1193,-3.1192,-3.1216,-3.1199,-3.1324,-3.1538,-3.2307,-3.1989,-3.061,-3.2539,-3.3645,-3.3906,-3.4158,-3.532,-3.5519,-3.5504,-3.5804,-3.7098,-3.8387,-3.8531,-3.5234,-3.6179,0.0,0.0,-3.3044,-3.3287,-3.2013,-3.3774,-3.5652,-3.6372,0.0,0.0,0.0,-4.0804,-4.0165,0.0,-4.108,-4.1234,-4.0868,-4.0475,-4.0506,-4.0984,-3.9791,-3.9353,-4.0089,-4.0134,-4.007,-4.007,-4.0394,-4.0856,-4.1635,-4.065,-4.1051,-4.292,-4.2495,-4.263,-4.317,-4.3108,-4.3185,-4.3257,-4.2595,-4.1834,-4.1112,-4.1393,-4.1356,-4.1113,-4.0674,-4.1027,-4.1816,-4.197,-4.2489,-4.3239,-4.4182,-4.4893,-4.5336,-4.522,-4.5355,-4.5584,-4.568,-4.4744,-4.3647,-4.3608,-4.212,-4.0519,-4.0328,-3.9827,-3.915,-3.8359,-3.794,-3.7215,-3.5392,-3.6213,-3.7571,-3.8517,-3.8707,-3.8707,-3.8695,-3.8707,-3.8707,-3.8707,-3.8701,-3.8707,-3.8685,-3.6425,-3.4568,-3.3873,-3.3519,-3.3344,-3.333,-3.2035,-3.1217,-3.1219,-3.1184,-3.1184,-3.1199,-3.1182,-3.1883,-3.3322,-3.3487,-3.3453,-3.3155,-3.2257,-3.2745,-3.4595,-3.597,-3.6823,-3.5504,-3.5804,-3.6379,-3.7195,-3.8166,-3.8181,-3.5644,0.0,0.0,0.0,-3.3185,-3.3548,-3.2645,0.0,0.0,0.0,0.0,0.0,0.0,0.0,0.0,-3.8588,-3.9035,-3.8968,-3.7897,-3.8065,-3.8631,-3.9513,-3.9077,-3.9111,-3.9971,-4.0087,-4.0254,-4.0497,-4.0981,-4.1547,-4.2253,-4.2303,-4.2932,-4.4117,-4.4142,-4.429,-4.4497,-4.4322,-4.4087,-4.3778,-4.3206,-4.2473,-4.1677,-4.2029,-4.2068,-4.1913,-4.1867,-4.2104,-4.2527,-4.2951,-4.3374,-4.3855,-4.4759,-4.5336,-4.5618,-4.5176,-4.5075,-4.5227,-4.5735,-4.4729,-4.337,-4.3211,-4.2087,-4.0722,-4.0063,-3.9384,-3.8746,-3.832,-3.7234,-3.6155,-3.5621,-3.6786,-3.8066,-3.8603,-3.8713,-3.8695,-3.87,-3.8695,-3.8695,-3.8709,-3.8692,-3.8089,-3.6379,-3.5283,-3.4428,-3.3876,-3.381,-3.3792,-3.3818,-3.3015,-3.2535,-3.2553,-3.2553,-3.253,-3.2559,-3.2559,-3.2937,-3.3778,-3.3802,-3.4102,-3.4674,-3.3904,-3.4982,-3.7719,-3.7647,-3.8073,-3.5424,-3.6109,-3.6813,-3.7285,-3.7898,-3.7868,-3.5813,-3.6572,0.0,0.0,-3.3429,-3.4007,-3.3463,0.0,0.0,0.0,0.0,0.0,0.0,0.0,-3.9296,0.0,-3.6877,0.0,-3.5627,-3.5871,-3.6562,-3.7706,-3.8404,-3.9173,-4.0033,-4.0104,-4.0286,-4.0703,-4.1446,-4.2127,-4.2865,-4.3732,-4.4447,-4.4915,-4.539,-4.5591,-4.5585,-4.5254,-4.4734,-4.4064,-4.3723,-4.3032,-4.219,-4.2598,-4.2747,-4.2707,-4.3001,-4.322,-4.3451,-4.391,-4.4198,-4.4506,-4.5295,-4.5661,-4.5686,-4.502,-4.4685,-4.4633,-4.5155,-4.4231,-4.2935,-4.2619,-4.1803,-4.0798,-3.9797,-3.8925,-3.8308,-3.8314,-3.6887,-3.5772,-3.6641,-3.7814,-3.8695,-3.8706,-3.8682,-3.8707,-3.8701,-3.8707,-3.8699,-3.8693,-3.8696,-3.7604,-3.4567,-3.4156,-3.4158,-3.4166,-3.3943,-3.3802,-3.3799,-3.3817,-3.3814,-3.3792,-3.381,-3.3803,-3.3789,-3.3817,-3.3795,-3.3799,-3.4039,-3.4607,-3.5494,-3.6211,-3.7931,-4.0468,-3.9161,-3.923,-3.5184,-3.5998,-3.6656,-3.7255,-3.7898,-3.7868,-3.5929,0.0,0.0,-3.3249,-3.3576,-3.4254,-3.33,0.0,0.0,0.0,0.0,-3.6951,0.0,0.0,0.0,-3.5621,0.0,0.0,-3.5358,-3.443,-3.4526,-3.6445,-3.835,-3.9537,-3.9929,-4.0031,-4.0121,-4.0154,-4.1241,-4.2346,-4.3429,-4.3936,-4.4421,-4.4919,-4.5378,-4.5605,-4.5589,-4.5262,-4.5058,-4.496,-4.4638,-4.3818,-4.2772,-4.3421,-4.3513,-4.3213,-4.312,-4.3621,-4.4275,-4.358,-4.3869,-4.4694,-4.4771,-4.523,-4.5795,-4.5779,-4.5288,-4.454,-4.3708,-4.2613,-4.1667,-4.1644,-4.0585,-3.9485,-3.9365,-3.8998,-3.8645,-3.8641,-3.8512,-3.8361,-3.8442,-3.8603,-3.8707,-3.8707,-3.8707,-3.87,-3.8692,-3.8699,-3.87,-3.8704,-3.8704,-3.7891,-3.5633,-3.5335,-3.5337,-3.5334,-3.4423,-3.3797,-3.3794,-3.3794,-3.3792,-3.3789,-3.3789,-3.3811,-3.3813,-3.3794,-3.3797,-3.3801,-3.4832,-3.5396,-3.551,-3.8562,-4.0203,-4.0511,-4.0342,-4.0361,-3.5674,-3.6552,-3.7195,-3.7838,-3.7322,-3.6817,-3.705,0.0,-3.5784,-3.4883,-3.492,-3.4856,-3.4013,0.0,0.0,0.0,0.0,0.0,-3.5433,0.0,0.0,-3.4422,-3.3821,0.0,0.0,-3.449,-3.5494,-3.6222,-3.7064,-3.8601,-4.1,-4.1233,-4.1681,-4.2462,-4.2392,-4.2954,-4.4229,-4.4375,-4.4523,-4.4719,-4.5321,-4.5586,-4.5586,-4.5243,-4.5096,-4.5074,-4.4482,-4.3959,-4.3573,-4.407,-4.4196,-4.4109,-4.448,-4.4891,-4.5238,-4.4891,-4.5046,-4.5429,-4.5426,-4.5613,-4.5737,-4.4995,-4.4202,-4.3569,-4.366,-4.2283,-4.0775,-4.1108,-4.027,-3.9239,-3.9016,-3.881,-3.8689,-3.8713,-3.8695,-3.8695,-3.8695,-3.8701,-3.8695,-3.8709,-3.7654,-3.7165,-3.8471,-3.7633,-3.6784,-3.6766,-3.6768,-3.6463,-3.5611,-3.5512,-3.5512,-3.5512,-3.5097,-3.4807,-3.4807,-3.4807,-3.4807,-3.4807,-3.4807,-3.4807,-3.4807,-3.4807,-3.4831,-3.4812,-3.5281,-3.6487,-3.8504,-3.986,-4.0506,-4.0477,-3.9807,-3.985,-3.5976,-3.6609,-3.6956,-3.8098,-3.7263,-3.6565,0.0,0.0,-3.5784,-3.5896,-3.5638,-3.515,-3.4317,0.0,0.0,0.0,0.0,-3.4611,-3.4292,-3.4848,-3.5065,0.0,0.0,-3.2971,-3.2882,-3.4337,-3.5318,-3.5272,-3.5841,-3.7425,-4.0164,-4.1477,-4.2562,-4.3392,-4.2946,-4.3175,-4.4232,-4.4485,-4.4631,-4.4757,-4.5322,-4.5586,-4.5586,-4.5243,-4.5096,-4.5074,-4.4455,-4.4117,-4.4028,-4.4535,-4.4682,-4.4657,-4.538,-4.5738,-4.5834,-4.5873,-4.5919,-4.5956,-4.5964,-4.5858,-4.5538,-4.4365,-4.3365,-4.2633,-4.2886,-4.1529,-4.0019,-4.0405,-3.9835,-3.9044,-3.875,-3.8707,-3.8707,-3.8707,-3.8707,-3.8707,-3.8707,-3.8707,-3.87,-3.8701,-3.7772,-3.7131,-3.7659,-3.6489,-3.5512,-3.5501,-3.4645,-3.4366,-3.5372,-3.5501,-3.5493,-3.5493,-3.5496,-3.5495,-3.5495,-3.5495,-3.5495,-3.5495,-3.5495,-3.5495,-3.5495,-3.5514,-3.551,-3.549,-3.5493,-3.7137,-4.0501,-4.0506,-4.0511,-4.05,-3.9931,-4.0123,-3.5805,-3.5956,-3.5575,-3.7838,-3.8052,-3.7775,0.0,0.0,0.0,-3.5644,-3.5363,-3.5007,-3.372,0.0,0.0,0.0,0.0,0.0,-3.5612,-3.6286,0.0,0.0,0.0,-3.1749,-3.4397,-3.3723,-3.3158,-3.3131,-3.5013,-3.6219,-3.6232,-4.0097,-4.2158,-4.1818,-4.2388,-4.2812,-4.3112,-4.4111,-4.4776,-4.5096,-4.5438,-4.5586,-4.5586,-4.5243,-4.5096,-4.5074,-4.4732,-4.4392,-4.4058,-4.4787,-4.4896,-4.4676,-4.5476,-4.5834,-4.593,-4.6046,-4.6095,-4.6102,-4.6102,-4.5764,-4.516,-4.4265,-4.3137,-4.1908,-4.079,-3.9917,-3.9312,-3.9312,-3.9016,-3.8707,-3.8707,-3.8707,-3.8707,-3.8707,-3.8707,-3.8707,-3.8707,-3.8707,-3.87,-3.8691,-3.9653,-3.9389,-3.6103,-3.5511,-3.5503,-3.5504,-3.2612,-3.1684,-3.507,-3.5507,-3.5493,-3.5493,-3.5493,-3.5493,-3.5493,-3.5493,-3.5493,-3.5493,-3.5498,-3.5504,-3.5493,-3.5504,-3.5504,-3.5493,-3.5493,-3.7137,-4.0506,-4.0492,-4.0496,-4.0508,-4.1373,-4.1777,-3.5244,-3.5587,-3.5418,-3.6961,-3.6058,-3.5398,-3.7231,0.0,0.0,0.0,-3.5446,-3.5288,0.0,0.0,0.0,0.0,0.0,0.0,0.0,0.0,0.0,-3.5589,-3.4164,-3.3692,-3.4647,-3.5036,-3.5853,-3.7316,-3.8286,-3.8889,-3.8888,-4.3658,-4.543,-4.3378,-4.3577,-4.4128,-4.4953,-4.4953,-4.4988,-4.5096,-4.5438,-4.5586,-4.5605,-4.5495,-4.5438,-4.5419,-4.5096,-4.4853,-4.4762,-4.4988,-4.5084,-4.5124,-4.5611,-4.5911,-4.6018,-4.5985,-4.6015,-4.597,-4.5016,-4.4546,-4.4178,-4.2812,-4.1702,-4.0857,-4.0452,-3.9861,-3.9239,-3.8958,-3.8799,-3.8707,-3.8707,-3.8707,-3.8707,-3.8707,-3.8707,-3.8707,-3.8707,-3.8715,-3.8701,-3.8702,-3.7822,-3.6747,-3.5682,-3.5496,-3.5499,-3.5501,-3.4589,-3.4274,-3.5361,-3.5501,-3.5493,-3.5493,-3.5493,-3.5493,-3.5493,-3.5493,-3.5493,-3.5493,-3.5493,-3.6526,-3.8821,-3.6719,-3.6735,-3.9334,-3.9392,-3.9917,-4.0975,-4.0985,-4.0818,-4.0525,-4.1393,-4.1489,0.0,-3.4606,-3.4421,-3.6207,-3.5577,0.0,0.0,0.0,0.0,0.0,0.0,0.0,0.0,0.0,0.0,0.0,0.0,0.0,0.0,0.0,0.0,-3.5776,0.0,0.0,-3.3884,-3.4836,-3.6667,-3.9473,-4.0713,-4.1403,-4.1363,-4.4639,-4.5678,-4.3868,-4.4225,-4.489,-4.5723,-4.5312,-4.5096,-4.5096,-4.5438,-4.5704,-4.588,-4.6031,-4.6259,-4.6509,-4.5994,-4.57,0.0,-4.5434,-4.5333,-4.53,-4.5703,-4.5742,-4.557,-4.5488,-4.5211,-4.4729,-4.3838,-4.3354,-4.2869,-4.1557,-4.0533,-3.9748,-3.9731,-3.9416,-3.9016,-3.8768,-3.9043,-3.8992,-3.7278,-3.7993,-3.9008,-3.8477,-3.8627,-3.8943,-3.8943,-3.8995,-3.9102,-3.9334,-3.8288,-3.699,-3.5733,-3.5504,-3.5507,-3.5501,-3.5507,-3.5507,-3.5495,-3.5488,-3.5493,-3.5493,-3.5622,-3.5699,-3.5699,-3.5681,-3.5693,-3.5693,-3.6914,-3.8581,-4.0684,-3.75,-3.7437,-4.114,-4.1201,-4.1831,-4.3119,-4.2466,-4.1945,-4.1603,-4.145,-4.1258,0.0,0.0,0.0,0.0,0.0,0.0,0.0,0.0,0.0,0.0,0.0,0.0,0.0,0.0,0.0,0.0,0.0,0.0,0.0,-3.7482,0.0,0.0,-3.6237,-3.5307,-3.3155,-3.4029,-3.6334,-4.0138,-4.2415,-4.3615,-4.3526,-4.3421,-4.3433,-4.3553,-4.4339,-4.4993,-4.5494,-4.523,-4.5094,-4.5087,-4.5438,-4.584,-4.6291,-4.6685,-4.7261,-4.7914,-4.7145,-4.6608,-4.623,-4.5916,-4.5553,-4.5207,-4.563,-4.5312,-4.4607,-4.4579,-4.3824,-4.2783,-4.2664,-4.2146,-4.1362,-4.0477,-3.946,-3.8597,-3.8701,-3.8701,-3.8701,-3.8707,-3.9573,-3.9535,-3.5297,-3.7039,-3.9552,-3.8165,-3.8614,-3.9312,-3.9312,-3.9467,-3.9772,-4.0329,-4.0463,-3.9444,-3.6093,-3.5504,-3.5493,-3.5504,-3.5608,-3.5641,-3.5526,-3.5493,-3.5493,-3.5526,-3.5803,-3.6009,-3.6001,-3.5989,-3.5988,-3.5996,-3.9033,-4.0838,-4.0838,-3.7959,-3.7891,-4.1145,-4.1437,-4.3125,-4.6308,-4.457,-4.3602,-4.3316,-4.159,-4.1193,-3.2454,0.0,-3.3475,-3.5288,-3.5424,-3.5483,0.0,0.0,0.0,0.0,0.0,0.0,0.0,0.0,0.0,0.0,0.0,0.0,-3.7263,0.0,0.0,-3.8157,-3.7401,-3.7059,-3.7741,-3.869,-4.0441,-4.3309,-4.4646,-4.481,-4.3582,-4.265,-4.2778,-4.3992,-4.3703,-4.3862,-4.4512,-4.4909,-4.5014,-4.4859,-4.5481,-4.587,-4.6076,-4.632,-4.6538,-4.6672,-4.6129,-4.5914,-4.5896,-4.5712,-4.5326,-4.4824,-4.4835,-4.4378,-4.366,-4.3374,-4.3063,-4.2623,-4.1387,-4.0828,-4.0421,-3.8718,-3.7853,-3.7698,-3.8822,-3.8943,-3.8692,-3.8707,-3.9574,-4.0121,-3.8449,-3.8945,-3.9769,-3.926,-3.9364,-3.9524,-3.9524,-3.9567,-3.964,-3.9776,-4.017,-3.9438,-3.607,-3.5489,-3.5498,-3.5512,-3.6598,-3.6944,-3.5661,-3.5498,-3.5537,-3.5641,-3.5871,-3.6009,-3.5996,-3.5991,-3.6008,-3.6003,-3.677,-3.7219,-3.7219,-3.9,-4.0359,-4.1186,-4.3767,-4.5508,-4.6308,-4.4902,-4.3766,-4.285,-4.2116,-4.1492,-3.2222,-3.3135,-3.4149,-3.5598,-3.5569,-3.5461,0.0,0.0,0.0,0.0,0.0,0.0,0.0,0.0,0.0,0.0,-3.5466,0.0,0.0,0.0,-3.7233,-3.8355,-3.7714,-3.8025,-4.0352,-4.0679,-4.185,-4.4397,-4.5022,-4.4871,-4.3862,-4.3043,-4.2959,-4.3865,-4.3647,-4.38,-4.4391,-4.47,-4.4712,-4.4451,-4.4993,-4.5397,-4.5693,-4.6102,-4.6527,-4.6873,-4.6417,-4.6262,-4.6242,-4.5499,-4.4967,-4.4557,-4.3946,-4.309,-4.2104,-4.1566,-4.0865,-4.0041,-3.9046,-3.8715,-3.8532,-3.7479,-3.6877,-3.6738,-3.7536,-3.8061,-3.8541,-3.9309,-3.9269,-3.8826,-3.8206,-3.8839,-3.947,-3.8836,-3.9353,-4.0024,-4.0024,-4.0005,-4.0018,-4.0018,-4.0271,-3.9961,-3.8228,-3.73,-3.6743,-3.6666,-3.7425,-3.767,-3.6752,-3.6017,-3.5619,-3.5699,-3.5883,-3.5999,-3.6005,-3.5993,-3.5992,-3.5996,-3.5996,-3.6719,-3.832,-4.0195,-4.1191,-4.1191,-4.3027,-4.4336,-4.5117,-4.4687,-4.3906,-4.2773,-4.1947,-4.1273,-3.2247,-3.32,-3.4404,-3.5539,-3.5385,-3.5141,0.0,0.0,0.0,0.0,0.0,0.0,0.0,0.0,0.0,0.0,0.0,0.0,-3.8013,-3.7403,-3.721,-3.8031,-3.7877,-3.8706,-4.1273,-4.1207,-4.2024,-4.4438,-4.4716,-4.4647,-4.4362,-4.3906,-4.3605,-4.3582,-4.3767,-4.4069,-4.4501,-4.4501,-4.4346,-4.4042,-4.4487,-4.4937,-4.5438,-4.607,-4.6736,-4.7407,-4.6991,-4.6733,-4.6454,-4.5169,-4.4406,-4.3934,-4.2862,-4.1608,-4.0323,-3.9619,-3.8423,-3.7112,-3.6855,-3.6696,-3.6597,-3.6597,-3.6213,-3.5832,-3.6007,-3.6746,-3.7909,-3.9631,-3.8707,-3.7147,-3.6969,-3.8116,-3.9092,-3.8242,-3.9301,-4.0489,-4.0489,-4.0508,-4.0543,-4.0543,-4.0539,-4.0596,-4.0773,-3.9336,-3.8125,-3.7943,-3.7877,-3.781,-3.7656,-3.6647,-3.5869,-3.5718,-3.5834,-3.5941,-3.5994,-3.5996,-3.5996,-3.5996,-3.5996,-3.7559,-4.1055,-4.1191,-4.1191,-4.1191,-4.1191,-4.2168,-4.4101,-4.4336,-4.3965,-4.2988,-4.1582,-4.0957,-3.199,-3.2342,-3.2825,-3.2638,-3.258,-3.2898,0.0,0.0,0.0,0.0,0.0,0.0,0.0,0.0,0.0,0.0,0.0,-3.8686,0.0,0.0,-3.9658,-3.8244,-3.8944,-3.9726,-4.0312,-4.1382,-4.2777,-4.4457,-4.5237,-4.5402,-4.4995,-4.4507,-4.4165,-4.3912,-4.3527,-4.3573,-4.4087,-4.4087,-4.4141,-4.4267,-4.4841,-4.5388,-4.5922,-4.6275,-4.6535,-4.6644,-4.6183,-4.561,-4.4993,-4.4543,-4.3416,-4.1894,-4.1138,-4.013,-3.8975,-3.8156,-3.7662,-3.7395,-3.7147,-3.6584,-3.6023,-3.6023,-3.5499,-3.5073,-3.5989,-3.5928,-3.594,-3.7849,-3.7801,-3.7386,-3.8232,-3.8872,-3.9431,-3.9919,-4.0281,-4.0489,-4.0489,-4.06,-4.0677,-4.0677,-4.0716,-4.0754,-4.0793,-3.9023,-3.7605,-3.7572,-3.7344,-3.6863,-3.6065,-3.6599,-3.6724,-3.5795,-3.5641,-3.5679,-3.5974,-3.5996,-3.5996,-3.5996,-3.5996,-3.7559,-4.1055,-4.1191,-4.1191,-4.1191,-4.1191,-4.2754,-4.5898,-4.4512,-4.375,-4.3535,-4.1914,-4.1152,-3.2658,-3.2672,-3.2577,-3.196,-3.1425,0.0,0.0,0.0,0.0,0.0,0.0,0.0,0.0,0.0,-3.4862,-3.7952,0.0,-3.871,-3.961,-3.955,-3.9296,-3.9008,-3.9698,-4.0336,-4.0812,-4.2027,-4.3299,-4.4508,-4.4938,-4.5149,-4.5094,-4.471,-4.4434,-4.4337,-4.4121,-4.4123,-4.4378,-4.4449,-4.4512,-4.4517,-4.4886,-4.5181,-4.5406,-4.5719,-4.5594,-4.5153,-4.5118,-4.4628,-4.3782,-4.3277,-4.2242,-4.0861,-3.9942,-3.8793,-3.7548,-3.6551,-3.6102,-3.5969,-3.5847,-3.5663,-3.5477,-3.5477,-3.5341,-3.5269,-3.5729,-3.5645,-3.545,-3.5825,-3.6122,-3.6483,-3.7408,-3.7778,-3.7988,-3.8354,-3.9196,-3.9908,-3.9908,-4.035,-4.0757,-4.075,-4.0784,-4.0822,-4.0915,-4.0075,-3.9228,-3.8764,-3.8951,-3.8646,-3.7248,-3.797,-3.8104,-3.6804,-3.6134,-3.5836,-3.5996,-3.5996,-3.5996,-3.5996,-3.7773,-3.9531,-4.1133,-4.1191,-4.1191,-4.1191,-4.1191,-4.1973,-4.3535,-4.2734,-4.2344,-4.2324,-4.1562,-4.1191,-3.3099,-3.2935,-3.2539,-3.1924,0.0,0.0,0.0,0.0,0.0,0.0,0.0,0.0,0.0,-3.5855,0.0,-3.8757,-3.8795,-3.9088,-4.0924,-4.0181,-3.9645,-4.0336,-4.0715,-4.1153,-4.1644,-4.2772,-4.3707,-4.4354,-4.4668,-4.4943,-4.5201,-4.491,-4.4758,-4.4758,-4.4831,-4.4847,-4.4839,-4.5027,-4.5027,-4.4843,-4.4941,-4.5031,-4.5074,-4.5098,-4.4747,-4.4114,-4.4176,-4.3557,-4.25,-4.1884,-4.0934,-3.9742,-3.8741,-3.7469,-3.6056,-3.5005,-3.4482,-3.432,-3.4548,-3.475,-3.4958,-3.5168,-3.5396,-3.5578,-3.5348,-3.529,-3.5147,-3.4224,-3.4603,-3.543,-3.6219,-3.6584,-3.6781,-3.6974,-3.8272,-3.9418,-3.9328,-4.0102,-4.0824,-4.08,-4.0848,-4.094,-4.1028,-4.0866,-4.045,-3.9567,-4.0019,-3.9974,-3.8725,-3.9073,-3.9182,-3.844,-3.7687,-3.6894,-3.6074,-3.5996,-3.6348,-3.7168,-3.9726,-4.1191,-4.1191,-4.1191,-4.1191,-4.1191,-4.1191,-4.1191,-4.1191,-4.1191,-4.1191,-4.1191,-4.1191,-4.1191,-3.2681,-3.2464,-3.23,-3.2122,0.0,0.0,0.0,0.0,0.0,0.0,0.0,0.0,0.0,-3.7339,-3.7101,-3.7434,-3.9244,-4.1013,-4.1982,-4.2614,-4.2907,-4.2544,-4.2576,-4.2543,-4.2353,-4.3437,-4.4052,-4.3869,-4.4901,-4.555,-4.5568,-4.5371,-4.5266,-4.5266,-4.5319,-4.5321,-4.5258,-4.5633,-4.5633,-4.5266,-4.5273,-4.5367,-4.5538,-4.4858,-4.4511,-4.4417,-4.3625,-4.2382,-4.0863,-4.0673,-3.9538,-3.7832,-3.7274,-3.6061,-3.4543,-3.3511,-3.3146,-3.3248,-3.4043,-3.4345,-3.4493,-3.5378,-3.5666,-3.5541,-3.4794,-3.4583,-3.4408,-3.3517,-3.3897,-3.4738,-3.5411,-3.6224,-3.707,-3.782,-3.8811,-3.9482,-3.9102,-4.001,-4.0866,-4.0804,-4.0999,-4.1171,-4.1189,-4.0504,-3.9685,-3.8808,-3.873,-3.8906,-3.9276,-3.8943,-3.9254,-4.0779,-4.0878,-3.9512,-3.6289,-3.5996,-3.7383,-4.0625,-4.1055,-4.1191,-4.1191,-4.1191,-4.1191,-4.1191,-4.1191,-4.1191,-4.1191,-4.1191,-4.1191,-4.1191,-4.1191,-4.1191,-3.3237,-3.3408,-3.3441,-3.2744,0.0,0.0,0.0,0.0,0.0,0.0,0.0,0.0,0.0,0.0,-4.0813,-3.9807,-4.1452,-4.2938,-4.3286,-4.3804,-4.4061,-4.3893,-4.3908,-4.3867,-4.3782,-4.4449,-4.4834,-4.4741,-4.54,-4.5796,-4.5796,-4.5726,-4.5648,-4.5618,-4.5677,-4.5675,-4.5614,-4.5306,-4.5036,-4.4798,-4.4884,-4.4675,-4.4219,-4.387,-4.3432,-4.2908,-4.202,-4.0989,-3.985,-3.935,-3.8066,-3.6345,-3.5098,-3.4236,-3.3654,-3.3267,-3.3467,-3.3994,-3.4302,-3.4762,-3.5214,-3.5543,-3.5701,-3.5708,-3.541,-3.438,-3.3295,-3.3225,-3.3838,-3.4555,-3.4815,-3.5512,-3.6234,-3.654,-3.7467,-3.8246,-3.811,-3.9652,-4.0869,-4.0084,-3.9435,-3.9141,-3.9512,-3.9766,-3.9609,-3.873,-3.9512,-4.0098,-3.9746,-4.0019,-4.0469,-4.1133,-3.9258,-3.7422,-3.6113,-3.7988,-3.9805,-4.1113,-4.1191,-4.1191,-4.1191,-4.1191,-4.1191,-4.1191,-4.1191,-4.1191,-4.1191,-4.1191,-4.1191,-4.1191,-4.1191,-4.1191,-3.347,-3.3938,-3.4302,0.0,0.0,0.0,0.0,0.0,0.0,0.0,-3.6095,0.0,0.0,0.0,0.0,0.0,-4.2232,-4.346,-4.3877,-4.3938,-4.408,-4.4459,-4.452,-4.4406,-4.4178,-4.4941,-4.5357,-4.5131,-4.5607,-4.5892,-4.5892,-4.5906,-4.5877,-4.584,-4.589,-4.5733,-4.5382,-4.4886,-4.4292,-4.366,-4.3792,-4.366,-4.3278,-4.2967,-4.2387,-4.1543,-4.0704,-3.9692,-3.8608,-3.8099,-3.6883,-3.5185,-3.3529,-3.2879,-3.284,-3.2528,-3.296,-3.3712,-3.3712,-3.4427,-3.5341,-3.5324,-3.5567,-3.5812,-3.5435,-3.4298,-3.3044,-3.26,-3.2901,-3.3495,-3.4021,-3.495,-3.5766,-3.5757,-3.6609,-3.7463,-3.755,-3.8892,-3.9746,-3.8555,-3.7988,-3.7891,-3.8496,-3.9238,-3.9668,-3.9453,-4.0449,-4.0859,-3.9863,-4.0605,-4.0781,-3.9687,-3.7422,-3.5996,-3.5996,-3.9199,-4.1191,-4.1191,-4.1191,-4.1191,-4.1191,-4.1191,-4.1191,-4.1191,-4.1191,-4.1191,-4.1191,-4.1191,-4.1191,-4.1191,-4.1191,-4.1191,-3.3253,-3.3847,0.0,0.0,0.0,0.0,0.0,0.0,0.0,-3.7545,0.0,-4.0096,-4.0096,-4.0096,0.0,-4.0184,-4.115,-4.2341,-4.3608,-4.3035,-4.2947,-4.4165,-4.4297,-4.4006,-4.3272,-4.4757,-4.5471,-4.474,-4.544,-4.5888,-4.5888,-4.5896,-4.5898,-4.5898,-4.5875,-4.543,-4.4487,-4.4468,-4.3564,-4.1797,-4.1931,-4.2374,-4.3047,-4.2316,-4.1511,-4.0649,-3.9896,-3.8595,-3.6989,-3.6977,-3.6018,-3.4411,-3.281,-3.2187,-3.207,-3.1074,-3.125,-3.2008,-3.2008,-3.3149,-3.4592,-3.4669,-3.5293,-3.5781,-3.4648,-3.4277,-3.3806,-3.1543,-3.0925,-3.13,-3.2972,-3.4633,-3.5905,-3.5905,-3.6612,-3.7363,-3.7637,-3.7676,-3.7344,-3.6211,-3.6914,-3.7871,-3.8476,-3.9023,-3.9766,-4.0976,-4.1172,-4.0762,-3.957,-4.0469,-3.9883,-3.6426,-3.6055,-3.6055,-3.6055,-3.9219,-4.1191,-4.1191,-4.1191,-4.1191,-4.1191,-4.1191,-4.1191,-4.1191,-4.1191,-4.1191,-4.1191,-4.1191,-4.1191,-4.1191,-4.1191,-4.1191,-3.2528,0.0,0.0,0.0,0.0,0.0,0.0,0.0,0.0,0.0,-3.977,-3.9913,-4.0258,-4.0763,-4.1005,-4.0474,-4.1493,-4.2456,-4.2821,-4.291,-4.3038,-4.3412,-4.3508,-4.3451,-4.322,-4.3838,-4.4177,-4.3936,-4.4766,-4.5232,-4.5133,-4.5181,-4.5099,-4.4928,-4.4322,-4.3833,-4.3508,-4.2912,-4.2335,-4.1797,-4.1296,-4.1197,-4.1389,-4.0662,-4.0177,-3.9849,-3.839,-3.7506,-3.6954,-3.5187,-3.3858,-3.2806,-3.1715,-3.1289,-3.125,-3.0957,-3.1387,-3.2148,-3.2143,-3.2853,-3.3838,-3.4275,-3.5137,-3.5703,-3.4141,-3.2832,-3.2011,-3.251,-3.2389,-3.2292,-3.3174,-3.468,-3.5966,-3.5966,-3.6179,-3.6406,-3.6484,-3.6504,-3.6406,-3.6074,-3.6269,-3.6562,-3.6738,-3.6894,-3.7129,-3.748,-3.8906,-4.0117,-4.0605,-4.0976,-4.0801,-3.9766,-3.9668,-3.9668,-3.9668,-4.0605,-4.1191,-4.1191,-4.1191,-4.1191,-4.1191,-4.1191,-4.1191,-4.1191,-4.1191,-4.1191,-4.1191,-4.1191,-4.1191,-4.1191,-4.1108,-4.107,-3.2646,0.0,0.0,0.0,0.0,0.0,0.0,0.0,0.0,0.0,0.0,-4.011,-4.0763,-4.1001,-4.0924,-4.0381,-4.0692,-4.1054,-4.1208,-4.1159,-4.1239,-4.1588,-4.1989,-4.2277,-4.2316,-4.309,-4.3605,-4.3643,-4.4161,-4.4449,-4.4365,-4.4322,-4.4245,-4.4058,-4.3503,-4.3044,-4.2662,-4.2165,-4.1742,-4.1393,-4.1004,-4.0812,-4.0793,-3.9992,-3.9455,-3.9014,-3.6972,-3.6112,-3.5987,-3.3807,-3.2637,-3.2109,-3.123,-3.0898,-3.0898,-3.0898,-3.1445,-3.2148,-3.1797,-3.2441,-3.3418,-3.3457,-3.4316,-3.5078,-3.3789,-3.2695,-3.1953,-3.2305,-3.3144,-3.3867,-3.3496,-3.4687,-3.5996,-3.5996,-3.5994,-3.6006,-3.6006,-3.6009,-3.5994,-3.5994,-3.5992,-3.5996,-3.5996,-3.5996,-3.623,-3.6934,-3.8789,-3.9883,-3.9219,-4.0332,-4.1191,-4.1191,-4.1191,-4.1191,-4.1191,-4.1191,-4.1191,-4.1191,-4.1191,-4.1191,-4.1191,-4.1191,-4.1191,-4.1191,-4.1191,-4.1191,-4.1191,-4.1191,-4.116,-4.113,-4.1384,-4.1492,0.0,0.0,0.0,0.0,0.0,0.0,0.0,0.0,0.0,-3.9804,0.0,-4.0431,-4.1274,-4.0701,-4.0057,-3.9849,-3.9147,-3.8782,-3.9131,-3.8565,-3.8411,-3.9196,-4.0062,-4.0639,-4.0754,-4.2287,-4.3261,-4.324,-4.3379,-4.3437,-4.334,-4.3161,-4.3046,-4.305,-4.2871,-4.2431,-4.1786,-4.1828,-4.1517,-4.08,-4.0847,-4.087,-4.085,-3.9991,-3.908,-3.8041,-3.5714,-3.4656,-3.4449,-3.2851,-3.2148,-3.1992,-3.1211,-3.0898,-3.0898,-3.0898,-3.1406,-3.1973,-3.1172,-3.1894,-3.3047,-3.2324,-3.2949,-3.3887,-3.334,-3.3164,-3.293,-3.1719,-3.3379,-3.5234,-3.3965,-3.4805,-3.5996,-3.5993,-3.6005,-3.6001,-3.6001,-3.5979,-3.5954,-3.5954,-3.5947,-3.5956,-3.5993,-3.6127,-3.6774,-3.8418,-4.0117,-4.0059,-3.6875,-3.9238,-4.1191,-4.1191,-4.1191,-4.1191,-4.1191,-4.1191,-4.1191,-4.1191,-4.1191,-4.1191,-4.1191,-4.1191,-4.1191,-4.1187,-4.1187,-4.1188,-4.1151,-4.1151,-4.1095,-4.1007,-4.1783,-4.2096,0.0,0.0,0.0,0.0,0.0,0.0,0.0,0.0,-3.8222,-3.9659,-3.9973,-3.9958,-3.9951,-3.9288,-3.8644,-3.8446,-3.8278,-3.8197,-3.8339,-3.8204,-3.8207,-3.8501,-3.8762,-3.8923,-3.8962,-4.001,-4.0411,-3.9746,-4.0957,-4.1387,-4.0605,-4.0513,-4.0439,-4.0345,-3.9695,-3.959,-4.0112,-4.0121,-4.0364,-4.0781,-4.0249,-3.9973,-3.9946,-3.9181,-3.7959,-3.6378,-3.5211,-3.4288,-3.3518,-3.2589,-3.1797,-3.1152,-3.0976,-3.0898,-3.0898,-3.0898,-3.1016,-3.1152,-3.0976,-3.1133,-3.1406,-3.123,-3.1387,-3.1601,-3.1484,-3.1445,-3.1914,-3.4258,-3.3496,-3.2539,-3.4844,-3.5723,-3.6005,-3.5988,-3.6009,-3.6001,-3.6001,-3.5785,-3.5611,-3.5611,-3.5612,-3.5696,-3.595,-3.6999,-3.8132,-3.9077,-4.0351,-4.0937,-4.0176,-4.0742,-4.1191,-4.1191,-4.1191,-4.1191,-4.1191,-4.1191,-4.1191,-4.1191,-4.1191,-4.1191,-4.1191,-4.1191,-4.1152,-4.1059,-4.1047,-4.0985,-4.0896,-4.0896,-4.0875,-4.0859,-4.0968,-4.1027,0.0,0.0,0.0,0.0,0.0,0.0,0.0,0.0,-3.8492,-3.919,-3.9019,-3.8741,-3.8752,-3.7859,-3.716,-3.7171,-3.6968,-3.6834,-3.6877,-3.6928,-3.7003,-3.714,-3.7579,-3.7864,-3.7864,-3.8723,-3.9082,-3.8633,-3.9434,-3.9726,-3.9199,-3.9101,-3.9044,-3.8991,-3.8575,-3.857,-3.9015,-3.9085,-3.9338,-3.9743,-3.9369,-3.8949,-3.8541,-3.8146,-3.7012,-3.5273,-3.4406,-3.3529,-3.2612,-3.1788,-3.1165,-3.0755,-3.0755,-3.0755,-3.0755,-3.0755,-3.0755,-3.0755,-3.0755,-3.0755,-3.0755,-3.0755,-3.0774,-3.0813,-3.0872,-3.0832,-3.1152,-3.3027,-3.2266,-3.1309,-3.3105,-3.4771,-3.5962,-3.5796,-3.5758,-3.5757,-3.5757,-3.5622,-3.5565,-3.5718,-3.5661,-3.5678,-3.5957,-3.7569,-3.9146,-4.0111,-4.0801,-4.1191,-4.1191,-4.1191,-4.0879,-4.0039,-4.0703,-4.1191,-4.1191,-4.1191,-4.1191,-4.1191,-4.1191,-4.1191,-4.1191,-4.1193,-4.1131,-4.1001,-4.0927,-4.0877,-4.0792,-4.0792,-4.0773,-4.0773,-4.1152,-4.1277,0.0,0.0,0.0,0.0,0.0,0.0,0.0,-3.9908,-3.8707,-3.8707,-3.8046,-3.755,-3.7746,-3.6742,-3.5946,-3.6133,-3.5791,-3.5526,-3.5603,-3.566,-3.5757,-3.5878,-3.6596,-3.707,-3.707,-3.7851,-3.8301,-3.8164,-3.8281,-3.8301,-3.8164,-3.8047,-3.7988,-3.7988,-3.7991,-3.8067,-3.8202,-3.8326,-3.8443,-3.8601,-3.828,-3.77,-3.6855,-3.6674,-3.5906,-3.461,-3.3537,-3.2663,-3.1912,-3.0978,-3.06,-3.06,-3.06,-3.06,-3.06,-3.06,-3.06,-3.062,-3.0768,-3.0729,-3.062,-3.0775,-3.0756,-3.0697,-3.0807,-3.0721,-3.0669,-3.1166,-3.1108,-3.0972,-3.1265,-3.3213,-3.5172,-3.5443,-3.551,-3.5493,-3.5493,-3.5565,-3.568,-3.5949,-3.6117,-3.6331,-3.6764,-3.8446,-4.0042,-4.1019,-4.1188,-4.1191,-4.1191,-4.1191,-4.0644,-3.9199,-4.0332,-4.119,-4.1155,-4.1189,-4.1191,-4.1172,-4.1191,-4.1191,-4.1191,-4.1174,-4.1112,-4.1001,-4.087,-4.0793,-4.0773,-4.0754,-4.0716,-4.0677,-4.1412,-4.1681,0.0,0.0,0.0,0.0,0.0,0.0,0.0,0.0,-3.8707,0.0,-3.8046,-3.7423,-3.7239,-3.6497,-3.5836,-3.5637,-3.5537,-3.5526,-3.5603,-3.566,-3.5752,-3.5884,-3.6053,-3.6172,-3.6172,-3.6953,-3.7168,-3.6406,-3.7051,-3.7148,-3.6387,-3.6328,-3.6328,-3.6328,-3.6323,-3.6687,-3.7448,-3.7459,-3.785,-3.8583,-3.7077,-3.5893,-3.5019,-3.4204,-3.4119,-3.4525,-3.2871,-3.2073,-3.185,-3.0967,-3.0601,-3.0601,-3.0601,-3.0601,-3.0601,-3.0601,-3.0601,-3.0717,-3.1445,-3.1226,-3.0717,-3.1472,-3.1221,-3.0621,-3.0633,-3.0529,-3.0781,-3.2428,-3.1941,-3.1234,-3.268,-3.2331,-3.2238,-3.4878,-3.5495,-3.5493,-3.5493,-3.5738,-3.5949,-3.6001,-3.7203,-3.864,-4.0011,-4.0644,-4.0979,-4.1028,-4.1128,-4.1191,-4.1191,-4.1191,-4.1113,-4.0879,-4.1055,-4.1136,-4.0952,-4.1106,-4.1152,-4.1035,-4.1133,-4.1191,-4.1191,-4.1089,-4.1013,-4.1001,-4.087,-4.0773,-4.0716,-4.06,-4.0543,-4.0527,-4.0642,-4.0681,0.0,0.0,0.0,0.0,0.0,0.0,-4.1473,0.0,-3.8961,-3.9181,-3.8422,-3.7551,-3.6988,-3.6088,-3.5399,-3.5299,-3.5398,-3.5526,-3.5603,-3.5635,-3.571,-3.5877,-3.5937,-3.5945,-3.5942,-3.6316,-3.6378,-3.5912,-3.6306,-3.6406,-3.6015,-3.5996,-3.5996,-3.5996,-3.5996,-3.6172,-3.6562,-3.6562,-3.6523,-3.6406,-3.5137,-3.4336,-3.3945,-3.299,-3.2779,-3.3099,-3.2247,-3.1588,-3.1076,-3.066,-3.0487,-3.0487,-3.0487,-3.0487,-3.0487,-3.0487,-3.0388,-3.0316,-3.0699,-3.0891,-3.1057,-3.1435,-3.1405,-3.1129,-3.0637,-3.1098,-3.2186,-3.3981,-3.4002,-3.3255,-3.2268,-3.2722,-3.3812,-3.5187,-3.5493,-3.5493,-3.5493,-3.5757,-3.6136,-3.6573,-3.7318,-3.8395,-4.0057,-4.041,-4.0585,-4.0949,-4.1112,-4.1172,-4.1094,-4.1152,-4.1191,-4.1191,-4.112,-4.1042,-4.0958,-4.1036,-4.1052,-4.0996,-4.1133,-4.1175,-4.1088,-4.1041,-4.0966,-4.0893,-4.0796,-4.0731,-4.0696,-4.0581,-4.0489,-4.0489,-4.0489,-4.0489,0.0,0.0,0.0,0.0,0.0,0.0,0.0,0.0,-3.9577,-3.959,-3.8823,-3.7877,-3.7047,-3.608,-3.5427,-3.5496,-3.5522,-3.5468,-3.5276,-3.5488,-3.5623,-3.5513,-3.5724,-3.5883,-3.5875,-3.5907,-3.5893,-3.5773,-3.584,-3.593,-3.5978,-3.5972,-3.5976,-3.5996,-3.5996,-3.5996,-3.5996,-3.5781,-3.5234,-3.4355,-3.3496,-3.3082,-3.3015,-3.2069,-3.1628,-3.1607,-3.1511,-3.1095,-3.0467,-3.0417,-3.0398,-3.0398,-3.0398,-3.0398,-3.0398,-3.0398,-3.0222,-3.0018,-3.0261,-3.0757,-3.1306,-3.1306,-3.1479,-3.159,-3.1015,-3.1802,-3.3263,-3.5014,-3.5501,-3.496,-3.2683,-3.3766,-3.5493,-3.5493,-3.5493,-3.5509,-3.5579,-3.6008,-3.6609,-3.7404,-3.7771,-3.8435,-3.993,-4.0173,-4.0351,-4.0868,-4.1027,-4.1062,-4.0965,-4.1045,-4.1103,-4.1103,-4.1003,-4.0954,-4.0943,-4.0966,-4.1009,-4.1003,-4.1094,-4.1089,-4.0997,-4.0966,-4.0905,-4.0801,-4.0738,-4.0694,-4.0696,-4.0581,-4.0489,-4.0489,-4.0489,-4.0473,0.0,0.0,0.0,0.0,0.0,0.0,0.0,0.0,-4.0561,-3.9769,-3.9155,-3.8499,-3.7623,-3.6784,-3.6334,-3.6579,-3.6031,-3.5295,-3.4391,-3.5199,-3.552,-3.4501,-3.5277,-3.5883,-3.5811,-3.5809,-3.5751,-3.563,-3.563,-3.5701,-3.5888,-3.5909,-3.5937,-3.5996,-3.5996,-3.5996,-3.5996,-3.5176,-3.4336,-3.3457,-3.2656,-3.2194,-3.2042,-3.1107,-3.0649,-3.0583,-3.0564,-3.0506,-3.0398,-3.0398,-3.0398,-3.0398,-3.0398,-3.0398,-3.0398,-3.0398,-3.0222,-3.0113,-3.0948,-3.1268,-3.1306,-3.1306,-3.1479,-3.1737,-3.1943,-3.2436,-3.3256,-3.5007,-3.5507,-3.5455,-3.5301,-3.5378,-3.5493,-3.5493,-3.5493,-3.5554,-3.5742,-3.6659,-3.7635,-3.8377,-3.9199,-4.0015,-4.0823,-4.093,-4.0907,-4.0809,-4.0827,-4.0823,-4.0813,-4.0816,-4.0816,-4.0816,-4.0813,-4.081,-4.0804,-4.0927,-4.1016,-4.0988,-4.1007,-4.1012,-4.1001,-4.087,-4.0808,-4.0804,-4.0731,-4.0712,-4.0696,-4.0581,-4.0489,-4.0489,-4.0489,-4.0356,0.0,0.0,0.0,0.0,0.0,-3.9637,-3.9583,-3.9815,-4.0046,-3.9937,-3.9755,-3.9452,-3.8829,-3.7597,-3.6535,-3.607,-3.5378,-3.477,-3.4439,-3.4751,-3.4866,-3.4537,-3.5282,-3.583,-3.5797,-3.5875,-3.5815,-3.5565,-3.5738,-3.5795,-3.5661,-3.5841,-3.5982,-3.5996,-3.5996,-3.5723,-3.5176,-3.3789,-3.291,-3.2489,-3.1647,-3.0921,-3.0319,-2.9898,-2.9689,-2.966,-2.9621,-2.991,-3.0398,-3.0398,-3.0299,-3.015,-3.015,-3.0047,-2.9962,-2.9962,-2.9799,-2.9663,-2.9964,-3.0542,-3.1099,-3.1099,-3.1737,-3.2564,-3.3032,-3.332,-3.3757,-3.5122,-3.5493,-3.5493,-3.5493,-3.5493,-3.5493,-3.5493,-3.5892,-3.6325,-3.6474,-3.6937,-3.7734,-3.916,-3.9608,-4.0029,-4.0858,-4.0927,-4.0838,-4.0752,-4.0766,-4.0781,-4.0733,-4.0778,-4.0797,-4.0797,-4.0759,-4.0745,-4.0808,-4.0829,-4.0866,-4.0866,-4.0947,-4.0927,-4.0812,-4.0754,-4.0696,-4.062,-4.0581,-4.062,-4.0696,-4.0396,-4.0232,-4.0232,-4.0024,-3.9863,-3.5598,0.0,0.0,0.0,0.0,-3.829,-3.8319,-3.8943,-3.9649,-4.0022,-4.0101,-3.9966,-3.95,-3.8285,-3.7088,-3.6219,-3.5445,-3.4858,-3.454,-3.4785,-3.4893,-3.4599,-3.5291,-3.5785,-3.5746,-3.5795,-3.5776,-3.5622,-3.5795,-3.5815,-3.5622,-3.5815,-3.595,-3.5996,-3.5684,-3.5108,-3.425,-3.2809,-3.1904,-3.1516,-3.067,-2.9931,-2.9317,-2.8956,-2.892,-2.9171,-2.9132,-2.9583,-3.0398,-3.0398,-3.0241,-2.9999,-2.9999,-2.9877,-2.9696,-2.9696,-2.957,-2.9412,-2.9412,-3.0095,-3.0939,-3.0656,-3.1619,-3.2968,-3.3391,-3.355,-3.3839,-3.5043,-3.5304,-3.5239,-3.5335,-3.5624,-3.5911,-3.5911,-3.6526,-3.7257,-3.7661,-3.7838,-3.8313,-3.9552,-3.9941,-4.0345,-4.1193,-4.1024,-4.085,-4.1027,-4.087,-4.0677,-4.0639,-4.0677,-4.0696,-4.0696,-4.0658,-4.0677,-4.0754,-4.0765,-4.0781,-4.0797,-4.0868,-4.0831,-4.0716,-4.0559,-4.0468,-4.0372,-4.0248,-4.0232,-4.0327,-4.0177,-4.0042,-3.9922,-3.969,-3.9661,0.0,0.0,0.0,0.0,0.0,0.0,-3.729,-3.8436,-3.9538,-4.0002,-4.012,-3.9986,-3.9512,-3.8817,-3.8054,-3.7144,-3.6372,-3.5562,-3.4627,-3.5335,-3.5602,-3.4608,-3.5279,-3.5747,-3.563,-3.5553,-3.5592,-3.5784,-3.5746,-3.5726,-3.5784,-3.5778,-3.5853,-3.5996,-3.5057,-3.4156,-3.3311,-3.231,-3.1403,-3.0555,-2.9737,-2.9289,-2.9094,-2.8315,-2.8343,-2.9036,-2.9063,-2.9563,-3.0359,-3.0379,-3.0222,-2.9999,-2.9946,-2.9842,-2.9678,-2.9641,-2.9533,-2.9392,-2.9392,-3.0076,-3.0807,-2.9978,-3.1161,-3.2891,-3.2891,-3.3082,-3.3508,-3.4745,-3.4908,-3.4774,-3.5034,-3.5898,-3.6699,-3.6699,-3.7392,-3.8277,-3.9196,-3.9424,-3.9461,-3.9602,-4.026,-4.1044,-4.1821,-4.1258,-4.0947,-4.1662,-4.1046,-4.0489,-4.0489,-4.0508,-4.0527,-4.0527,-4.0527,-4.06,-4.0735,-4.0713,-4.0723,-4.0785,-4.0739,-4.0696,-4.0681,-4.0308,-4.0101,-4.0081,-3.9775,-3.9599,-3.9599,-3.9901,-3.9901,-3.9599,-3.9595,-3.9852,-3.5568,0.0,0.0,0.0,0.0,0.0,-3.6253,-3.8161,-3.9975,-3.9712,-4.0376,-4.0673,-3.973,-3.9367,-3.8799,-3.7433,-3.5993,-3.4919,-3.462,-3.4806,-3.487,-3.4546,-3.5259,-3.5823,-3.5879,-3.5742,-3.5736,-3.5927,-3.5786,-3.5674,-3.558,-3.5663,-3.5767,-3.5851,-3.438,-3.346,-3.3234,-3.1138,-2.9921,-2.9574,-2.8809,-2.8074,-2.7379,-2.7206,-2.7217,-2.7391,-2.8033,-2.8744,-2.9494,-2.9928,-2.9988,-2.9706,-2.8929,-2.8857,-2.9111,-2.854,-2.8664,-2.9134,-2.933,-2.9701,-3.0033,-2.9953,-3.1264,-3.2891,-3.2891,-3.3676,-3.4649,-3.5009,-3.4977,-3.4939,-3.53,-3.6041,-3.6699,-3.6699,-3.7853,-3.9008,-3.9273,-3.9779,-4.024,-4.0436,-4.061,-4.0795,-4.102,-4.0793,-4.0604,-4.0835,-4.0642,-4.0489,-4.0489,-4.1046,-4.145,-4.145,-4.145,-4.1505,-4.1617,-4.106,-4.0717,-4.0725,-4.0718,-4.0559,-4.0271,-4.0158,-3.9982,-3.9735,-3.9645,-3.9481,-3.9238,-3.9339,-3.9314,-3.9231,-3.9658,-4.0215,0.0,0.0,0.0,0.0,0.0,0.0,-3.5688,-3.7149,-3.86,-3.8925,-3.9558,-3.985,-3.9183,-3.9057,-3.8793,-3.7969,-3.6684,-3.5633,-3.52,-3.5147,-3.5111,-3.501,-3.5426,-3.5771,-3.5868,-3.5723,-3.5552,-3.5393,-3.5149,-3.5144,-3.5527,-3.4905,-3.4681,-3.5039,-3.3817,-3.3006,-3.2663,-3.0791,-2.9644,-2.922,-2.8459,-2.7614,-2.6724,-2.6404,-2.642,-2.6792,-2.7634,-2.8245,-2.8675,-2.9174,-2.9317,-2.913,-2.839,-2.8264,-2.8484,-2.8356,-2.8613,-2.904,-2.931,-2.9532,-2.9729,-2.9939,-3.1002,-3.2229,-3.2229,-3.3165,-3.4245,-3.4357,-3.4921,-3.5634,-3.6224,-3.7083,-3.7777,-3.7777,-3.8815,-3.9796,-3.9796,-4.0162,-4.0543,-4.0658,-4.0639,-4.0735,-4.1085,-4.0777,-4.0623,-4.0989,-4.0719,-4.0489,-4.0489,-4.0931,-4.1258,-4.1258,-4.1258,-4.1293,-4.1366,-4.0809,-4.0454,-4.0454,-4.0327,-4.0139,-3.9901,-3.9754,-3.9599,-3.9408,-3.9275,-3.9109,-3.8933,-3.9036,-3.9036,-3.897,-3.9602,-4.0322,0.0,0.0,0.0,-3.4217,-3.4057,0.0,-3.5375,-3.5927,-3.6486,-3.7796,-3.8146,-3.8172,-3.8125,-3.8117,-3.8155,-3.8263,-3.7674,-3.6928,-3.6122,-3.5938,-3.5853,-3.5815,-3.568,-3.5622,-3.568,-3.5584,-3.5251,-3.4661,-3.4159,-3.4212,-3.4988,-3.3872,-3.3365,-3.3782,-3.3339,-3.2704,-3.1908,-3.0868,-2.9976,-2.9149,-2.8444,-2.7633,-2.6753,-2.5989,-2.6061,-2.684,-2.7572,-2.7871,-2.7884,-2.8126,-2.8291,-2.8317,-2.7961,-2.78,-2.7879,-2.8503,-2.887,-2.9067,-2.931,-2.9532,-2.9731,-2.9908,-3.0556,-3.1295,-3.1405,-3.2184,-3.3119,-3.3487,-3.4831,-3.6381,-3.7294,-3.8326,-3.9181,-3.9277,-3.9912,-4.0489,-4.0489,-4.0489,-4.0489,-4.0489,-4.0489,-4.0739,-4.1527,-4.1008,-4.0758,-4.1546,-4.0989,-4.0489,-4.0489,-4.0566,-4.0642,-4.0642,-4.0608,-4.0592,-4.0592,-4.0252,-4.0042,-4.0042,-3.9775,-3.9576,-3.9552,-3.9264,-3.9099,-3.9063,-3.8815,-3.8744,-3.8836,-3.9063,-3.9081,-3.8854,-3.9753,-4.0543,-3.3355,-3.343,-3.3691,-3.4449,-3.4652,0.0,-3.4866,-3.597,-3.6881,-3.6593,-3.7109,-3.7459,-3.7086,-3.6965,-3.6786,-3.6344,-3.6434,-3.661,-3.6779,-3.6184,-3.593,-3.6449,-3.593,-3.5512,-3.5537,-3.5532,-3.5463,-3.5316,-3.3943,-3.2628,-3.1469,-3.3686,-3.4218,-3.2519,-3.2821,-3.2628,-3.1833,-3.0354,-2.9166,-2.8257,-2.8153,-2.7613,-2.6717,-2.6657,-2.6698,-2.6815,-2.7028,-2.7052,-2.6935,-2.6669,-2.6934,-2.7342,-2.6321,-2.6694,-2.7732,-2.7255,-2.803,-2.933,-2.9392,-2.9532,-2.9713,-2.9748,-3.0349,-3.1214,-3.208,-3.2802,-3.3505,-3.4507,-3.5032,-3.5594,-3.6742,-3.7647,-3.843,-3.9196,-3.9946,-4.0489,-4.0489,-4.0489,-4.0489,-4.0489,-4.0489,-4.0546,-4.0719,-4.0604,-4.0546,-4.0719,-4.0604,-4.0489,-4.0489,-4.1104,-4.1546,-4.1546,-4.1299,-4.1132,-4.1132,-4.0262,-3.9709,-3.9709,-3.9645,-3.9481,-3.9212,-3.9133,-3.8999,-3.8773,-3.8719,-3.9019,-3.9662,-3.9737,-3.9737,-3.9698,-4.1148,-4.1919,-3.2588,-3.2979,-3.3549,-3.3549,-3.3953,0.0,0.0,-3.5195,-3.6025,-3.5708,-3.6038,-3.6207,-3.5741,-3.6007,-3.6161,-3.5783,-3.6215,-3.6402,-3.5797,-3.6119,-3.6694,-3.7368,-3.6719,-3.6166,-3.6094,-3.5743,-3.5334,-3.4937,-3.4,-3.3141,-3.2468,-3.4481,-3.4944,-3.334,-3.3167,-3.2718,-3.1903,-3.0639,-2.957,-2.8757,-2.8707,-2.8001,-2.6771,-2.727,-2.7266,-2.6875,-2.7274,-2.7186,-2.6707,-2.6244,-2.6265,-2.6556,-2.6151,-2.6569,-2.7391,-2.7684,-2.8544,-2.9551,-2.9434,-2.9795,-3.0224,-2.9828,-3.0562,-3.1618,-3.1758,-3.2646,-3.3918,-3.5378,-3.6222,-3.6788,-3.7353,-3.8427,-3.9354,-3.936,-3.9946,-4.0489,-4.0489,-4.0489,-4.0489,-4.0489,-4.0489,-4.0489,-4.0489,-4.0489,-4.0489,-4.0489,-4.0489,-4.0489,-4.0489,-4.0873,-4.0957,-4.0415,-4.0558,-4.0309,-3.9352,-3.9312,-3.9171,-3.8777,-3.8999,-3.9073,-3.8894,-3.8894,-3.8844,-3.8707,-3.9093,-3.9496,-3.99,-4.0708,-4.0891,-4.0524,-4.1735,-4.2304,-3.2043,-3.2593,-3.3385,-3.2848,-3.3231,-3.3726,0.0,0.0,0.0,-3.4778,-3.484,-3.4766,-3.4392,-3.4903,-3.5303,-3.504,-3.5584,-3.5579,-3.4365,-3.5608,-3.6817,-3.7257,-3.6916,-3.6617,-3.6472,-3.5724,-3.5048,-3.46,-3.4229,-3.4163,-3.4488,-3.5306,-3.5314,-3.4275,-3.359,-3.2817,-3.199,-3.1085,-3.0208,-2.9444,-2.9498,-2.8651,-2.7042,-2.7911,-2.7868,-2.7151,-2.7759,-2.7653,-2.7006,-2.6524,-2.6307,-2.6318,-2.6395,-2.6708,-2.727,-2.8421,-2.9206,-2.9661,-2.9414,-2.9978,-3.0735,-3.0095,-3.1072,-3.2428,-3.1954,-3.2885,-3.448,-3.6115,-3.7124,-3.7714,-3.7863,-3.9039,-4.0022,-3.9451,-3.9927,-4.0489,-4.0489,-4.0489,-4.0489,-4.0489,-4.0489,-4.0489,-4.0489,-4.0489,-4.0489,-4.0489,-4.0489,-4.0489,-4.0489,-4.0354,-3.9925,-3.9011,-3.9281,-3.8933,-3.7467,-3.824,-3.8562,-3.8106,-3.8464,-3.8707,-3.8707,-3.8707,-3.8781,-3.8927,-3.957,-4.0047,-4.0359,-4.1742,-4.2022,-4.1368,-4.2158,-4.2558,-3.1376,-3.2013,-3.3243,-3.371,-3.3616,-3.353,-3.3891,0.0,-3.3549,-3.3346,0.0,-3.3328,-3.3262,0.0,0.0,-3.2658,-3.2911,-3.322,-3.3405,-3.4105,-3.4499,-3.4164,-3.513,-3.5777,-3.5651,-3.4807,-3.4623,-3.5488,-3.4633,-3.4213,-3.4489,-3.5266,-3.4982,-3.3388,-3.3319,-3.2851,-3.1927,-3.1106,-3.0188,-2.9236,-3.0006,-2.9448,-2.7794,-2.8679,-2.867,-2.7981,-2.8044,-2.8046,-2.7932,-2.7637,-2.7466,-2.7323,-2.623,-2.6692,-2.7979,-2.8145,-2.8839,-2.9643,-2.9185,-2.9721,-3.0628,-3.0518,-3.1902,-3.3751,-3.4437,-3.4948,-3.5523,-3.6546,-3.6344,-3.6007,-3.6901,-3.7704,-3.8493,-3.923,-3.9965,-4.0489,-4.0489,-4.0489,-4.0489,-4.0489,-4.0489,-4.0489,-4.0489,-4.0489,-4.0489,-4.0489,-4.0489,-4.0489,-4.0489,-3.9873,-3.9311,-3.8935,-3.802,-3.7533,-3.7804,-3.7757,-3.7971,-3.8566,-3.8683,-3.8707,-3.8707,-3.8707,-3.9038,-3.9753,-3.9845,-4.0598,-4.2029,-4.252,-4.2545,-4.2176,-4.2983,-4.3498,-3.2334,-3.2944,-3.3834,-3.3382,-3.3508,-3.3615,-3.3076,-3.2866,-3.2744,-3.2658,0.0,0.0,0.0,0.0,0.0,0.0,-3.2151,-3.2317,-3.165,-3.2764,-3.393,-3.4616,-3.4802,-3.487,-3.4813,-3.5468,-3.5873,-3.5822,-3.6363,-3.6321,-3.5428,-3.6169,-3.6072,-3.4864,-3.4316,-3.3629,-3.272,-3.1795,-3.0871,-2.9967,-3.0294,-2.9794,-2.8621,-2.9544,-2.9506,-2.8735,-2.873,-2.8746,-2.8679,-2.7944,-2.7902,-2.824,-2.7713,-2.7903,-2.8537,-2.8764,-2.9607,-3.057,-3.0085,-3.0942,-3.233,-3.2997,-3.3823,-3.4655,-3.517,-3.5739,-3.6199,-3.6147,-3.6228,-3.6416,-3.6837,-3.7772,-3.8715,-3.9215,-3.9946,-4.0489,-4.0489,-4.0489,-4.0489,-4.0489,-4.0489,-4.0489,-4.0489,-4.0489,-4.0489,-4.0489,-4.0489,-4.0315,-3.9854,-3.9912,-3.9262,-3.7357,-3.7988,-3.7925,-3.6342,-3.7419,-3.8138,-3.801,-3.8432,-3.8707,-3.8707,-3.8707,-3.9074,-3.9863,-4.0359,-4.1259,-4.2582,-4.3211,-4.3404,-4.3304,-4.3867,-4.4223,-3.3209,-3.3709,-3.4242,-3.3152,-3.3241,-3.3363,-3.2308,-3.2001,-3.1965,-3.2019,-3.1626,0.0,0.0,0.0,-3.1528,-3.1251,0.0,-3.1578,-3.043,-3.1508,-3.2778,-3.3847,-3.3764,-3.3629,-3.3688,-3.5334,-3.6078,-3.5263,-3.6795,-3.723,-3.6033,-3.6543,-3.6571,-3.5947,-3.5044,-3.4248,-3.3588,-3.2422,-3.1494,-3.084,-3.0583,-3.0025,-2.9217,-3.0095,-3.0049,-2.9264,-2.9452,-2.9547,-2.9486,-2.8708,-2.8702,-2.9262,-2.9499,-2.9589,-2.9625,-2.9846,-3.0502,-3.1286,-3.1092,-3.2127,-3.3695,-3.4748,-3.5155,-3.5289,-3.5696,-3.6238,-3.6603,-3.6103,-3.6562,-3.7146,-3.6953,-3.7988,-3.9119,-3.9258,-3.9912,-4.0489,-4.0489,-4.0489,-4.0489,-4.0489,-4.0489,-4.0489,-4.0489,-4.0489,-4.0489,-4.0489,-4.0489,-4.0277,-3.97,-3.9865,-3.916,-3.6835,-3.7909,-3.7941,-3.5864,-3.7349,-3.8212,-3.7845,-3.8377,-3.8707,-3.8707,-3.8909,-3.9405,-4.0212,-4.102,-4.1936,-4.299,-4.3658,-4.4016,-4.4016,-4.4401,-4.4527,-3.3467,-3.3749,-3.4139,-3.344,-3.3011,-3.2551,-3.1871,-3.1384,-3.1129,-3.1378,-3.129,-3.1329,-3.1693,-3.1671,-3.1477,-3.1073,-3.0922,0.0,0.0,-3.0309,-3.0323,-3.0102,-3.1149,-3.196,-3.2151,-3.3516,-3.4148,-3.3535,-3.4807,-3.5691,-3.588,-3.5814,-3.5736,-3.5717,-3.4918,-3.4428,-3.427,-3.2686,-3.1847,-3.1744,-3.0968,-3.0167,-2.9425,-3.0166,-3.0096,-2.943,-3.0072,-3.0405,-3.0448,-3.034,-3.034,-3.0436,-3.1282,-3.1609,-3.1578,-3.1331,-3.1272,-3.139,-3.1935,-3.2876,-3.392,-3.48,-3.5273,-3.5628,-3.6416,-3.668,-3.6719,-3.682,-3.7392,-3.781,-3.7089,-3.8104,-3.9277,-3.9296,-3.9912,-4.0489,-4.0489,-4.0489,-4.0489,-4.0489,-4.0489,-4.0489,-4.0489,-4.0489,-4.0489,-4.0489,-4.0489,-4.0489,-4.045,-3.9522,-3.8727,-3.8361,-3.7398,-3.6949,-3.736,-3.7477,-3.7845,-3.8615,-3.8689,-3.8707,-3.8707,-3.9441,-4.023,-4.1056,-4.1864,-4.2653,-4.3477,-4.3849,-4.4016,-4.4016,-4.4401,-4.4392,-3.4878,-3.5001,-3.4967,-3.3901,-3.3523,-3.3165,-3.2192,-3.1411,-3.0924,-3.1102,-3.0603,-3.0048,-2.9746,-2.9547,-2.9374,-2.9241,-2.9212,-2.9503,0.0,-3.0455,-3.0486,-3.0436,-3.0853,-3.1161,-3.1164,-3.3238,-3.4486,-3.4277,-3.6309,-3.7556,-3.755,-3.7513,-3.7204,-3.6582,-3.625,-3.5514,-3.4308,-3.3186,-3.2346,-3.1782,-3.0944,-3.0392,-3.0143,-3.0394,-3.0247,-2.9823,-3.0266,-3.0348,-3.0188,-3.0343,-3.0737,-3.1295,-3.1583,-3.2025,-3.2462,-3.224,-3.2508,-3.3083,-3.3855,-3.4506,-3.5038,-3.533,-3.5907,-3.654,-3.6757,-3.7204,-3.7512,-3.6916,-3.6949,-3.7219,-3.7546,-3.8027,-3.8719,-3.9815,-4.0296,-4.0489,-4.0489,-4.0489,-4.0489,-4.0489,-4.0356,-4.0251,-4.0251,-4.0062,-3.9984,-4.0213,-4.0043,-3.9715,-3.9124,-3.9683,-3.969,-3.8508,-3.8821,-3.897,-3.8655,-3.8427,-3.8414,-3.8689,-3.9203,-3.9478,-3.9478,-4.0267,-4.1075,-4.1882,-4.2158,-4.2805,-4.3818,-4.3955,-4.4016,-4.4016,-4.4401,-4.4527,-3.5667,-3.5643,-3.5351,-3.4112,-3.3798,-3.3447,-3.2088,-3.1293,-3.0799,-3.064,-3.0023,-2.9467,-2.9242,-2.8608,-2.8115,-2.8114,-2.8709,-2.9485,0.0,-3.0606,-3.0625,-3.0636,-3.0698,-3.0845,-3.1131,-3.3017,-3.4339,-3.4661,-3.65,-3.7561,-3.7448,-3.7709,-3.7574,-3.6906,-3.6853,-3.6147,-3.4737,-3.3634,-3.2636,-3.179,-3.0957,-3.0564,-3.0525,-3.0438,-3.0273,-3.0078,-3.0234,-3.0188,-3.0013,-3.0299,-3.0737,-3.1295,-3.1891,-3.2449,-3.2917,-3.3097,-3.3685,-3.4492,-3.5105,-3.5445,-3.5597,-3.5628,-3.6037,-3.6484,-3.6453,-3.6986,-3.7473,-3.6873,-3.7161,-3.7757,-3.8315,-3.8661,-3.9161,-4.0239,-4.0489,-4.0489,-4.0489,-4.0489,-4.0473,-4.0372,-4.0213,-4.0061,-3.9943,-3.9645,-3.9552,-3.988,-3.9754,-3.9505,-3.9236,-4.0021,-4.0347,-3.962,-4.016,-4.0407,-3.9917,-3.9669,-3.9551,-3.9551,-4.0047,-4.0322,-4.0322,-4.1111,-4.1772,-4.2286,-4.258,-4.3082,-4.3836,-4.3836,-4.3836,-4.3836,-4.4095,-4.4213]}]]